[[{"header":{"parameterUnit":"m.s-1","parameterCategory":1,"la1":31.0,"la2":29.5877,"lo1":-88.7671,"lo2":-86.6584,"dy":0.0162,"dx":0.0185,"nx":115,"ny":88,"refTime":"2023-07-16T12:00:00:Z","depth":0,"parameterNumber":2,"parameterNumberName":"U-component_of_WINDS"},"data":[0.0,0.0,0.0,0.0,0.0,0.0,0.0,0.0,0.0,0.0,0.0,0.0,0.0,0.0,0.0,0.0,0.0,0.0,0.0,0.0,0.0,0.0,0.0,0.0,0.0,0.0,0.0,0.0,0.0,0.0,0.0,0.0,0.0,0.0,0.0,0.0,0.0,0.0,0.0,0.0,0.0,0.0,0.0,0.0,0.0,0.0,0.0,0.0,0.0,0.0,0.0,0.0,0.0,0.0,0.0,0.0,0.0,0.0,0.0,0.0,0.0,0.0,0.0,0.0,0.0,0.0,0.0,0.0,0.0,0.0,0.0,0.0,0.0,0.0,0.0,0.0,0.0,0.0,0.0,0.0,0.0,0.0,0.0,0.0,0.0,0.0,0.0,0.0,0.0,0.0,0.0,0.0,0.0,0.0,0.0,0.0,0.0,0.0,0.0,0.0,0.0,0.0,0.0,0.0,0.0,0.0,0.0,0.0,0.0,0.0,0.0,0.0,0.0,0.0,0.0,0.0,0.0,0.0,0.0,0.0,0.0,0.0,0.0,0.0,0.0,0.0,0.0,0.0,0.0,0.0,0.0,0.0,0.0,0.0,0.0,0.0,0.0,0.0,0.0,0.0,0.0,0.0,0.0,0.0,0.0,0.0,0.0,0.0,0.0,0.0,0.0,0.0,0.0,0.0,0.0,0.0,0.0,0.0,0.0,0.0,0.0,0.0,0.0,0.0,0.0,0.0,0.0,0.0,0.0,0.0,0.0,0.0,0.0,0.0,0.0,0.0,0.0,0.0,0.0,0.0,0.0,0.0,0.0,0.0,0.0,0.0,0.0,0.0,0.0,0.0,0.0,0.0,0.0,0.0,0.0,0.0,0.0,0.0,0.0,0.0,0.0,0.0,0.0,0.0,0.0,0.0,0.0,0.0,0.0,0.0,0.0,0.0,0.0,0.0,0.0,0.0,0.0,0.0,0.0,0.0,0.0,0.0,0.0,0.0,0.0,0.0,0.0,0.0,0.0,0.0,0.0,0.0,0.0,0.0,0.0,0.0,0.0,0.0,0.0,0.0,0.0,0.0,0.0,0.0,0.0,0.0,0.0,0.0,0.0,0.0,0.0,0.0,0.0,0.0,0.0,0.0,0.0,0.0,0.0,0.0,0.0,0.0,0.0,0.0,0.0,0.0,0.0,0.0,0.0,0.0,0.0,0.0,0.0,0.0,0.0,0.0,0.0,0.0,0.0,0.0,0.0,0.0,0.0,0.0,0.0,0.0,0.0,0.0,0.0,0.0,0.0,0.0,0.0,0.0,0.0,0.0,0.0,0.0,0.0,0.0,0.0,0.0,0.0,0.0,0.0,0.0,0.0,0.0,0.0,0.0,0.0,0.0,0.0,0.0,0.0,0.0,0.0,0.0,0.0,0.0,0.0,0.0,0.0,0.0,0.0,0.0,0.0,0.0,0.0,0.0,0.0,0.0,0.0,0.0,0.0,0.0,0.0,0.0,0.0,0.0,0.0,0.0,0.0,0.0,0.0,0.0,0.0,0.0,0.0,0.0,0.0,0.0,0.0,0.0,0.0,0.0,0.0,0.0,0.0,0.0,0.0,0.0,0.0,0.0,0.0,0.0,0.0,0.0,0.0,0.0,0.0,0.0,0.0,0.0,0.0,0.0,0.0,0.0,0.0,0.0,0.0,0.0,0.0,0.0,0.0,0.0,0.0,0.0,0.0,0.0,0.0,0.0,0.0,0.0,0.0,0.0,0.0,0.0,0.0,0.0,0.0,0.0,0.0,0.0,0.0,0.0,0.0,0.0,0.0,0.0,0.0,0.0,0.0,0.0,0.0,0.0,0.0,0.0,0.0,0.0,0.0,0.0,0.0,0.0,0.0,0.0,0.0,0.0,0.0,0.0,0.0,0.0,0.0,0.0,0.0,0.0,0.0,0.0,0.0,0.0,0.0,0.0,0.0,0.0,0.0,0.0,0.0,0.0,0.0,0.0,0.0,0.0,0.0,0.0,0.0,0.0,0.0,0.0,0.0,0.0,0.0,0.0,0.0,0.0,0.0,0.0,0.0,0.0,0.0,0.0,0.0,0.0,0.0,0.0,0.0,0.0,0.0,0.0,0.0,0.0,0.0,0.0,0.0,0.0,0.0,0.0,0.0,0.0,0.0,0.0,0.0,0.0,0.0,0.0,0.0,0.0,0.0,0.0,0.0,0.0,0.0,0.0,0.0,0.0,0.0,0.0,0.0,0.0,0.0,0.0,0.0,0.0,0.0,0.0,0.0,0.0,0.0,0.0,0.0,0.0,0.0,0.0,0.0,0.0,0.0,0.0,0.0,0.0,0.0,0.0,0.0,0.0,0.0,0.0,0.0,0.0,0.0,0.0,0.0,0.0,0.0,0.0,0.0,0.0,0.0,0.0,0.0,0.0,0.0,0.0,0.0,0.0,0.0,0.0,0.0,0.0,0.0,0.0,0.0,0.0,0.0,0.0,0.0,0.0,0.0,0.0,0.0,0.0,0.0,0.0,0.0,0.0,0.0,0.0,0.0,0.0,0.0,0.0,0.0,0.0,0.0,0.0,0.0,0.0,0.0,0.0,0.0,0.0,0.0,0.0,0.0,0.0,0.0,0.0,0.0,0.0,0.0,0.0,0.0,0.0,0.0,0.0,0.0,0.0,0.0,0.0,0.0,0.0,0.0,0.0,0.0,0.0,0.0,0.0,0.0,0.0,0.0,0.0,0.0,0.0,0.0,0.0,0.0,0.0,0.0,0.0,0.0,0.0,0.0,0.0,0.0,0.0,0.0,0.0,0.0,0.0,0.0,0.0,0.0,0.0,0.0,0.0,0.0,0.0,0.0,0.0,0.0,0.0,0.0,0.0,0.0,0.0,0.0,0.0,0.0,0.0,0.0,0.0,0.0,0.0,0.0,0.0,0.0,0.0,0.0,0.0,0.0,0.0,0.0,0.0,0.0,0.0,0.0,0.0,0.0,0.0,0.0,0.0,0.0,0.0,0.0,0.0,0.0,0.0,0.0,0.0,0.0,0.0,0.0,0.0,0.0,0.0,0.0,0.0,0.0,0.0,0.0,0.0,0.0,0.0,0.0,0.0,0.0,0.0,0.0,0.0,0.0,0.0,0.0,0.0,0.0,0.0,0.0,0.0,0.0,0.0,0.0,0.0,0.0,0.0,0.0,0.0,0.0,0.0,0.0,0.0,0.0,0.0,0.0,0.0,0.0,0.0,0.0,0.0,0.0,0.0,0.0,0.0,0.0,0.0,0.0,0.0,0.0,0.0,0.0,0.0,0.0,0.0,0.0,0.0,0.0,0.0,0.0,0.0,0.0,0.0,0.0,0.0,0.0,0.0,0.0,0.0,0.0,0.0,0.0,0.0,0.0,0.0,0.0,0.0,0.0,0.0,0.0,0.0,0.0,0.0,0.0,0.0,0.0,0.0,0.0,0.0,0.0,0.0,0.0,0.0,0.0,0.0,0.0,0.0,0.0,0.0,0.0,0.0,0.0,0.0,0.0,0.0,0.0,0.0,0.0,0.0,0.0,0.0,0.0,0.0,0.0,0.0,0.0,0.0,0.0,0.0,0.0,0.0,0.0,0.0,0.0,0.0,0.0,0.0,0.0,0.0,0.0,0.0,0.0,0.0,0.0,0.0,0.0,0.0,0.0,0.0,0.0,0.0,0.0,0.0,0.0,0.0,0.0,0.0,0.0,0.0,0.0,0.0,0.0,0.0,0.0,0.0,0.0,0.0,0.0,0.0,0.0,0.0,0.0,0.0,0.0,0.0,0.0,0.0,0.0,0.0,0.0,0.0,0.0,0.0,0.0,0.0,0.0,0.0,0.0,0.0,0.0,0.0,0.0,0.0,0.0,0.0,0.0,0.0,0.0,0.0,0.0,0.0,0.0,0.0,0.0,0.0,0.0,0.0,0.0,0.0,0.0,0.0,0.0,0.0,0.0,0.0,0.0,0.0,0.0,0.0,0.0,0.0,0.0,0.0,0.0,0.0,0.0,0.0,0.0,0.0,0.0,0.0,0.0,0.0,0.0,0.0,0.0,0.0,0.0,0.0,0.0,0.0,0.0,0.0,0.0,0.0,0.0,0.0,0.0,0.0,0.0,0.0,0.0,0.0,0.0,0.0,0.0,0.0,0.0,0.0,0.0,0.0,0.0,0.0,0.0,0.0,0.0,0.0,0.0,0.0,0.0,0.0,0.0,0.0,0.0,0.0,0.0,0.0,0.0,0.0,0.0,0.0,0.0,0.0,-2.5626,0.0,0.0,0.0,0.0,0.0,0.0,0.0,0.0,0.0,0.0,0.0,0.0,0.0,0.0,0.0,0.0,0.0,0.0,0.0,0.0,0.0,0.0,0.0,0.0,0.0,0.0,0.0,0.0,0.0,0.0,0.0,0.0,0.0,0.0,0.0,0.0,0.0,0.0,0.0,0.0,0.0,0.0,0.0,0.0,0.0,0.0,0.0,0.0,0.0,0.0,0.0,0.0,0.0,0.0,0.0,0.0,0.0,0.0,0.0,0.0,0.0,0.0,0.0,0.0,0.0,0.0,0.0,0.0,0.0,0.0,0.0,0.0,0.0,0.0,0.0,0.0,0.0,0.0,0.0,0.0,0.0,0.0,0.0,0.0,0.0,0.0,0.0,0.0,0.0,0.0,0.0,0.0,0.0,0.0,0.0,0.0,0.0,0.0,0.0,0.0,0.0,0.0,0.0,0.0,0.0,0.0,0.0,0.0,0.0,0.0,-2.6207,-2.6469,-2.6555,-2.6472,-2.6218,0.0,0.0,0.0,0.0,0.0,0.0,0.0,0.0,0.0,0.0,0.0,0.0,0.0,0.0,0.0,0.0,0.0,0.0,0.0,0.0,0.0,0.0,0.0,0.0,0.0,0.0,0.0,0.0,0.0,0.0,0.0,0.0,0.0,0.0,0.0,0.0,0.0,0.0,0.0,0.0,0.0,0.0,0.0,0.0,0.0,0.0,0.0,0.0,0.0,0.0,0.0,0.0,0.0,0.0,0.0,0.0,0.0,0.0,0.0,0.0,0.0,0.0,0.0,0.0,0.0,0.0,0.0,0.0,0.0,0.0,0.0,0.0,0.0,0.0,0.0,0.0,0.0,0.0,0.0,0.0,0.0,0.0,0.0,0.0,0.0,0.0,0.0,0.0,0.0,0.0,0.0,0.0,0.0,0.0,0.0,0.0,0.0,0.0,0.0,0.0,0.0,0.0,0.0,0.0,0.0,0.0,0.0,0.0,0.0,0.0,0.0,0.0,-2.6434,-2.6572,-2.6657,0.0,0.0,0.0,0.0,0.0,0.0,0.0,0.0,0.0,0.0,0.0,0.0,0.0,0.0,0.0,0.0,0.0,0.0,0.0,0.0,0.0,0.0,0.0,0.0,0.0,0.0,0.0,0.0,0.0,0.0,0.0,0.0,0.0,0.0,0.0,0.0,0.0,0.0,0.0,0.0,0.0,0.0,0.0,0.0,0.0,0.0,0.0,0.0,0.0,0.0,0.0,0.0,0.0,0.0,0.0,0.0,0.0,0.0,0.0,0.0,0.0,0.0,0.0,0.0,0.0,0.0,0.0,0.0,0.0,0.0,0.0,0.0,0.0,0.0,0.0,0.0,0.0,0.0,0.0,0.0,0.0,0.0,0.0,0.0,0.0,0.0,0.0,0.0,0.0,0.0,0.0,0.0,0.0,0.0,0.0,0.0,0.0,0.0,0.0,0.0,0.0,0.0,0.0,0.0,0.0,0.0,0.0,0.0,0.0,0.0,-2.5476,-2.5936,-2.615,0.0,-2.6589,0.0,0.0,0.0,0.0,0.0,0.0,0.0,0.0,0.0,0.0,0.0,0.0,0.0,0.0,0.0,0.0,0.0,0.0,0.0,0.0,0.0,0.0,0.0,0.0,0.0,0.0,0.0,0.0,0.0,0.0,0.0,0.0,0.0,0.0,0.0,0.0,0.0,0.0,0.0,0.0,0.0,0.0,0.0,0.0,0.0,0.0,0.0,0.0,0.0,0.0,0.0,0.0,0.0,0.0,0.0,0.0,0.0,0.0,0.0,0.0,0.0,0.0,0.0,0.0,0.0,0.0,0.0,0.0,0.0,0.0,0.0,0.0,0.0,0.0,0.0,0.0,0.0,0.0,0.0,0.0,0.0,0.0,0.0,0.0,0.0,0.0,0.0,0.0,0.0,0.0,0.0,0.0,0.0,0.0,0.0,0.0,0.0,0.0,0.0,0.0,0.0,0.0,0.0,0.0,0.0,0.0,0.0,0.0,0.0,0.0,-2.5169,-2.5602,-2.599,-2.6277,0.0,0.0,0.0,0.0,0.0,0.0,0.0,0.0,0.0,0.0,0.0,0.0,0.0,0.0,0.0,0.0,0.0,0.0,0.0,0.0,0.0,0.0,0.0,0.0,0.0,0.0,0.0,0.0,0.0,0.0,0.0,0.0,0.0,0.0,0.0,0.0,0.0,0.0,0.0,0.0,0.0,0.0,0.0,0.0,0.0,0.0,0.0,0.0,0.0,0.0,0.0,0.0,0.0,0.0,0.0,0.0,0.0,0.0,0.0,0.0,0.0,0.0,0.0,0.0,0.0,0.0,0.0,0.0,0.0,0.0,0.0,0.0,0.0,0.0,0.0,0.0,0.0,0.0,0.0,0.0,0.0,0.0,0.0,0.0,0.0,0.0,0.0,0.0,0.0,0.0,0.0,0.0,0.0,0.0,0.0,0.0,0.0,0.0,0.0,0.0,0.0,0.0,0.0,0.0,0.0,0.0,0.0,0.0,0.0,0.0,-2.4549,-2.4875,-2.5359,-2.5775,-2.6152,-2.6331,0.0,0.0,0.0,0.0,0.0,0.0,0.0,0.0,0.0,0.0,0.0,0.0,0.0,0.0,0.0,0.0,0.0,0.0,0.0,0.0,0.0,0.0,0.0,0.0,0.0,0.0,0.0,0.0,0.0,0.0,0.0,0.0,0.0,0.0,0.0,0.0,0.0,0.0,0.0,0.0,0.0,0.0,0.0,0.0,0.0,0.0,0.0,0.0,0.0,0.0,0.0,0.0,0.0,0.0,0.0,0.0,0.0,0.0,0.0,0.0,0.0,0.0,0.0,0.0,0.0,0.0,0.0,0.0,0.0,0.0,0.0,0.0,0.0,0.0,0.0,0.0,0.0,0.0,0.0,0.0,0.0,0.0,0.0,0.0,0.0,0.0,0.0,0.0,0.0,0.0,0.0,0.0,0.0,0.0,0.0,0.0,0.0,0.0,0.0,0.0,0.0,0.0,0.0,0.0,0.0,0.0,0.0,0.0,-2.3824,-2.4156,-2.463,-2.5259,-2.5511,-2.5809,0.0,0.0,0.0,0.0,0.0,0.0,0.0,0.0,0.0,0.0,0.0,0.0,0.0,0.0,0.0,0.0,0.0,0.0,0.0,0.0,0.0,0.0,0.0,0.0,0.0,0.0,0.0,0.0,0.0,0.0,0.0,0.0,0.0,0.0,0.0,0.0,0.0,0.0,0.0,0.0,0.0,0.0,0.0,0.0,0.0,0.0,0.0,0.0,0.0,0.0,0.0,0.0,0.0,0.0,0.0,0.0,0.0,0.0,0.0,0.0,0.0,0.0,0.0,0.0,0.0,0.0,0.0,0.0,0.0,0.0,0.0,0.0,0.0,0.0,0.0,0.0,0.0,0.0,0.0,0.0,0.0,0.0,0.0,0.0,0.0,0.0,0.0,0.0,0.0,0.0,0.0,0.0,0.0,0.0,0.0,0.0,0.0,0.0,0.0,0.0,0.0,0.0,0.0,0.0,0.0,0.0,0.0,0.0,0.0,-2.3782,-2.4036,-2.439,-2.4831,-2.5127,-2.5492,0.0,0.0,0.0,0.0,0.0,0.0,0.0,0.0,0.0,0.0,0.0,0.0,0.0,0.0,0.0,0.0,0.0,0.0,0.0,0.0,0.0,0.0,0.0,0.0,0.0,0.0,0.0,0.0,0.0,0.0,0.0,0.0,0.0,0.0,0.0,0.0,0.0,0.0,0.0,0.0,0.0,0.0,0.0,0.0,0.0,0.0,0.0,0.0,0.0,0.0,0.0,0.0,0.0,0.0,0.0,0.0,0.0,0.0,0.0,0.0,0.0,0.0,0.0,0.0,0.0,0.0,0.0,0.0,0.0,0.0,0.0,0.0,0.0,0.0,0.0,0.0,0.0,0.0,0.0,0.0,0.0,0.0,0.0,0.0,0.0,0.0,0.0,0.0,0.0,0.0,0.0,0.0,0.0,0.0,0.0,0.0,0.0,0.0,0.0,0.0,0.0,0.0,0.0,0.0,0.0,0.0,0.0,0.0,0.0,-2.3782,0.0,-2.4162,-2.4487,-2.4791,-2.513,0.0,0.0,0.0,0.0,0.0,0.0,0.0,0.0,0.0,0.0,0.0,0.0,0.0,0.0,0.0,0.0,0.0,0.0,0.0,0.0,0.0,0.0,0.0,0.0,0.0,0.0,0.0,0.0,0.0,0.0,0.0,0.0,0.0,0.0,0.0,0.0,0.0,0.0,0.0,0.0,0.0,0.0,0.0,0.0,0.0,0.0,0.0,0.0,0.0,0.0,0.0,0.0,0.0,0.0,0.0,0.0,0.0,0.0,0.0,0.0,0.0,0.0,0.0,0.0,0.0,0.0,0.0,0.0,0.0,0.0,0.0,0.0,0.0,0.0,0.0,0.0,0.0,0.0,0.0,0.0,0.0,0.0,0.0,0.0,0.0,0.0,0.0,0.0,0.0,0.0,0.0,0.0,0.0,0.0,0.0,0.0,0.0,0.0,0.0,0.0,0.0,0.0,0.0,0.0,0.0,0.0,0.0,0.0,-2.3689,-2.3782,-2.3818,-2.3952,-2.4297,-2.4487,-2.4795,0.0,0.0,0.0,0.0,0.0,0.0,0.0,0.0,0.0,0.0,0.0,0.0,0.0,0.0,0.0,0.0,0.0,0.0,0.0,0.0,0.0,0.0,0.0,0.0,0.0,0.0,0.0,0.0,0.0,0.0,0.0,0.0,0.0,0.0,0.0,0.0,0.0,0.0,0.0,0.0,0.0,0.0,0.0,0.0,0.0,0.0,0.0,0.0,0.0,0.0,0.0,0.0,0.0,0.0,0.0,0.0,0.0,0.0,0.0,0.0,0.0,0.0,0.0,0.0,0.0,0.0,0.0,0.0,0.0,0.0,0.0,0.0,0.0,0.0,0.0,0.0,0.0,0.0,0.0,0.0,0.0,0.0,0.0,0.0,0.0,0.0,0.0,0.0,0.0,0.0,0.0,0.0,0.0,0.0,0.0,0.0,0.0,0.0,0.0,0.0,0.0,0.0,0.0,0.0,0.0,0.0,0.0,0.0,0.0,-2.3674,-2.3674,-2.376,-2.3967,-2.424,-2.4528,0.0,0.0,0.0,0.0,0.0,0.0,0.0,0.0,0.0,0.0,0.0,0.0,0.0,0.0,0.0,0.0,0.0,0.0,0.0,0.0,0.0,0.0,0.0,0.0,0.0,0.0,0.0,0.0,0.0,0.0,0.0,0.0,0.0,0.0,0.0,0.0,0.0,0.0,0.0,0.0,0.0,0.0,0.0,0.0,0.0,0.0,0.0,0.0,0.0,0.0,0.0,0.0,0.0,0.0,0.0,0.0,0.0,0.0,0.0,0.0,0.0,0.0,0.0,0.0,0.0,0.0,0.0,0.0,0.0,0.0,0.0,0.0,0.0,0.0,0.0,0.0,0.0,0.0,0.0,0.0,0.0,0.0,0.0,0.0,0.0,0.0,0.0,0.0,0.0,0.0,0.0,0.0,0.0,0.0,0.0,0.0,0.0,0.0,0.0,0.0,0.0,0.0,0.0,0.0,0.0,0.0,0.0,0.0,0.0,-2.4373,-2.4582,-2.4665,-2.4535,-2.4754,-2.4746,-2.4441,0.0,0.0,0.0,0.0,0.0,0.0,0.0,0.0,0.0,0.0,0.0,0.0,0.0,0.0,0.0,0.0,0.0,0.0,0.0,0.0,0.0,0.0,0.0,0.0,0.0,0.0,0.0,0.0,0.0,0.0,0.0,0.0,0.0,0.0,0.0,0.0,0.0,0.0,0.0,0.0,0.0,0.0,0.0,0.0,0.0,0.0,0.0,0.0,0.0,0.0,0.0,0.0,0.0,0.0,0.0,0.0,0.0,0.0,0.0,0.0,0.0,0.0,0.0,0.0,0.0,0.0,0.0,0.0,0.0,0.0,0.0,0.0,0.0,0.0,0.0,0.0,0.0,0.0,0.0,0.0,0.0,0.0,0.0,0.0,0.0,0.0,0.0,0.0,0.0,0.0,0.0,0.0,0.0,0.0,0.0,0.0,0.0,0.0,0.0,0.0,0.0,0.0,0.0,0.0,0.0,0.0,0.0,0.0,-2.5764,-2.6452,-2.654,-2.5928,-2.5886,-2.5379,0.0,0.0,0.0,0.0,0.0,0.0,0.0,0.0,0.0,0.0,0.0,0.0,0.0,0.0,0.0,0.0,0.0,0.0,0.0,0.0,0.0,0.0,0.0,0.0,0.0,0.0,0.0,0.0,0.0,0.0,0.0,0.0,0.0,0.0,0.0,0.0,0.0,0.0,0.0,0.0,0.0,0.0,0.0,0.0,0.0,0.0,0.0,0.0,0.0,0.0,0.0,0.0,0.0,0.0,0.0,0.0,0.0,0.0,0.0,0.0,0.0,0.0,0.0,0.0,0.0,0.0,0.0,0.0,0.0,0.0,0.0,0.0,0.0,0.0,0.0,0.0,0.0,0.0,0.0,0.0,0.0,0.0,0.0,0.0,0.0,0.0,0.0,0.0,0.0,0.0,0.0,0.0,0.0,0.0,0.0,0.0,0.0,0.0,0.0,0.0,0.0,0.0,0.0,0.0,0.0,0.0,0.0,0.0,0.0,-2.7814,-2.8921,-2.8738,-2.72,-2.6266,-2.5681,0.0,0.0,0.0,0.0,0.0,0.0,0.0,0.0,0.0,0.0,0.0,0.0,0.0,0.0,0.0,0.0,0.0,0.0,0.0,0.0,0.0,0.0,0.0,0.0,0.0,0.0,0.0,0.0,0.0,0.0,0.0,0.0,0.0,0.0,0.0,0.0,0.0,0.0,0.0,0.0,0.0,0.0,0.0,0.0,0.0,0.0,0.0,0.0,0.0,0.0,0.0,0.0,0.0,0.0,0.0,0.0,0.0,0.0,0.0,0.0,0.0,0.0,0.0,0.0,0.0,0.0,0.0,0.0,0.0,0.0,0.0,0.0,0.0,0.0,0.0,0.0,0.0,0.0,0.0,0.0,0.0,0.0,0.0,0.0,0.0,0.0,0.0,0.0,0.0,0.0,0.0,0.0,0.0,0.0,0.0,0.0,0.0,0.0,0.0,0.0,0.0,0.0,0.0,0.0,0.0,0.0,0.0,0.0,-2.7949,-2.9011,-3.0806,-3.1091,-2.9684,-2.765,-2.6303,0.0,0.0,0.0,0.0,0.0,0.0,0.0,0.0,0.0,0.0,0.0,0.0,0.0,0.0,0.0,0.0,0.0,0.0,0.0,0.0,0.0,0.0,0.0,0.0,0.0,0.0,0.0,0.0,0.0,0.0,0.0,0.0,0.0,0.0,0.0,0.0,0.0,0.0,0.0,0.0,0.0,0.0,0.0,0.0,0.0,0.0,0.0,0.0,0.0,0.0,0.0,0.0,0.0,0.0,0.0,0.0,0.0,0.0,0.0,0.0,0.0,0.0,0.0,0.0,0.0,0.0,0.0,0.0,0.0,0.0,0.0,0.0,0.0,0.0,0.0,0.0,0.0,0.0,0.0,0.0,0.0,0.0,0.0,0.0,0.0,0.0,0.0,0.0,0.0,0.0,0.0,0.0,0.0,0.0,0.0,0.0,0.0,0.0,0.0,0.0,0.0,0.0,0.0,0.0,0.0,0.0,0.0,0.0,-2.9101,-2.9894,-3.2243,-3.3215,-3.2557,-2.9502,-2.7195,0.0,0.0,0.0,0.0,0.0,0.0,0.0,0.0,0.0,0.0,0.0,0.0,0.0,0.0,0.0,0.0,0.0,0.0,0.0,0.0,0.0,0.0,0.0,0.0,0.0,0.0,0.0,0.0,0.0,0.0,0.0,0.0,0.0,0.0,0.0,0.0,0.0,0.0,0.0,0.0,0.0,0.0,0.0,0.0,0.0,0.0,0.0,0.0,0.0,0.0,0.0,0.0,0.0,0.0,0.0,0.0,0.0,0.0,0.0,0.0,0.0,0.0,0.0,0.0,0.0,0.0,0.0,0.0,0.0,0.0,0.0,0.0,0.0,0.0,0.0,0.0,0.0,0.0,0.0,0.0,0.0,0.0,0.0,0.0,0.0,0.0,0.0,0.0,0.0,0.0,0.0,0.0,0.0,0.0,0.0,0.0,0.0,0.0,0.0,0.0,0.0,0.0,0.0,0.0,0.0,0.0,0.0,0.0,-3.0193,-3.1869,-3.2946,-3.3425,-3.3275,-3.0612,-2.8558,0.0,0.0,0.0,0.0,0.0,0.0,0.0,0.0,0.0,0.0,0.0,0.0,0.0,0.0,0.0,0.0,0.0,0.0,0.0,0.0,0.0,0.0,0.0,0.0,0.0,0.0,0.0,0.0,0.0,0.0,0.0,0.0,0.0,0.0,0.0,0.0,0.0,0.0,0.0,0.0,0.0,0.0,0.0,0.0,0.0,0.0,0.0,0.0,-1.8965,0.0,0.0,0.0,0.0,0.0,0.0,0.0,0.0,0.0,0.0,0.0,0.0,0.0,0.0,0.0,0.0,0.0,0.0,0.0,0.0,0.0,0.0,0.0,0.0,0.0,0.0,0.0,0.0,0.0,0.0,0.0,0.0,0.0,0.0,0.0,0.0,0.0,0.0,0.0,0.0,0.0,0.0,0.0,0.0,0.0,0.0,0.0,0.0,0.0,0.0,0.0,0.0,0.0,0.0,0.0,0.0,0.0,0.0,0.0,-3.0971,-3.2916,-3.3933,-3.4292,-3.3918,-3.2317,-3.0535,0.0,0.0,0.0,0.0,0.0,0.0,0.0,0.0,0.0,0.0,0.0,0.0,0.0,0.0,0.0,0.0,0.0,0.0,0.0,0.0,0.0,0.0,0.0,0.0,0.0,0.0,0.0,0.0,0.0,0.0,0.0,0.0,0.0,0.0,0.0,0.0,0.0,0.0,0.0,0.0,0.0,0.0,0.0,0.0,0.0,0.0,0.0,0.0,0.0,0.0,0.0,0.0,0.0,0.0,0.0,0.0,0.0,0.0,0.0,0.0,0.0,0.0,0.0,0.0,0.0,0.0,0.0,0.0,0.0,0.0,0.0,0.0,0.0,0.0,0.0,0.0,0.0,0.0,0.0,0.0,0.0,0.0,0.0,0.0,0.0,0.0,0.0,0.0,0.0,0.0,0.0,0.0,0.0,0.0,0.0,0.0,0.0,0.0,0.0,0.0,0.0,0.0,0.0,0.0,0.0,0.0,0.0,-3.0163,-3.1779,-3.3739,-3.4921,-3.522,-3.4683,-3.4024,-3.2452,-2.9968,0.0,0.0,0.0,0.0,0.0,0.0,0.0,0.0,0.0,0.0,0.0,0.0,0.0,0.0,0.0,0.0,0.0,0.0,0.0,0.0,0.0,0.0,0.0,0.0,0.0,0.0,0.0,0.0,0.0,0.0,0.0,0.0,0.0,0.0,0.0,0.0,0.0,0.0,-1.6603,-1.7478,0.0,0.0,0.0,0.0,0.0,0.0,0.0,0.0,-1.9863,0.0,0.0,0.0,0.0,0.0,0.0,0.0,0.0,0.0,0.0,0.0,0.0,0.0,0.0,0.0,0.0,0.0,0.0,0.0,0.0,0.0,0.0,0.0,0.0,0.0,0.0,0.0,0.0,0.0,0.0,0.0,0.0,0.0,0.0,0.0,0.0,0.0,0.0,0.0,0.0,0.0,0.0,0.0,0.0,0.0,0.0,0.0,0.0,0.0,0.0,0.0,0.0,0.0,0.0,0.0,0.0,-3.0163,-3.1509,-3.3155,-3.5115,-3.54,-3.5444,-3.5325,-3.4681,-3.3335,-3.1227,0.0,0.0,0.0,0.0,0.0,0.0,0.0,0.0,0.0,0.0,0.0,0.0,0.0,0.0,0.0,0.0,0.0,0.0,0.0,0.0,0.0,0.0,0.0,0.0,0.0,0.0,0.0,0.0,0.0,0.0,0.0,0.0,0.0,0.0,0.0,0.0,0.0,0.0,0.0,-1.8364,-1.8812,0.0,0.0,0.0,0.0,0.0,0.0,0.0,0.0,-2.1045,0.0,0.0,0.0,0.0,0.0,0.0,0.0,0.0,0.0,0.0,0.0,0.0,0.0,0.0,0.0,0.0,0.0,0.0,0.0,0.0,0.0,0.0,0.0,0.0,0.0,0.0,0.0,0.0,0.0,0.0,0.0,0.0,0.0,0.0,0.0,0.0,0.0,0.0,0.0,0.0,0.0,0.0,0.0,0.0,0.0,0.0,0.0,0.0,0.0,0.0,0.0,0.0,0.0,0.0,0.0,-3.1988,-3.338,-3.4696,-3.5968,-3.6028,-3.5848,-3.5504,-3.4831,-3.3559,0.0,0.0,0.0,0.0,0.0,0.0,0.0,0.0,0.0,0.0,0.0,0.0,0.0,0.0,0.0,0.0,0.0,0.0,0.0,0.0,0.0,0.0,0.0,0.0,0.0,0.0,0.0,0.0,0.0,0.0,0.0,0.0,0.0,0.0,0.0,0.0,0.0,0.0,0.0,0.0,-1.9124,-1.9619,-2.044,0.0,0.0,0.0,0.0,0.0,0.0,-2.1894,-2.1931,0.0,0.0,0.0,0.0,0.0,0.0,0.0,0.0,0.0,0.0,0.0,0.0,0.0,0.0,0.0,0.0,0.0,0.0,0.0,0.0,0.0,0.0,0.0,0.0,0.0,0.0,0.0,0.0,0.0,0.0,0.0,0.0,0.0,0.0,0.0,0.0,0.0,0.0,0.0,0.0,0.0,0.0,0.0,0.0,0.0,0.0,0.0,0.0,0.0,0.0,0.0,0.0,0.0,0.0,0.0,-3.3455,-3.4951,-3.6013,-3.6641,-3.6671,-3.6417,-3.5893,-3.4966,-3.3619,0.0,0.0,0.0,0.0,0.0,0.0,0.0,0.0,0.0,0.0,0.0,0.0,0.0,0.0,0.0,0.0,0.0,0.0,0.0,0.0,0.0,0.0,0.0,0.0,0.0,0.0,0.0,0.0,0.0,0.0,0.0,0.0,0.0,0.0,0.0,0.0,0.0,0.0,0.0,0.0,0.0,-2.0225,-2.1181,-2.0986,0.0,0.0,0.0,0.0,-2.207,-2.249,0.0,0.0,0.0,0.0,0.0,0.0,0.0,0.0,0.0,0.0,0.0,0.0,0.0,0.0,0.0,0.0,0.0,0.0,0.0,0.0,0.0,0.0,0.0,0.0,0.0,0.0,0.0,0.0,0.0,0.0,0.0,0.0,0.0,0.0,0.0,0.0,0.0,0.0,0.0,0.0,0.0,0.0,0.0,0.0,0.0,0.0,0.0,0.0,0.0,0.0,0.0,0.0,0.0,0.0,0.0,0.0,-3.3499,-3.54,-3.6671,-3.7255,-3.73,-3.727,-3.7165,-3.5429,-3.386,0.0,0.0,0.0,0.0,0.0,0.0,0.0,0.0,0.0,0.0,0.0,0.0,0.0,0.0,0.0,0.0,0.0,0.0,0.0,0.0,0.0,0.0,0.0,0.0,0.0,0.0,0.0,0.0,0.0,0.0,0.0,0.0,0.0,0.0,0.0,0.0,0.0,0.0,0.0,0.0,0.0,-2.0381,-2.1641,-2.1395,-2.1103,0.0,0.0,-2.2467,-2.2886,-2.3359,0.0,0.0,0.0,0.0,0.0,0.0,0.0,0.0,0.0,0.0,0.0,0.0,0.0,0.0,0.0,0.0,0.0,0.0,0.0,0.0,0.0,0.0,0.0,0.0,0.0,0.0,0.0,0.0,0.0,0.0,0.0,0.0,0.0,0.0,0.0,0.0,0.0,0.0,0.0,0.0,0.0,0.0,0.0,0.0,0.0,0.0,0.0,0.0,0.0,0.0,0.0,0.0,0.0,0.0,0.0,-3.3858,-3.519,-3.7135,-3.8093,-3.7973,-3.7958,-3.7793,-3.7419,-3.5878,-3.4442,0.0,0.0,0.0,0.0,0.0,0.0,0.0,0.0,0.0,0.0,0.0,0.0,0.0,0.0,0.0,0.0,0.0,0.0,0.0,0.0,0.0,0.0,0.0,0.0,0.0,0.0,0.0,0.0,0.0,0.0,0.0,0.0,0.0,0.0,0.0,0.0,0.0,0.0,0.0,0.0,0.0,0.0,-2.1738,-2.1719,0.0,0.0,0.0,-2.2939,-2.3125,0.0,0.0,0.0,0.0,0.0,0.0,0.0,0.0,0.0,0.0,0.0,0.0,0.0,0.0,0.0,0.0,0.0,0.0,0.0,0.0,0.0,0.0,0.0,0.0,0.0,0.0,0.0,0.0,0.0,0.0,0.0,0.0,0.0,0.0,0.0,0.0,0.0,0.0,0.0,0.0,0.0,0.0,0.0,0.0,0.0,0.0,0.0,0.0,0.0,0.0,0.0,0.0,0.0,0.0,0.0,0.0,0.0,-3.6477,-3.8422,-3.9134,-3.8676,-3.8646,-3.8407,-3.7878,-3.6641,0.0,0.0,0.0,0.0,0.0,0.0,0.0,0.0,0.0,0.0,0.0,0.0,0.0,0.0,0.0,0.0,0.0,0.0,0.0,0.0,0.0,0.0,0.0,0.0,0.0,0.0,0.0,-2.1119,0.0,0.0,0.0,0.0,0.0,0.0,0.0,0.0,0.0,0.0,0.0,0.0,0.0,0.0,-2.1006,-2.1787,-2.1973,-2.2187,0.0,0.0,-2.334,-2.3501,-2.4463,-2.4766,0.0,0.0,0.0,0.0,0.0,0.0,0.0,0.0,0.0,0.0,0.0,0.0,0.0,0.0,0.0,0.0,0.0,0.0,0.0,0.0,0.0,0.0,0.0,0.0,0.0,0.0,0.0,0.0,0.0,0.0,0.0,0.0,0.0,0.0,0.0,0.0,0.0,0.0,0.0,0.0,0.0,0.0,0.0,0.0,0.0,0.0,0.0,0.0,0.0,0.0,0.0,0.0,0.0,0.0,0.0,-3.6492,-3.8422,-3.9358,-3.9349,-3.9349,-3.9298,-3.926,-3.7988,-3.6372,0.0,0.0,0.0,0.0,0.0,0.0,0.0,0.0,0.0,0.0,0.0,0.0,0.0,0.0,0.0,0.0,0.0,0.0,0.0,0.0,0.0,0.0,0.0,0.0,0.0,0.0,0.0,0.0,0.0,0.0,0.0,0.0,0.0,0.0,0.0,0.0,0.0,0.0,0.0,0.0,0.0,-2.1367,-2.1816,-2.2227,-2.2574,0.0,0.0,-2.3887,-2.4268,-2.5088,-2.5117,-2.3482,0.0,0.0,0.0,0.0,0.0,0.0,0.0,0.0,0.0,0.0,0.0,0.0,0.0,0.0,0.0,0.0,0.0,0.0,0.0,0.0,0.0,0.0,0.0,0.0,0.0,0.0,0.0,0.0,0.0,0.0,0.0,0.0,0.0,0.0,0.0,0.0,0.0,0.0,0.0,0.0,0.0,0.0,0.0,0.0,0.0,0.0,0.0,0.0,0.0,0.0,0.0,0.0,0.0,-3.5744,-3.7045,-3.8616,-3.9388,-3.9388,-3.9388,-3.9388,-3.9388,-3.8512,-3.7285,0.0,0.0,0.0,0.0,0.0,0.0,0.0,0.0,0.0,0.0,0.0,0.0,0.0,0.0,0.0,0.0,0.0,0.0,0.0,0.0,0.0,0.0,0.0,0.0,0.0,0.0,0.0,0.0,-2.4042,-2.4165,-2.3362,0.0,0.0,0.0,0.0,0.0,0.0,0.0,0.0,0.0,0.0,-2.1541,-2.2519,-2.2812,0.0,0.0,-2.4072,-2.4228,-2.4394,-2.4932,-2.4922,-2.374,-2.3105,0.0,0.0,0.0,0.0,0.0,0.0,0.0,0.0,0.0,0.0,0.0,0.0,0.0,0.0,0.0,0.0,0.0,0.0,0.0,0.0,0.0,0.0,0.0,0.0,0.0,0.0,0.0,0.0,0.0,0.0,0.0,0.0,0.0,0.0,0.0,0.0,0.0,0.0,0.0,0.0,0.0,0.0,0.0,0.0,0.0,0.0,0.0,0.0,0.0,0.0,0.0,0.0,-3.6596,-3.7704,-3.923,-4.0008,-4.0008,-3.9828,-3.9723,-3.9694,-3.905,-3.8093,0.0,0.0,0.0,0.0,0.0,0.0,0.0,0.0,0.0,0.0,0.0,0.0,0.0,0.0,0.0,0.0,0.0,0.0,0.0,0.0,0.0,0.0,0.0,0.0,0.0,0.0,0.0,0.0,-2.4179,-2.4055,-2.3043,0.0,0.0,0.0,0.0,0.0,0.0,0.0,0.0,0.0,0.0,-2.2038,-2.2799,-2.3184,-2.3599,-2.415,-2.4228,-2.4268,-2.4394,-2.4668,-2.4629,-2.3906,0.0,0.0,0.0,0.0,0.0,0.0,0.0,0.0,0.0,0.0,0.0,0.0,0.0,0.0,0.0,0.0,0.0,0.0,0.0,0.0,0.0,0.0,0.0,0.0,0.0,0.0,0.0,0.0,0.0,0.0,-3.1466,0.0,0.0,0.0,0.0,0.0,0.0,0.0,0.0,0.0,0.0,0.0,0.0,0.0,0.0,0.0,0.0,0.0,0.0,0.0,0.0,0.0,0.0,-3.7689,-3.8377,-4.0277,-4.1362,-4.1294,-4.0711,-4.0397,-4.0367,-3.9738,-3.8766,-3.7404,0.0,0.0,0.0,0.0,0.0,0.0,0.0,0.0,0.0,0.0,0.0,0.0,0.0,0.0,0.0,0.0,0.0,0.0,0.0,0.0,0.0,0.0,0.0,0.0,0.0,0.0,-2.3183,-2.348,-2.3477,0.0,0.0,0.0,0.0,0.0,0.0,0.0,0.0,0.0,0.0,-2.2083,-2.3022,-2.2617,-2.3242,-2.3779,-2.3838,-2.3828,-2.3955,-2.4355,-2.4424,-2.4287,0.0,0.0,0.0,0.0,0.0,0.0,0.0,0.0,0.0,0.0,0.0,0.0,0.0,0.0,0.0,0.0,0.0,0.0,0.0,0.0,0.0,0.0,0.0,0.0,0.0,0.0,0.0,-3.447,-3.4457,0.0,0.0,0.0,0.0,0.0,0.0,0.0,0.0,0.0,0.0,0.0,-3.8437,-3.8437,0.0,0.0,0.0,0.0,0.0,0.0,0.0,0.0,0.0,0.0,0.0,0.0,-3.7734,-3.8437,-4.0352,-4.1422,-4.1384,-4.1175,-4.1055,-4.1055,-4.0412,-3.923,-3.7464,0.0,0.0,0.0,0.0,0.0,0.0,0.0,0.0,0.0,0.0,0.0,0.0,0.0,0.0,0.0,0.0,0.0,0.0,0.0,0.0,0.0,0.0,0.0,0.0,0.0,-2.4192,0.0,0.0,0.0,0.0,0.0,0.0,0.0,0.0,0.0,0.0,0.0,-2.1553,-2.1826,-2.2363,-2.2881,-2.3301,-2.3603,-2.3984,0.0,0.0,0.0,0.0,0.0,0.0,0.0,0.0,0.0,0.0,0.0,0.0,0.0,0.0,-2.3643,-2.3232,-2.3379,-2.3564,-2.3564,0.0,0.0,0.0,0.0,0.0,0.0,0.0,0.0,0.0,0.0,0.0,0.0,0.0,0.0,0.0,0.0,-3.5938,0.0,0.0,0.0,0.0,0.0,0.0,0.0,0.0,-3.896,-3.9813,-4.0442,-4.0442,-4.0083,0.0,-3.9185,-3.7868,0.0,0.0,0.0,0.0,0.0,0.0,0.0,0.0,-3.8437,-3.914,-4.104,-4.2073,-4.2058,-4.1871,-4.1752,-4.1752,-4.0876,-3.9783,-3.8497,-3.7389,-3.6207,0.0,0.0,0.0,0.0,0.0,0.0,0.0,0.0,0.0,0.0,0.0,0.0,0.0,0.0,0.0,0.0,0.0,0.0,0.0,0.0,0.0,0.0,0.0,-2.5106,0.0,0.0,0.0,0.0,0.0,0.0,0.0,0.0,0.0,-2.0801,-2.1562,-2.2207,-2.248,-2.2891,-2.3271,-2.3525,0.0,0.0,0.0,0.0,0.0,0.0,0.0,-2.374,-2.3559,-2.3848,-2.4111,-2.4238,-2.4385,-2.4697,-2.5448,0.0,0.0,-2.4629,-2.4687,-2.4826,-2.4883,-2.4873,-2.4883,-2.4883,-2.4826,-2.4826,0.0,0.0,0.0,0.0,0.0,0.0,0.0,0.0,-3.8482,-3.8138,0.0,-3.8167,0.0,0.0,0.0,0.0,0.0,0.0,0.0,0.0,-4.2273,-4.2955,-4.2425,-4.2396,-4.2096,-4.1429,-4.0801,-4.0172,-3.9433,-3.8212,0.0,0.0,0.0,0.0,0.0,0.0,-3.9783,-4.0442,-4.2273,-4.3275,-4.326,-4.2716,-4.2425,-4.2366,-4.1145,-4.0457,-4.0352,-3.8556,-3.7509,-3.7419,-3.4706,0.0,0.0,0.0,0.0,0.0,0.0,0.0,0.0,0.0,0.0,0.0,0.0,0.0,0.0,0.0,0.0,0.0,0.0,0.0,0.0,-2.5347,0.0,0.0,0.0,0.0,0.0,0.0,0.0,0.0,0.0,0.0,-2.1318,-2.199,-2.2529,-2.2539,0.0,0.0,0.0,0.0,-2.4056,-2.3296,-2.3149,-2.3159,-2.3188,-2.3564,-2.3955,-2.4355,0.0,0.0,-2.6338,-2.6074,-2.5937,-2.6377,-2.6777,-2.6797,-2.5927,-2.5801,-2.5801,-2.5801,-2.582,-2.583,-2.5771,-2.5859,-2.583,-3.976,0.0,0.0,0.0,0.0,-3.8287,-3.932,-4.0569,-4.0516,-4.0412,-4.0232,-3.9948,0.0,0.0,0.0,0.0,0.0,0.0,-3.9828,-4.113,-4.2201,-4.2791,-4.306,-4.306,-4.2955,-4.2761,-4.2557,-4.2363,-4.2154,-4.178,-4.0262,-3.7599,0.0,0.0,0.0,0.0,-4.0442,-4.1145,-4.2566,-4.3305,-4.3305,-4.311,-4.2836,-4.2396,-4.2036,-4.1579,-4.11,-4.0098,-3.932,-3.8805,-3.702,0.0,0.0,0.0,0.0,0.0,0.0,0.0,0.0,0.0,0.0,0.0,0.0,0.0,0.0,0.0,0.0,0.0,0.0,0.0,-2.5971,-2.6512,-2.6436,0.0,0.0,0.0,0.0,0.0,0.0,0.0,0.0,0.0,-2.2467,-2.276,-2.2916,0.0,0.0,-2.3364,-2.313,-2.3613,-2.3984,-2.4043,0.0,0.0,0.0,-2.4365,-2.4385,-2.4814,-2.5625,-2.6435,-2.7178,-2.7197,-2.7246,-2.7656,-2.7842,-2.7842,-2.7637,-2.7559,-2.7539,-2.7568,-2.7559,-2.7568,-2.7568,-2.7559,-2.7539,-4.1803,-4.0352,-4.0247,-3.9948,-3.9649,-4.0307,-4.1175,-4.2147,-4.2162,-4.2013,-4.1796,-4.1624,-4.0681,-3.9155,-3.8497,0.0,0.0,0.0,-4.0905,-4.2177,-4.2551,-4.2955,-4.3275,-4.3305,-4.3305,-4.3305,-4.3305,-4.3305,-4.3305,-4.3075,-4.1953,-4.0029,0.0,0.0,-3.9215,-4.0262,-4.11,-4.1826,-4.2806,-4.3305,-4.3305,-4.3305,-4.3095,-4.2761,-4.253,-4.2216,-4.1826,-4.1145,-4.0487,-3.9828,-3.8618,-3.6746,0.0,0.0,0.0,0.0,0.0,0.0,0.0,0.0,0.0,0.0,0.0,-2.386,0.0,0.0,0.0,0.0,-2.6465,-2.6829,-2.7394,-2.7356,0.0,0.0,0.0,0.0,0.0,0.0,0.0,-2.192,-2.2318,-2.2832,-2.333,-2.35,-2.3608,-2.3598,-2.3799,-2.3848,-2.3627,0.0,-2.4326,-2.4404,-2.4424,-2.4512,-2.4766,-2.4883,-2.5195,-2.6026,-2.6583,-2.7109,-2.7773,-2.791,-2.8008,-2.8223,-2.8301,-2.8301,-2.8301,-2.8301,-2.8301,-2.8301,-2.8301,-2.8301,-2.8301,-2.8301,-2.8301,-4.3305,-4.3185,-4.2028,-4.1572,-4.1594,-4.2216,-4.2791,-4.329,-4.329,-4.2985,-4.253,-4.3075,-4.2288,-4.0606,-3.9993,0.0,-4.1534,-4.1534,-4.2177,-4.329,-4.3305,-4.3305,-4.3305,-4.3305,-4.3305,-4.3305,-4.3305,-4.3305,-4.326,-4.2731,-4.2485,-4.2455,-4.1871,-4.1205,-4.0621,-4.1145,-4.1811,-4.2485,-4.3015,-4.3305,-4.3305,-4.3305,-4.3305,-4.329,-4.2746,-4.2485,-4.2455,-4.1856,-4.1212,-4.0576,-3.9675,-3.7974,-3.5384,0.0,0.0,0.0,0.0,0.0,0.0,0.0,0.0,0.0,0.0,0.0,0.0,0.0,0.0,0.0,-2.7883,0.0,-2.885,-2.8009,0.0,0.0,0.0,-2.6406,-2.5326,-2.5292,-2.4768,-2.3225,0.0,0.0,-2.3887,0.0,-2.4473,-2.4521,-2.4814,-2.4863,-2.4473,-2.4766,-2.4969,-2.4541,-2.4512,-2.4551,-2.4766,-2.5343,-2.6279,-2.7366,-2.7748,-2.7832,-2.8174,-2.8271,-2.8281,-2.8291,-2.8301,-2.8301,-2.8301,-2.8301,-2.8301,-2.8301,-2.8301,-2.8301,-2.8301,-2.8301,-2.8301,-4.3305,-4.3275,-4.2961,-4.2865,-4.288,-4.2991,-4.3195,-4.329,-4.3305,-4.32,-4.312,-4.323,-4.3035,-4.2587,-4.2438,-4.2527,-4.2826,-4.2841,-4.3006,-4.329,-4.3305,-4.3305,-4.3305,-4.3305,-4.3305,-4.3305,-4.3305,-4.3305,-4.329,-4.314,-4.3105,-4.309,-4.294,-4.2536,-4.1961,-4.2096,-4.25,-4.309,-4.32,-4.3305,-4.3305,-4.3305,-4.3305,-4.3305,-4.314,-4.3105,-4.3105,-4.2476,-4.2096,-4.1916,-4.0748,-3.9002,-3.6664,-3.4739,0.0,0.0,0.0,0.0,0.0,0.0,0.0,0.0,0.0,-2.5473,-2.5586,0.0,-2.762,0.0,-2.88,-2.9277,-2.8925,-2.8687,0.0,0.0,-2.7903,-2.7711,-2.7025,-2.7308,-2.7001,-2.5369,-2.5493,-2.5451,-2.4857,-2.4853,-2.5049,-2.5313,-2.4932,-2.4531,-2.4443,-2.4785,-2.5086,-2.4971,-2.5205,-2.5537,-2.5889,-2.6641,-2.7337,-2.7669,-2.793,-2.8174,-2.8281,-2.8301,-2.8301,-2.8301,-2.8301,-2.8301,-2.8301,-2.8301,-2.8301,-2.8301,-2.8301,-2.8301,-2.8301,-2.8301,-2.8301,-4.4212,-4.4197,-4.3843,-4.3723,-4.3693,-4.3409,-4.3305,-4.3305,-4.3305,-4.3305,-4.3305,-4.3305,-4.3305,-4.3305,-4.3305,-4.3305,-4.3305,-4.3305,-4.3305,-4.3305,-4.3305,-4.3305,-4.3305,-4.3305,-4.3305,-4.3305,-4.3305,-4.3305,-4.3305,-4.3305,-4.3305,-4.3305,-4.3305,-4.3125,-4.2806,-4.2791,-4.2985,-4.329,-4.3305,-4.3305,-4.3305,-4.3305,-4.317,-4.291,-4.2895,-4.2761,-4.2476,-4.2117,-4.1826,-4.1474,-4.0711,-3.9258,-3.7102,-3.5368,-3.3201,0.0,0.0,0.0,0.0,0.0,0.0,0.0,0.0,0.0,0.0,0.0,-2.8436,0.0,-2.9038,-2.9377,-2.9315,-2.9051,-2.8925,-2.9037,-2.926,-2.8961,-2.779,-2.8146,-2.7731,-2.5751,-2.5854,-2.5859,-2.5428,-2.5371,-2.5449,-2.5664,-2.5488,-2.5225,-2.5078,-2.5371,-2.5703,-2.5674,-2.6025,-2.6465,-2.6894,-2.7395,-2.7787,-2.7973,-2.8144,-2.8301,-2.8301,-2.8301,-2.8301,-2.8301,-2.8301,-2.8301,-2.8301,-2.8301,-2.8301,-2.8301,-2.8301,-2.8301,-2.8301,-2.8301,-2.8301,-4.5289,-4.5229,-4.4676,-4.4436,-4.4407,-4.3783,-4.3439,-4.3305,-4.3305,-4.3305,-4.3305,-4.3305,-4.3305,-4.3305,-4.3305,-4.3305,-4.3305,-4.3305,-4.3305,-4.3305,-4.3305,-4.3305,-4.3305,-4.3305,-4.3305,-4.3305,-4.3305,-4.3305,-4.3305,-4.3305,-4.3305,-4.3305,-4.3305,-4.3305,-4.3305,-4.3305,-4.3305,-4.3305,-4.3305,-4.3305,-4.3305,-4.3215,-4.294,-4.2425,-4.2321,-4.2006,-4.1452,-4.1422,-4.1115,-4.0561,-4.0241,-3.9165,-3.7158,-3.5579,-3.3704,0.0,-3.0139,0.0,0.0,0.0,0.0,0.0,0.0,0.0,0.0,-2.939,-2.9176,-2.9201,-2.9201,-2.9453,-2.9942,-2.9541,-2.9641,-3.0595,-3.0771,-3.0188,-2.8666,-2.8731,-2.8092,-2.5873,-2.5815,-2.5917,-2.5713,-2.5732,-2.582,-2.582,-2.6182,-2.626,-2.5966,-2.6201,-2.6435,-2.6465,-2.6826,-2.7178,-2.7571,-2.7748,-2.7881,-2.8203,-2.8281,-2.8301,-2.8301,-2.8301,-2.8301,-2.8301,-2.8301,-2.8301,-2.8301,-2.8301,-2.8301,-2.8301,-2.8301,-2.8301,-2.8301,-2.8301,-2.8301,-4.5289,-4.5289,-4.517,-4.511,-4.511,-4.4975,-4.4317,-4.3305,-4.3305,-4.3305,-4.3305,-4.3305,-4.3305,-4.3305,-4.3305,-4.3305,-4.3305,-4.3305,-4.3305,-4.3305,-4.3305,-4.3305,-4.3305,-4.3305,-4.3305,-4.3305,-4.3305,-4.3305,-4.3305,-4.3305,-4.3305,-4.3305,-4.3305,-4.3305,-4.3305,0.0,0.0,0.0,-4.3305,-4.3305,-4.3275,-4.2806,-4.2515,-4.2396,-4.1871,0.0,-4.1437,-4.1422,-4.1362,-4.119,-4.0479,0.0,0.0,0.0,0.0,0.0,0.0,0.0,0.0,0.0,0.0,0.0,-3.0156,-2.993,-2.9817,-3.0093,-3.047,-3.0884,-3.0922,-3.0959,-3.1072,-3.0997,-3.1022,-3.1223,-3.165,-3.173,-3.141,-3.0977,-3.0121,-2.8769,-2.7808,-2.6849,-2.5908,-2.6035,-2.626,-2.6289,-2.6631,-2.6846,-2.6787,-2.6836,-2.6894,-2.6934,-2.7285,-2.7559,-2.7699,-2.8002,-2.8164,-2.8281,-2.8301,-2.8301,-2.8301,-2.8301,-2.8301,-2.8301,-2.8301,-2.8301,-2.8301,-2.8301,-2.8301,-2.8301,-2.8301,-2.8301,-2.8301,-2.8301,-2.8301,-4.6277,0.0,-4.5933,-4.5813,0.0,-4.5439,-4.4915,-4.4272,-4.3917,-4.3589,-4.3305,-4.3305,-4.3305,-4.3305,-4.3305,-4.3305,-4.3305,-4.3305,-4.3305,-4.3305,-4.3305,-4.3305,-4.3305,-4.3305,-4.3305,-4.3305,-4.3305,-4.3305,-4.3305,-4.3305,-4.3305,-4.3305,-4.3305,-4.3305,-4.3305,-4.3305,-4.3305,-4.3305,-4.3305,-4.3305,-4.3275,-4.3015,-4.2686,-4.241,0.0,0.0,0.0,0.0,0.0,0.0,0.0,0.0,0.0,0.0,0.0,-3.308,-3.2152,-3.1476,-3.1009,-3.0984,-3.1223,-3.1788,-3.1838,-3.1474,-3.0645,-3.1085,-3.1411,-3.1386,-3.1386,-3.1499,-3.1763,-3.18,-3.1913,-3.219,-3.2466,-3.2416,-3.1792,-3.142,-3.0485,-2.8852,-2.8157,-2.7407,-2.6192,-2.6435,-2.668,-2.6719,-2.707,-2.7334,-2.7334,-2.7344,-2.7393,-2.7607,-2.7803,-2.7969,-2.7988,-2.8125,-2.8301,-2.8291,-2.8301,-2.8301,-2.8301,-2.8301,-2.8301,-2.8301,-2.8301,-2.8301,-2.8301,-2.8301,-2.8301,-2.8301,-2.8301,-2.8301,-2.8301,-2.8301,-2.8301,-4.7309,-4.7264,-4.6726,-4.6501,-4.6456,-4.5888,-4.5574,-4.5424,0.0,0.0,0.0,-4.3633,-4.3633,-4.3633,-4.3633,-4.3633,-4.3673,-4.3648,-4.3648,-4.3633,-4.3633,-4.3648,-4.3633,-4.3633,-4.3648,-4.3633,-4.3633,-4.3633,-4.3633,-4.3633,-4.3574,-4.3484,-4.3469,-4.3424,-4.3305,-4.3305,-4.3305,-4.3305,-4.3305,-4.3305,-4.3305,-4.3185,-4.291,-4.2396,-4.2276,-4.1976,-4.1452,-4.1422,-4.1422,-4.1384,-4.1194,-4.0383,-3.8847,-3.7812,-3.6331,-3.4217,-3.3221,-3.2697,-3.2503,-3.2416,-3.2579,-3.3086,-3.3124,-3.2679,-3.175,-3.2102,-3.2177,-3.1725,-3.1687,-3.1876,-3.2328,-3.2365,-3.2554,-3.3074,-3.3124,-3.2692,-3.1854,-3.1455,-3.0615,-2.8625,-2.8369,-2.786,-2.6704,-2.6865,-2.7129,-2.7178,-2.751,-2.7836,-2.7783,-2.7826,-2.7881,-2.8154,-2.8213,-2.8271,-2.8291,-2.8281,-2.8301,-2.8301,-2.8301,-2.8301,-2.8301,-2.8301,-2.8301,-2.8301,-2.8301,-2.8301,-2.8301,-2.8301,-2.8301,-2.8301,-2.8301,-2.8301,-2.8301,-2.8301,-2.8301,-4.7324,-4.7294,-4.7204,-4.716,-4.716,-4.707,-4.6711,-4.6142,-4.5454,-4.5095,-4.5005,-4.502,-4.502,-4.502,-4.502,-4.502,-4.502,-4.502,-4.502,0.0,-4.502,-4.502,-4.502,-4.502,-4.5005,-4.502,-4.5005,-4.502,-4.502,-4.499,-4.4751,-4.4201,-4.4182,-4.3858,-4.3334,-4.3305,-4.3305,-4.3305,-4.3305,-4.3305,-4.329,-4.2791,-4.25,-4.2381,-4.1871,-4.1489,-4.1437,-4.1437,-4.1422,-4.1384,-4.1194,-4.0415,-3.8977,-3.8171,-3.6976,-3.5363,-3.428,-3.3658,-3.3658,-3.3232,-3.2993,-3.3111,-3.3124,-3.3006,-3.2867,-3.2918,-3.2918,-3.2842,-3.2822,-3.2867,-3.2955,-3.2955,-3.2993,-3.3124,-3.3136,-3.3158,-3.3388,-3.2613,-3.1643,-3.0513,-2.9483,-2.8423,-2.735,-2.7356,-2.762,-2.7637,-2.7891,-2.8184,-2.8164,-2.8213,-2.8223,-2.8281,-2.8301,-2.8301,-2.8301,-2.8301,-2.8301,-2.8301,-2.8301,-2.8301,-2.8301,-2.8301,-2.8301,-2.8301,-2.8301,-2.8301,-2.8301,-2.8301,-2.8301,-2.8301,-2.8301,-2.8301,-2.8301,-2.8301,-2.8301,-4.8162,-4.7848,-4.7848,-4.7638,-4.7309,-4.7309,-4.7145,-4.6845,-4.6531,-4.5963,-4.5304,-4.5289,-4.5289,-4.5289,-4.5289,-4.5289,-4.5289,-4.5289,-4.5289,-4.5289,-4.5289,-4.5289,-4.5289,-4.5289,-4.5289,-4.5289,-4.5289,-4.5289,-4.5289,-4.5289,-4.514,-4.4855,-4.484,-4.4691,-4.4421,-4.4407,-4.4227,-4.3828,-4.3469,-4.3305,-4.329,-4.3045,-4.2895,-4.288,-4.2581,-4.2447,-4.2432,-4.2447,-4.2447,-4.2447,-4.2369,-4.1693,-4.0448,-3.9464,-3.8182,-3.6606,-3.5415,-3.4663,-3.4374,-3.411,-3.3972,-3.3972,-3.396,-3.3972,-3.3972,-3.342,-3.3124,-3.3124,-3.3124,-3.3124,-3.3136,-3.3345,-3.352,-3.352,-3.3771,-3.4073,-3.4242,-3.3921,-3.3119,-3.2065,-3.1013,-2.9849,-2.8645,-2.8185,-2.8051,-2.8027,-2.8193,-2.8301,-2.8301,-2.8301,-2.8301,-2.8301,-2.8301,-2.8301,-2.8301,-2.8301,-2.8301,-2.8301,-2.8301,-2.8301,-2.8301,-2.8301,-2.8301,-2.8301,-2.8301,-2.8301,-2.8301,-2.8301,-2.8301,-2.8301,-2.8301,-2.8301,-2.8301,-2.8301,-2.8301,-4.903,-4.8506,-4.8521,-4.8207,-4.7758,-4.7743,-4.7668,-4.7534,-4.7519,-4.686,-4.5843,-4.5753,-4.5753,-4.5753,-4.5753,-4.5753,-4.5753,-4.5738,-4.5768,-4.5753,-4.5738,-4.5738,-4.5738,-4.5738,-4.5753,-4.5753,-4.5753,-4.5753,-4.5753,-4.5753,-4.5663,-4.5529,-4.5379,-4.5289,-4.5289,-4.5289,-4.505,-4.4526,-4.4018,-4.3629,-4.3305,-4.3305,-4.3305,-4.3305,-4.329,-4.3305,-4.3305,-4.3305,-4.3305,-4.3305,-4.3305,-4.2684,-4.1295,-4.0404,-3.9067,-3.7277,-3.6073,-3.5257,-3.4743,-3.468,-3.468,-3.468,-3.468,-3.468,-3.4605,-3.396,-3.3445,-3.3445,-3.3508,-3.3483,-3.3545,-3.3822,-3.4085,-3.411,-3.4449,-3.4738,-3.4876,-3.4856,-3.4449,-3.3373,-3.2593,-3.1683,-3.0507,-2.9403,-2.8668,-2.8368,-2.8301,-2.8301,-2.8301,-2.8301,-2.8301,-2.8301,-2.8301,-2.8301,-2.8301,-2.8301,-2.8301,-2.8301,-2.8301,-2.8301,-2.8301,-2.8301,-2.8301,-2.8301,-2.8301,-2.8301,-2.8301,-2.8301,-2.8301,-2.8301,-2.8301,-2.8301,-2.8301,-2.8301,-2.8301,-4.9284,-4.9224,-4.9209,-4.9194,-4.909,-4.909,-4.8716,-4.8222,-4.8192,-4.7803,-4.716,-4.7115,-4.7085,-4.7115,-4.707,-4.704,-4.707,-4.7115,-4.7085,-4.707,-4.7115,-4.7115,-4.704,-4.7085,-4.7115,-4.7085,-4.7055,-4.6995,-4.701,-4.7055,-4.6815,-4.6217,-4.5618,-4.5334,-4.5319,-4.5319,-4.5289,-4.52,-4.514,-4.4541,-4.3379,-4.3305,-4.3305,-4.3305,-4.3305,-4.3305,-4.3305,-4.3305,-4.3305,-4.3305,-4.3305,-4.2345,-4.0418,-3.9929,-3.8903,-3.6701,-3.5911,-3.5257,-3.4768,-3.468,-3.4731,-3.468,-3.4731,-3.4743,-3.4731,-3.4663,-3.4562,-3.4562,-3.4562,-3.4442,-3.4575,-3.4555,-3.4605,-3.465,-3.4751,-3.4856,-3.532,-3.542,-3.513,-3.4341,-3.4037,-3.3592,-3.218,-3.0833,-2.9608,-2.8644,-2.8344,-2.8301,-2.8301,-2.8301,-2.8301,-2.8301,-2.8301,-2.8301,-2.8301,-2.8301,-2.8301,-2.8301,-2.8301,-2.8301,-2.8301,-2.8301,-2.8301,-2.8301,-2.8301,-2.8301,-2.8301,-2.8301,-2.8301,-2.8301,-2.8301,-2.8301,-2.8301,-2.8301,-2.8301,-5.0182,-4.9838,-4.9838,-4.9613,-4.9329,-4.9299,-4.9164,-4.8925,-4.891,-4.8745,-4.8431,-4.8057,-4.7668,-4.7324,-4.7309,-4.7309,-4.7309,-4.7309,-4.7309,-4.7309,-4.7309,-4.7309,-4.7309,-4.7309,-4.7309,-4.7309,-4.7309,-4.7309,-4.7309,-4.7309,-4.716,-4.692,-4.6606,-4.6486,-4.6486,-4.6486,-4.6307,-4.5903,-4.5903,-4.5439,-4.4571,-4.4107,-4.3678,-4.3334,-4.3305,-4.3305,-4.3305,-4.3305,-4.3305,-4.3305,-4.3305,-4.2603,-4.1,-4.0289,-3.9152,-3.7527,-3.6553,-3.5931,-3.5717,-3.5692,-3.5692,-3.5692,-3.5692,-3.5692,-3.5692,-3.5692,-3.5692,-3.5617,-3.5115,-3.468,-3.4718,-3.4969,-3.5169,-3.5207,-3.5491,-3.578,-3.5994,-3.6031,-3.5884,-3.5547,-3.4884,-3.4227,-3.3353,-3.1633,-3.0214,-2.9408,-2.891,-2.8398,-2.8291,-2.8301,-2.8301,-2.8301,-2.8301,-2.8301,-2.8301,-2.8301,-2.8301,-2.8301,-2.8301,-2.8301,-2.8301,-2.8301,-2.8301,-2.8301,-2.8301,-2.8301,-2.8301,-2.8301,-2.8301,-2.8301,-2.8301,-2.8301,-2.8301,-2.8301,-2.8301,-5.0945,-5.0495,-5.0465,-5.0242,-4.9808,-4.9793,-4.9688,-4.9538,-4.9569,-4.9449,-4.9269,-4.879,-4.8312,-4.7833,-4.7474,-4.7309,-4.7309,-4.7309,-4.7309,-4.7309,-4.7309,-4.7309,-4.7309,-4.7309,-4.7309,-4.7309,-4.7309,-4.7309,-4.7309,-4.7309,-4.7309,-4.7309,-4.7309,-4.7309,-4.7309,-4.7309,-4.7085,-4.6651,-4.6591,-4.6262,-4.5603,-4.511,-4.4426,-4.3648,-4.3379,-4.3305,-4.3305,-4.3305,-4.3305,-4.3305,-4.3305,-4.2644,-4.1211,-4.0318,-3.9227,-3.7769,-3.6896,-3.6417,-3.6417,-3.6417,-3.6417,-3.6417,-3.6417,-3.6417,-3.6417,-3.6417,-3.6417,-3.6329,-3.5642,-3.5203,-3.5228,-3.5542,-3.5742,-3.5746,-3.6157,-3.6405,-3.6405,-3.6417,-3.6392,-3.631,-3.5571,-3.4787,-3.4227,-3.2705,-3.1338,-3.0328,-2.946,-2.8591,-2.8398,-2.8301,-2.8301,-2.8301,-2.8301,-2.8301,-2.8301,-2.8301,-2.8301,-2.8301,-2.8301,-2.8301,-2.8301,-2.8301,-2.8301,-2.8301,-2.8301,-2.8301,-2.8301,-2.8301,-2.8301,-2.8301,-2.8301,-2.8301,-2.8301,-2.8301,-2.8301,-5.1152,-5.1169,-5.1169,-5.1109,-5.1109,-5.1079,-5.0704,-5.0151,-5.0151,-4.9868,-4.9449,-4.9254,-4.9239,-4.9105,-4.7952,-4.7339,-4.7324,-4.7354,-4.7339,-4.7309,-4.7309,-4.7309,-4.7309,-4.7309,-4.7309,-4.7309,-4.7309,-4.7309,-4.7309,-4.7309,-4.7309,-4.7309,-4.7309,-4.7309,-4.7309,-4.7309,-4.7294,-4.7204,-4.7204,-4.692,-4.6324,-4.619,-4.5544,-4.4407,-4.3633,-4.3349,-4.3319,-4.3305,-4.3305,-4.3305,-4.3305,-4.2345,-4.0318,-3.9942,-3.8841,-3.6849,-3.6452,-3.6417,-3.6417,-3.6417,-3.6417,-3.6417,-3.6417,-3.6417,-3.6417,-3.6417,-3.6417,-3.6405,-3.6292,-3.6229,-3.6216,-3.6216,-3.6304,-3.6317,-3.6367,-3.6417,-3.6417,-3.6417,-3.6417,-3.6417,-3.6263,-3.5715,-3.4629,-3.4325,-3.2855,-3.1235,-3.0317,-2.9765,-2.8751,-2.8398,-2.8301,-2.8301,-2.8301,-2.8301,-2.8301,-2.8301,-2.8301,-2.8301,-2.8301,-2.8301,-2.8301,-2.8301,-2.8301,-2.8301,-2.8301,-2.8301,-2.8301,-2.8301,-2.8301,-2.8301,-2.8301,-2.8301,-2.8301,-2.8301,-2.8301,-5.1229,-5.1229,-5.1229,-5.1229,-5.1229,-5.1229,-5.1079,-5.0838,-5.0808,-5.0735,-5.0466,-5.0077,-4.9883,-4.9823,-4.897,-4.8327,-4.7967,-4.7938,-4.7713,-4.7354,-4.7309,-4.7309,-4.7309,-4.7309,-4.7309,-4.7309,-4.7309,-4.7309,-4.7309,-4.7309,-4.7309,-4.7309,-4.7309,-4.7309,-4.7309,-4.7309,-4.7309,-4.7309,-4.7309,-4.7189,-4.6905,-4.6488,-4.6067,-4.5547,-4.4526,-4.3958,-4.3917,-4.3529,-4.3305,-4.3305,-4.3305,-4.2603,-4.1085,-3.9566,-3.8075,-3.6628,-3.6417,-3.6417,-3.6417,-3.6417,-3.6417,-3.6417,-3.6417,-3.6417,-3.6417,-3.6417,-3.6417,-3.6417,-3.6417,-3.6417,-3.6417,-3.6417,-3.6417,-3.6417,-3.6417,-3.6417,-3.6417,-3.6417,-3.6417,-3.6417,-3.6417,-3.6156,-3.5667,-3.4921,-3.403,-3.3017,-3.1429,-3.0214,-2.9608,-2.89,-2.8301,-2.8301,-2.8301,-2.8301,-2.8301,-2.8301,-2.8301,-2.8301,-2.8301,-2.8301,-2.8301,-2.8301,-2.8301,-2.8301,-2.8301,-2.8301,-2.8301,-2.8301,-2.8301,-2.8301,-2.8301,-2.8301,-2.8301,-2.8301,-2.8301,-5.1229,-5.1229,-5.1229,-5.1229,-5.1229,-5.1229,-5.1229,-5.1229,-5.1229,-5.1229,-5.1124,-5.0735,-5.0495,-5.045,-5.0107,-4.9538,-4.8925,-4.8716,-4.8401,-4.7952,-4.7728,-4.7623,-4.7578,-4.7399,-4.7309,-4.7309,-4.7309,-4.7309,-4.7309,-4.7309,-4.7309,-4.7309,-4.7309,-4.7309,-4.7309,-4.7309,-4.7309,-4.7309,-4.7309,-4.7309,-4.7249,-4.6875,-4.6608,-4.6486,-4.5544,-4.4695,-4.4347,-4.3843,-4.3499,-4.3334,-4.3305,-4.2765,-4.1545,-3.9363,-3.7756,-3.7023,-3.6593,-3.6417,-3.6417,-3.6417,-3.6417,-3.6417,-3.6417,-3.6417,-3.6417,-3.6417,-3.6417,-3.6417,-3.6417,-3.6417,-3.6417,-3.6417,-3.6417,-3.6417,-3.6417,-3.6417,-3.6417,-3.6417,-3.6417,-3.6417,-3.6417,-3.6417,-3.631,-3.5559,-3.4921,-3.4495,-3.2353,-3.0979,-3.0266,-2.9207,-2.8301,-2.8301,-2.8301,-2.8301,-2.8301,-2.8301,-2.8301,-2.8301,-2.8301,-2.8301,-2.8301,-2.8301,-2.8301,-2.8301,-2.8301,-2.8301,-2.8301,-2.8301,-2.8301,-2.8301,-2.8301,-2.8301,-2.8301,-2.8301,-2.8301,-5.1229,-5.1229,-5.1229,-5.1229,-5.1229,-5.1229,-5.1229,-5.1229,-5.1229,-5.1229,-5.1199,-5.1169,-5.1109,-5.1154,-5.102,-5.0719,-5.0137,-4.9613,-4.9299,-4.909,-4.8595,-4.8297,-4.8267,-4.7698,-4.7354,-4.7309,-4.7309,-4.7309,-4.7309,-4.7309,-4.7309,-4.7309,-4.7309,-4.7309,-4.7309,-4.7309,-4.7309,-4.7309,-4.7309,-4.7309,-4.7309,-4.7249,-4.7204,-4.7174,-4.6591,-4.5651,-4.4496,-4.4317,-4.3947,-4.3424,-4.3319,-4.278,-4.142,-3.9552,-3.8153,-3.7769,-3.6977,-3.6499,-3.6417,-3.6417,-3.6417,-3.6417,-3.6417,-3.6417,-3.6417,-3.6417,-3.6417,-3.6417,-3.6417,-3.6417,-3.6417,-3.6417,-3.6417,-3.6417,-3.6417,-3.6417,-3.6417,-3.6417,-3.6417,-3.6417,-3.6417,-3.6417,-3.6417,-3.6263,-3.5763,-3.4666,-3.3304,-3.1887,-3.0773,-2.9513,-2.8548,-2.8301,-2.8301,-2.8301,-2.8301,-2.8301,-2.8301,-2.8301,-2.8301,-2.8301,-2.8301,-2.8301,-2.8301,-2.8301,-2.8301,-2.8301,-2.8301,-2.8301,-2.8301,-2.8301,-2.8301,-2.8301,-2.8301,-2.8301,-2.8301,-5.1229,-5.1229,-5.1229,-5.1229,-5.1229,-5.1229,-5.1229,-5.1229,-5.1229,-5.1229,-5.1229,-5.1229,-5.1229,-5.1229,-5.1229,-5.1109,-5.09,-5.0661,-5.0137,-4.9404,-4.9105,-4.897,-4.8835,-4.8282,-4.7743,-4.7369,-4.7309,-4.7309,-4.7309,-4.7309,-4.7309,-4.7309,-4.7309,-4.7309,-4.7309,-4.7309,-4.7309,-4.7309,-4.7309,-4.7309,-4.7309,-4.7309,-4.7309,-4.7294,-4.71,-4.6561,-4.5696,-4.4825,-4.4242,-4.3962,-4.3529,-4.2426,-4.0831,-4.0518,-3.9376,-3.7322,-3.7415,-3.7163,-3.6499,-3.6417,-3.6417,-3.6417,-3.6417,-3.6417,-3.6417,-3.6417,-3.6417,-3.6417,-3.6417,-3.6417,-3.6417,-3.6417,-3.6417,-3.6417,-3.6417,-3.6417,-3.6417,-3.6417,-3.6417,-3.6417,-3.6417,-3.6417,-3.6417,-3.6417,-3.6216,-3.5715,-3.4508,-3.3166,-3.1887,-3.0514,-2.925,-2.8548,-2.8451,-2.8344,-2.8301,-2.8301,-2.8301,-2.8301,-2.8301,-2.8301,-2.8301,-2.8301,-2.8301,-2.8301,-2.8301,-2.8301,-2.8301,-2.8301,-2.8301,-2.8301,-2.8301,-2.8301,-2.8301,-2.8301,-2.8301,-5.1588,-5.1558,-5.1319,-5.1229,-5.1229,-5.1229,-5.1229,-5.1229,-5.1229,-5.1229,-5.1229,-5.1229,-5.1229,-5.1229,-5.1229,-5.1229,-5.1229,-5.1229,-5.0765,-5.0017,-4.9703,-4.9628,-4.9538,-4.8955,-4.8297,-4.7788,-4.7668,-4.7534,-4.7309,-4.7309,-4.7309,-4.7309,-4.7309,-4.7309,-4.7309,-4.7309,-4.7309,-4.7309,-4.7309,-4.7309,-4.7309,-4.7309,-4.7309,-4.7309,-4.7309,-4.7085,-4.6636,-4.5618,-4.4825,-4.4276,-4.3648,-4.2415,-4.0788,-4.1112,-4.0247,-3.7939,-3.7553,-3.7599,-3.6593,-3.6417,-3.6417,-3.6417,-3.6417,-3.6417,-3.6417,-3.6417,-3.6417,-3.6417,-3.6417,-3.6417,-3.6417,-3.6417,-3.6417,-3.6417,-3.6417,-3.6417,-3.6417,-3.6417,-3.6417,-3.6417,-3.6417,-3.6417,-3.6417,-3.6417,-3.6417,-3.6216,-3.5223,-3.4239,-3.3055,-3.1887,-3.0577,-2.9513,-2.926,-2.8953,-2.8398,-2.8301,-2.8301,-2.8301,-2.8301,-2.8301,-2.8301,-2.8301,-2.8301,-2.8301,-2.8301,-2.8301,-2.8301,-2.8301,-2.8301,-2.8301,-2.8301,-2.8301,-2.8301,-2.8301,-2.8301,-5.2232,-5.2112,-5.1543,-5.1274,-5.1229,-5.1229,-5.1229,-5.1229,-5.1229,-5.1229,-5.1229,-5.1229,-5.1229,-5.1229,-5.1229,-5.1229,-5.1229,-5.1229,-5.1184,-5.093,-5.051,-5.0226,-5.0047,-4.9568,-4.891,-4.8297,-4.8207,-4.7908,-4.7339,-4.7309,-4.7309,-4.7309,-4.7309,-4.7309,-4.7309,-4.7309,-4.7309,-4.7309,-4.7309,-4.7309,-4.7309,-4.7309,-4.7309,-4.7309,-4.7309,-4.7279,-4.7115,-4.6486,-4.5574,-4.4451,-4.3723,-4.2843,-4.1823,-4.1587,-4.0504,-3.8198,-3.8062,-3.7494,-3.6722,-3.6417,-3.6417,-3.6417,-3.6417,-3.6417,-3.6417,-3.6417,-3.6417,-3.6417,-3.6417,-3.6417,-3.6417,-3.6417,-3.6417,-3.6417,-3.6417,-3.6417,-3.6417,-3.6417,-3.6417,-3.6417,-3.6417,-3.6417,-3.6417,-3.6417,-3.6417,-3.6216,-3.5379,-3.4775,-3.403,-3.3005,-3.1876,-3.1122,-3.0473,-2.9807,-2.9303,-2.9059,-2.8953,-2.8301,-2.8291,-2.8344,-2.8291,-2.8301,-2.8301,-2.8301,-2.8301,-2.8301,-2.8301,-2.8301,-2.8301,-2.8301,-2.8301,-2.8301,-2.8301,-2.8301,-2.8301,-5.2636,-5.2187,-5.2007,-5.1663,-5.1259,-5.1229,-5.1229,-5.1229,-5.1229,-5.1229,-5.1229,-5.1229,-5.1229,-5.1229,-5.1229,-5.1229,-5.1229,-5.1229,-5.1229,-5.1199,-5.1065,-5.0629,-5.027,-5.0031,-4.9389,-4.8491,-4.8356,-4.7938,-4.7354,-4.7324,-4.7309,-4.7309,-4.7309,-4.7309,-4.7309,-4.7309,-4.7309,-4.7309,-4.7309,-4.7309,-4.7309,-4.7309,-4.7309,-4.7309,-4.7309,-4.7309,-4.7249,-4.6666,-4.5708,-4.4451,-4.4182,-4.3294,-4.1825,-4.1587,-4.0547,-3.859,-3.8062,-3.7573,-3.6662,-3.6417,-3.6417,-3.6417,-3.6417,-3.6417,-3.6417,-3.6417,-3.6417,-3.6417,-3.6417,-3.6417,-3.6417,-3.6417,-3.6417,-3.6417,-3.6417,-3.6417,-3.6417,-3.6417,-3.6417,-3.6417,-3.6417,-3.6417,-3.6417,-3.6417,-3.6417,-3.631,-3.6013,-3.5475,-3.4775,-3.4325,-3.3342,-3.2381,-3.1633,-3.0916,-3.0369,-3.0016,-2.946,-2.8495,-2.8344,-2.8398,-2.8344,-2.8301,-2.8301,-2.8301,-2.8301,-2.8301,-2.8301,-2.8301,-2.8301,-2.8301,-2.8301,-2.8301,-2.8301,-2.8301,-2.8301,-5.3399,-5.298,-5.2441,-5.1977,-5.1603,-5.1334,-5.1229,-5.1229,-5.1229,-5.1229,-5.1229,-5.1229,-5.1229,-5.1229,-5.1229,-5.1229,-5.1229,-5.1229,-5.1229,-5.1229,-5.1199,-5.1005,-5.0674,-5.0584,-5.0061,-4.9179,-4.882,-4.8341,-4.7773,-4.7459,-4.7324,-4.7309,-4.7309,-4.7309,-4.7309,-4.7309,-4.7309,-4.7309,-4.7309,-4.7309,-4.7309,-4.7309,-4.7309,-4.7309,-4.7309,-4.7309,-4.7249,-4.6935,-4.6112,-4.499,-4.4411,-4.3486,-4.1854,-4.1587,-4.0504,-3.832,-3.8107,-3.7586,-3.6675,-3.6417,-3.6417,-3.6417,-3.6417,-3.6417,-3.6417,-3.6417,-3.6417,-3.6417,-3.6417,-3.6417,-3.6417,-3.6417,-3.6417,-3.6417,-3.6417,-3.6417,-3.6417,-3.6417,-3.6417,-3.6417,-3.6417,-3.6417,-3.6417,-3.6417,-3.6417,-3.6417,-3.637,-3.5918,-3.5463,-3.521,-3.4812,-3.3749,-3.2994,-3.2431,-3.1673,-3.1276,-3.0979,-2.9964,-2.8953,-2.89,-2.8548,-2.8451,-2.8301,-2.8301,-2.8301,-2.8301,-2.8301,-2.8301,-2.8301,-2.8301,-2.8301,-2.8301,-2.8301,-2.8301,-2.8301,-5.4266,-5.4087,-5.283,-5.2261,-5.2082,-5.1498,-5.1229,-5.1229,-5.1229,-5.1229,-5.1229,-5.1229,-5.1229,-5.1229,-5.1229,-5.1229,-5.1229,-5.1229,-5.1229,-5.1229,-5.1229,-5.1154,-5.1124,-5.1094,-5.0616,-4.9883,-4.9479,-4.879,-4.8057,-4.7489,-4.7339,-4.7309,-4.7309,-4.7309,-4.7309,-4.7309,-4.7309,-4.7309,-4.7309,-4.7309,-4.7309,-4.7309,-4.7309,-4.7309,-4.7309,-4.7309,-4.7309,-4.7189,-4.6621,-4.5319,-4.4721,-4.363,-4.2107,-4.1753,-4.059,-3.8801,-3.8198,-3.7586,-3.6628,-3.6417,-3.6417,-3.6417,-3.6417,-3.6417,-3.6417,-3.6417,-3.6417,-3.6417,-3.6417,-3.6417,-3.6417,-3.6417,-3.6417,-3.6417,-3.6417,-3.6417,-3.6417,-3.6417,-3.6417,-3.6417,-3.6417,-3.6417,-3.6417,-3.6417,-3.6417,-3.6417,-3.6417,-3.6216,-3.6013,-3.5918,-3.5523,-3.4872,-3.4362,-3.4007,-3.3243,-3.2532,-3.223,-3.1684,-3.0317,-2.9713,-2.9006,-2.8698,-2.8451,-2.8301,-2.8301,-2.8301,-2.8301,-2.8301,-2.8301,-2.8301,-2.8301,-2.8301,-2.8301,-2.8301,-2.8301,-5.4685,-5.4132,-5.3324,-5.268,-5.2142,-5.1513,-5.1229,-5.1229,-5.1229,-5.1229,-5.1229,-5.1229,-5.1229,-5.1229,-5.1229,-5.1229,-5.1229,-5.1229,-5.1229,-5.1229,-5.1229,-5.1229,-5.1214,-5.1199,-5.0571,-4.9763,-4.9419,-4.87,-4.7773,-4.7474,-4.7309,-4.7309,-4.7309,-4.7309,-4.7309,-4.7309,-4.7309,-4.7309,-4.7309,-4.7309,-4.7309,-4.7309,-4.7309,-4.7309,-4.7309,-4.7309,-4.7309,-4.7309,-4.6651,-4.5633,-4.5053,-4.4333,-4.3016,-4.2029,-4.0916,-3.961,-3.8469,-3.7586,-3.6662,-3.6417,-3.6417,-3.6417,-3.6417,-3.6417,-3.6417,-3.6417,-3.6417,-3.6417,-3.6417,-3.6417,-3.6417,-3.6417,-3.6417,-3.6417,-3.6417,-3.6417,-3.6417,-3.6417,-3.6417,-3.6417,-3.6417,-3.6417,-3.6417,-3.6417,-3.6417,-3.6417,-3.6417,-3.6417,-3.6417,-3.6417,-3.6073,-3.5523,-3.5415,-3.5054,-3.4508,-3.3798,-3.3441,-3.3044,-3.1836,-3.0721,-3.0016,-2.9059,-2.8751,-2.8495,-2.8301,-2.8301,-2.8301,-2.8301,-2.8301,-2.8301,-2.8301,-2.8301,-2.8301,-2.8301,-2.8301,-5.4805,-5.4147,-5.3473,-5.28,-5.2157,-5.1513,-5.1229,-5.1229,-5.1229,-5.1229,-5.1229,-5.1229,-5.1229,-5.1229,-5.1229,-5.1229,-5.1229,-5.1229,-5.1229,-5.1229,-5.1229,-5.1229,-5.1109,-5.0838,-5.0316,-4.9688,-4.9434,-4.873,-4.7952,-4.7459,-4.7309,-4.7309,-4.7309,-4.7309,-4.7309,-4.7309,-4.7309,-4.7309,-4.7309,-4.7309,-4.7309,-4.7309,-4.7309,-4.7309,-4.7309,-4.7309,-4.7309,-4.7309,-4.6561,-4.5663,-4.5259,-4.4691,-4.3398,-4.2208,-4.1085,-3.9972,-3.8783,-3.7586,-3.6709,-3.6417,-3.6417,-3.6417,-3.6417,-3.6417,-3.6417,-3.6417,-3.6417,-3.6417,-3.6417,-3.6417,-3.6417,-3.6417,-3.6417,-3.6417,-3.6417,-3.6417,-3.6417,-3.6417,-3.6417,-3.6417,-3.6417,-3.6417,-3.6417,-3.6417,-3.6417,-3.6417,-3.6417,-3.6417,-3.6417,-3.6417,-3.6417,-3.6168,-3.6263,-3.6061,-3.5619,-3.5114,-3.4654,-3.4117,-3.3266,-3.2241,-3.1429,-3.0266,-2.9112,-2.8804,-2.8495,-2.8291,-2.8301,-2.8301,-2.8301,-2.8301,-2.8301,-2.8301,-2.8301,-2.8301,-2.8301,-5.4715,-5.4132,-5.3354,-5.271,-5.2142,-5.1513,-5.1229,-5.1229,-5.1229,-5.1229,-5.1229,-5.1229,-5.1229,-5.1229,-5.1229,-5.1229,-5.1229,-5.1229,-5.1229,-5.1229,-5.1229,-5.1109,-5.0868,-5.048,-5.0031,-4.9882,-4.9314,-4.8656,-4.8042,-4.7623,-4.7324,-4.7309,-4.7309,-4.7309,-4.7309,-4.7309,-4.7309,-4.7309,-4.7309,-4.7309,-4.7309,-4.7309,-4.7309,-4.7309,-4.7309,-4.7309,-4.7309,-4.7219,-4.6681,-4.5424,-4.5289,-4.4571,-4.3407,-4.2249,-4.1085,-3.9942,-3.8738,-3.7586,-3.6675,-3.6417,-3.6417,-3.6417,-3.6417,-3.6417,-3.6417,-3.6417,-3.6417,-3.6417,-3.6417,-3.6417,-3.6417,-3.6417,-3.6417,-3.6417,-3.6417,-3.6417,-3.6417,-3.6417,-3.6417,-3.6417,-3.6417,-3.6417,-3.6417,-3.6417,-3.6417,-3.6417,-3.6417,-3.6417,-3.6417,-3.6417,-3.6417,-3.6417,-3.6417,-3.6417,-3.6013,-3.587,-3.5463,-3.5017,-3.4325,-3.3563,-3.2694,-3.1531,-3.0317,-2.9102,-2.8698,-2.8495,-2.8344,-2.8301,-2.8301,-2.8301,-2.8301,-2.8301,-2.8301,-2.8301,-2.8301,-5.4311,-5.4102,-5.2875,-5.2291,-5.2097,-5.1498,-5.1229,-5.1229,-5.1229,-5.1229,-5.1229,-5.1229,-5.1229,-5.1229,-5.1229,-5.1229,-5.1229,-5.1229,-5.1229,-5.1214,-5.1154,-5.0898,-5.045,-5.0076,-4.9568,-4.882,-4.8446,-4.8117,-4.7668,-4.7354,-4.7309,-4.7309,-4.7309,-4.7309,-4.7309,-4.7309,-4.7309,-4.7309,-4.7309,-4.7309,-4.7309,-4.7309,-4.7309,-4.7309,-4.7309,-4.7309,-4.7294,-4.7234,-4.6681,-4.5469,-4.5304,-4.4556,-4.3388,-4.2208,-4.1085,-3.9972,-3.8917,-3.7815,-3.6675,-3.6417,-3.6417,-3.6417,-3.6417,-3.6417,-3.6417,-3.6417,-3.6417,-3.6417,-3.6417,-3.6417,-3.6417,-3.6417,-3.6417,-3.6417,-3.6417,-3.6417,-3.6417,-3.6417,-3.6417,-3.6417,-3.6417,-3.6417,-3.6417,-3.6417,-3.6417,-3.6417,-3.6417,-3.6417,-3.6417,-3.6417,-3.6417,-3.6417,-3.6417,-3.6417,-3.631,-3.6263,-3.6108,-3.5763,-3.5223,-3.4629,-3.3761,-3.2744,-3.1633,-3.0421,-2.9197,-2.8591,-2.8441,-2.8344,-2.8301,-2.8301,-2.8301,-2.8301,-2.8301,-2.8301,-2.8301,-5.3473,-5.3114,-5.2456,-5.2007,-5.1678,-5.1364,-5.1229,-5.1229,-5.1229,-5.1229,-5.1229,-5.1229,-5.1229,-5.1229,-5.1229,-5.1229,-5.1229,-5.1229,-5.1229,-5.1184,-5.0823,-5.0539,-5.0001,-4.9598,-4.894,-4.8327,-4.7967,-4.7668,-4.7339,-4.7309,-4.7309,-4.7309,-4.7309,-4.7309,-4.7309,-4.7309,-4.7309,-4.7309,-4.7309,-4.7309,-4.7309,-4.7309,-4.7309,-4.7309,-4.7294,-4.7309,-4.7234,-4.6905,-4.6337,-4.5439,-4.4975,-4.4272,-4.3293,-4.2249,-4.1112,-4.0073,-3.9329,-3.8166,-3.6815,-3.6417,-3.6417,-3.6417,-3.6417,-3.6417,-3.6417,-3.6417,-3.6417,-3.6417,-3.6417,-3.6417,-3.6417,-3.6417,-3.6417,-3.6417,-3.6417,-3.6417,-3.6417,-3.6417,-3.6417,-3.6417,-3.6417,-3.6417,-3.6417,-3.6417,-3.6417,-3.6417,-3.6417,-3.6417,-3.6417,-3.6417,-3.6417,-3.6417,-3.6417,-3.6417,-3.6417,-3.6417,-3.6417,-3.6216,-3.5966,-3.5427,-3.4921,-3.4056,-3.2883,-3.1622,-3.0463,-2.9565,-2.8441,-2.8301,-2.8301,-2.8301,-2.8301,-2.8301,-2.8301,-2.8301,-2.8301,-5.2665,-5.2187,-5.2067,-5.1708,-5.1274,-5.1229,-5.1229,-5.1229,-5.1229,-5.1229,-5.1229,-5.1229,-5.1229,-5.1229,-5.1229,-5.1229,-5.1229,-5.1229,-5.1139,-5.0823,-5.048,-5.0136,-4.9538,-4.8955,-4.8237,-4.7952,-4.7638,-4.7309,-4.7309,-4.7309,-4.7309,-4.7309,-4.7309,-4.7309,-4.7309,-4.7309,-4.7309,-4.7309,-4.7309,-4.7309,-4.7309,-4.7309,-4.7309,-4.7264,-4.7189,-4.707,-4.698,-4.6426,-4.5798,-4.5125,-4.4586,-4.4018,-4.3304,-4.2467,-4.1435,-4.0461,-4.0073,-3.8707,-3.7474,-3.6803,-3.6803,-3.6452,-3.6417,-3.6417,-3.6417,-3.6417,-3.6417,-3.6417,-3.6417,-3.6417,-3.6417,-3.6417,-3.6417,-3.6417,-3.6417,-3.6417,-3.6417,-3.6417,-3.6417,-3.6417,-3.6417,-3.6417,-3.6417,-3.6417,-3.6417,-3.6417,-3.6417,-3.6417,-3.6417,-3.6417,-3.6417,-3.6417,-3.6417,-3.6417,-3.6417,-3.6417,-3.6417,-3.631,-3.6263,-3.6013,-3.5775,-3.5367,-3.4154,-3.2894,-3.2292,-3.1338,-2.9817,-2.8291,-2.8301,-2.8301,-2.8301,-2.8301,-2.8301,-2.8301,-2.8301,-5.2261,-5.2142,-5.1588,-5.1304,-5.1229,-5.1229,-5.1229,-5.1229,-5.1229,-5.1229,-5.1229,-5.1229,-5.1229,-5.1229,-5.1229,-5.1229,-5.1184,-5.1109,-5.081,-5.0345,-5.0061,-4.9508,-4.8716,-4.8446,-4.7923,-4.7623,-4.7399,-4.7324,-4.7309,-4.7309,-4.7309,-4.7309,-4.7309,-4.7309,-4.7309,-4.7309,-4.7309,-4.7309,-4.7309,-4.7309,-4.7309,-4.7309,-4.7294,-4.7115,-4.68,-4.6471,-4.6367,-4.5783,-4.514,-4.4586,-4.4377,-4.3932,-4.3384,-4.3195,-4.2467,-4.1476,-4.0447,-3.9316,-3.8075,-3.7723,-3.723,-3.6628,-3.6417,-3.6417,-3.6417,-3.6417,-3.6417,-3.6417,-3.6417,-3.6417,-3.6417,-3.6417,-3.6417,-3.6417,-3.6417,-3.6417,-3.6417,-3.6417,-3.6417,-3.6417,-3.6417,-3.6417,-3.6417,-3.6417,-3.6417,-3.6417,-3.6417,-3.6417,-3.6417,-3.6417,-3.6417,-3.6417,-3.6417,-3.6417,-3.6417,-3.6417,-3.6417,-3.6417,-3.6417,-3.6417,-3.6216,-3.587,-3.5379,-3.4313,-3.3712,-3.2202,-2.9922,-2.8698,-2.8451,-2.8301,-2.8301,-2.8301,-2.8301,-2.8301,-2.8301,-5.1648,-5.1618,-5.1334,-5.1229,-5.1229,-5.1229,-5.1229,-5.1229,-5.1229,-5.1229,-5.1229,-5.1229,-5.1229,-5.1199,-5.1229,-5.1005,-5.0689,-5.0614,-5.0301,-4.9673,-4.9329,-4.8835,-4.8356,-4.7923,-4.7504,-4.7429,-4.7309,-4.7309,-4.7309,-4.7309,-4.7309,-4.7309,-4.7309,-4.7309,-4.7309,-4.7309,-4.7309,-4.7309,-4.7309,-4.7309,-4.7309,-4.7279,-4.7115,-4.6756,-4.6456,-4.6112,-4.5663,-4.5095,-4.4661,-4.4242,-4.4018,-4.3604,-4.3364,-4.325,-4.2996,-4.2644,-4.1518,-4.0031,-3.8411,-3.814,-3.7461,-3.6769,-3.6417,-3.6417,-3.6417,-3.6417,-3.6417,-3.6417,-3.6417,-3.6417,-3.6417,-3.6417,-3.6417,-3.6417,-3.6417,-3.6417,-3.6417,-3.6417,-3.6417,-3.6417,-3.6417,-3.6417,-3.6417,-3.6417,-3.6417,-3.6417,-3.6417,-3.6417,-3.6417,-3.6417,-3.6417,-3.6417,-3.6417,-3.6417,-3.6417,-3.6417,-3.6417,-3.6417,-3.6417,-3.6417,-3.6417,-3.6121,-3.5619,-3.5078,-3.4276,-3.2404,-2.9974,-2.926,-2.9207,-2.8751,-2.8301,-2.8301,-2.8301,-2.8301,-2.8301,-5.1229,-5.1229,-5.1229,-5.1229,-5.1229,-5.1229,-5.1229,-5.1229,-5.1229,-5.1229,-5.1229,-5.1214,-5.1154,-5.0943,-5.0885,-5.0586,-5.0017,-5.0002,-4.9598,-4.903,-4.8595,-4.8252,-4.7923,-4.7519,-4.7354,-4.7309,-4.7309,-4.7309,-4.7309,-4.7309,-4.7309,-4.7309,-4.7309,-4.7309,-4.7309,-4.7309,-4.7309,-4.7309,-4.7309,-4.7309,-4.7279,-4.71,-4.677,-4.6339,-4.595,-4.5589,-4.505,-4.4407,-4.4062,-4.3928,-4.3604,-4.3349,-4.3305,-4.3305,-4.3305,-4.29,-4.207,-4.0632,-3.9156,-3.8289,-3.7494,-3.6803,-3.6417,-3.6417,-3.6417,-3.6417,-3.6417,-3.6417,-3.6417,-3.6417,-3.6417,-3.6417,-3.6417,-3.6417,-3.6417,-3.6417,-3.6417,-3.6417,-3.6417,-3.6417,-3.6417,-3.6417,-3.6417,-3.6417,-3.6417,-3.6417,-3.6417,-3.6417,-3.6417,-3.6417,-3.6417,-3.6417,-3.6417,-3.6417,-3.6417,-3.6417,-3.6417,-3.6417,-3.6417,-3.6417,-3.6417,-3.631,-3.6013,-3.5379,-3.4836,-3.3353,-3.1429,-3.0659,-2.9901,-2.8996,-2.8301,-2.8301,-2.8301,-2.8301,-2.8301,-5.1229,-5.1229,-5.1229,-5.1229,-5.1229,-5.1229,-5.1229,-5.1229,-5.1229,-5.1184,-5.1124,-5.1154,-5.0764,-5.0375,-5.0196,-4.9957,-4.9374,-4.9359,-4.891,-4.8536,-4.8252,-4.7908,-4.7608,-4.7399,-4.7309,-4.7309,-4.7309,-4.7309,-4.7309,-4.7309,-4.7309,-4.7309,-4.7309,-4.7309,-4.7309,-4.7309,-4.7309,-4.7279,-4.7219,-4.7189,-4.701,-4.6726,-4.6307,-4.5978,-4.517,-4.4421,-4.4347,-4.3783,-4.3484,-4.3484,-4.3364,-4.3305,-4.3305,-4.3305,-4.3305,-4.2805,-4.2193,-4.0901,-3.9697,-3.8559,-3.754,-3.6803,-3.6417,-3.6417,-3.6417,-3.6417,-3.6417,-3.6417,-3.6417,-3.6417,-3.6417,-3.6417,-3.6417,-3.6417,-3.6417,-3.6417,-3.6417,-3.6417,-3.6417,-3.6417,-3.6417,-3.6417,-3.6417,-3.6417,-3.6417,-3.6417,-3.6417,-3.6417,-3.6417,-3.6417,-3.6417,-3.6417,-3.6417,-3.6417,-3.6417,-3.6417,-3.6417,-3.6417,-3.6417,-3.6417,-3.6417,-3.631,-3.6216,-3.6121,-3.5571,-3.4191,-3.2883,-3.1724,-3.0463,-2.9006,-2.8301,-2.8301,-2.8301,-2.8301,-2.8301,-5.1229,-5.1229,-5.1229,-5.1229,-5.1229,-5.1229,-5.1229,-5.1229,-5.1214,-5.0928,-5.0569,-5.0539,-5.0257,-4.9778,-4.9598,-4.9284,-4.8775,-4.8656,-4.8237,-4.7863,-4.7608,-4.7519,-4.7324,-4.7309,-4.7309,-4.7309,-4.7309,-4.7309,-4.7309,-4.7309,-4.7309,-4.7309,-4.7309,-4.7309,-4.7309,-4.7309,-4.7294,-4.716,-4.692,-4.6711,-4.6546,-4.6037,-4.5499,-4.4964,-4.4796,-4.4077,-4.3723,-4.3454,-4.3334,-4.3305,-4.3305,-4.3305,-4.3305,-4.3305,-4.3036,-4.2534,-4.1891,-4.1085,-4.0015,-3.8827,-3.7632,-3.6722,-3.6417,-3.6417,-3.6417,-3.6417,-3.6417,-3.6417,-3.6417,-3.6417,-3.6417,-3.6417,-3.6417,-3.6417,-3.6417,-3.6417,-3.6417,-3.6417,-3.6417,-3.6417,-3.6417,-3.6417,-3.6417,-3.6417,-3.6417,-3.6417,-3.6417,-3.6417,-3.6417,-3.6417,-3.6417,-3.6417,-3.6417,-3.6417,-3.6417,-3.6417,-3.6417,-3.6417,-3.6417,-3.6417,-3.6417,-3.6417,-3.637,-3.6417,-3.6263,-3.5054,-3.3798,-3.2482,-3.0968,-2.9355,-2.8548,-2.8301,-2.8301,-2.8301,-2.8301,-5.1229,-5.1229,-5.1229,-5.1229,-5.1229,-5.1229,-5.1229,-5.1184,-5.0943,-5.0556,-4.9942,-4.9927,-4.9598,-4.9164,-4.9,-4.8596,-4.8132,-4.7967,-4.7713,-4.7504,-4.7369,-4.7309,-4.7309,-4.7309,-4.7309,-4.7309,-4.7309,-4.7309,-4.7309,-4.7309,-4.7309,-4.7309,-4.7309,-4.7309,-4.7309,-4.7294,-4.7219,-4.692,-4.6636,-4.6115,-4.5992,-4.5349,-4.49,-4.4377,-4.4137,-4.3783,-4.3469,-4.3319,-4.3319,-4.3305,-4.3305,-4.3305,-4.3305,-4.321,-4.286,-4.229,-4.1711,-4.1211,-4.0304,-3.8903,-3.7665,-3.6628,-3.6417,-3.6417,-3.6417,-3.6417,-3.6417,-3.6417,-3.6417,-3.6417,-3.6417,-3.6417,-3.6417,-3.6417,-3.6417,-3.6417,-3.6417,-3.6417,-3.6417,-3.6417,-3.6417,-3.6417,-3.6417,-3.6417,-3.6417,-3.6417,-3.6417,-3.6417,-3.6417,-3.6417,-3.6417,-3.6417,-3.6417,-3.6417,-3.6417,-3.6417,-3.6417,-3.6417,-3.6417,-3.6417,-3.6417,-3.6417,-3.6417,-3.6417,-3.6168,-3.5679,-3.4715,-3.3403,-3.148,-2.9513,-2.8953,-2.8451,-2.8301,-2.8301,-2.8301,-5.1154,-5.1229,-5.1154,-5.1154,-5.1094,-5.1199,-5.1154,-5.0945,-5.0435,-4.9898,-4.9329,-4.9284,-4.8925,-4.8416,-4.8297,-4.7982,-4.7608,-4.7444,-4.7369,-4.7339,-4.7309,-4.7309,-4.7309,-4.7309,-4.7309,-4.7309,-4.7309,-4.7309,-4.7309,-4.7309,-4.7309,-4.7249,-4.7204,-4.716,-4.7279,-4.7294,-4.6965,-4.6384,-4.6262,-4.5798,-4.5304,-4.4691,-4.4302,-4.4092,-4.3708,-4.3394,-4.3349,-4.3305,-4.3305,-4.3305,-4.3305,-4.3305,-4.3305,-4.3305,-4.313,-4.29,-4.2111,-4.1684,-4.1295,-3.9275,-3.7723,-3.6628,-3.6417,-3.6417,-3.6417,-3.6417,-3.6417,-3.6417,-3.6417,-3.6417,-3.6417,-3.6417,-3.6417,-3.6417,-3.6417,-3.6417,-3.6417,-3.6417,-3.6417,-3.6417,-3.6417,-3.6417,-3.6417,-3.6417,-3.6417,-3.6417,-3.6417,-3.6417,-3.6417,-3.6417,-3.6417,-3.6417,-3.6417,-3.6417,-3.6417,-3.6417,-3.6417,-3.6417,-3.6417,-3.6417,-3.6417,-3.6417,-3.6417,-3.6417,-3.6263,-3.5966,-3.5235,-3.4337,-3.2454,-3.068,-2.926,-2.8654,-2.8451,-2.8291,-2.8291,-4.9927,-4.9927,-4.9927,-4.9927,-4.9987,-5.0406,-5.0331,-4.9942,-4.9643,-4.9224,-4.8716,-4.8611,-4.8237,-4.7788,-4.7653,-4.7534,-4.7369,-4.7309,-4.7309,-4.7309,-4.7309,-4.7309,-4.7309,-4.7309,-4.7309,-4.7309,-4.7309,-4.7309,-4.7309,-4.7309,-4.7309,-4.7249,-4.683,-4.6666,-4.6636,-4.6606,-4.6279,-4.5678,-4.5244,-4.484,-4.4586,-4.4047,-4.3648,-4.3663,-4.3409,-4.3305,-4.3305,-4.3305,-4.3305,-4.3305,-4.3305,-4.3305,-4.3305,-4.3305,-4.2996,-4.2725,-4.207,-4.1961,-4.0732,-3.8903,-3.7632,-3.6849,-3.6417,-3.6417,-3.6417,-3.6417,-3.6417,-3.6417,-3.6417,-3.6417,-3.6417,-3.6417,-3.6417,-3.6417,-3.6417,-3.6417,-3.6417,-3.6417,-3.6417,-3.6417,-3.6417,-3.6417,-3.6417,-3.6417,-3.6417,-3.6417,-3.6417,-3.6417,-3.6417,-3.6417,-3.6417,-3.6417,-3.6417,-3.6417,-3.6417,-3.6417,-3.6417,-3.6417,-3.6417,-3.6417,-3.6417,-3.6417,-3.6417,-3.6417,-3.6358,-3.6263,-3.5667,-3.4921,-3.3563,-3.205,-3.0886,-2.9869,-2.966,-2.9112,-2.8291,-4.9299,-4.9299,-4.9299,-4.9164,-4.906,-4.9628,-4.9538,-4.9045,-4.8955,-4.8551,-4.8057,-4.7938,-4.7743,-4.7414,-4.7309,-4.7309,-4.7309,-4.7309,-4.7309,-4.7309,-4.7309,-4.7309,-4.7309,-4.7309,-4.7309,-4.7309,-4.7309,-4.7309,-4.7309,-4.7309,-4.7145,-4.6815,-4.6307,-4.5858,-4.5753,-4.5663,-4.5633,-4.505,-4.4616,-4.4287,-4.3932,-4.3559,-4.3334,-4.3334,-4.3305,-4.3305,-4.3305,-4.3305,-4.3305,-4.3305,-4.3305,-4.3305,-4.3305,-4.317,-4.29,-4.267,-4.2152,-4.156,-3.961,-3.8738,-3.7553,-3.6546,-3.6465,-3.6417,-3.6417,-3.6417,-3.6417,-3.6417,-3.6417,-3.6417,-3.6417,-3.6417,-3.6417,-3.6417,-3.6417,-3.6417,-3.6417,-3.6417,-3.6417,-3.6417,-3.6417,-3.6417,-3.6417,-3.6417,-3.6417,-3.6417,-3.6417,-3.6417,-3.6417,-3.6417,-3.6417,-3.6417,-3.6417,-3.6417,-3.6417,-3.6417,-3.6417,-3.6417,-3.6417,-3.6417,-3.6417,-3.6417,-3.6417,-3.6417,-3.637,-3.631,-3.6203,-3.5451,-3.4605,-3.381,-3.2905,-3.1988,-3.1184,-3.0266,-2.9355,-4.9239,-4.9254,-4.9254,-4.8805,-4.8431,-4.8895,-4.8805,-4.8267,-4.8267,-4.7908,-4.7339,-4.7399,-4.7369,-4.7339,-4.7309,-4.7309,-4.7309,-4.7309,-4.7309,-4.7309,-4.7309,-4.7309,-4.7309,-4.7309,-4.7309,-4.7309,-4.7279,-4.7234,-4.7264,-4.6905,-4.6636,-4.6262,-4.5618,-4.514,-4.4915,-4.4825,-4.4781,-4.4362,-4.4167,-4.3868,-4.3514,-4.3364,-4.3305,-4.3305,-4.3305,-4.3305,-4.3305,-4.3305,-4.3305,-4.3305,-4.3305,-4.3305,-4.3305,-4.3305,-4.329,-4.29,-4.207,-4.0161,-3.8769,-3.8153,-3.7461,-3.6534,-3.6417,-3.6417,-3.6417,-3.6417,-3.6417,-3.6417,-3.6417,-3.6417,-3.6417,-3.6417,-3.6417,-3.6417,-3.6417,-3.6417,-3.6417,-3.6417,-3.6417,-3.6417,-3.6417,-3.6417,-3.6417,-3.6417,-3.6417,-3.6417,-3.6417,-3.6417,-3.6417,-3.6417,-3.6417,-3.6417,-3.6417,-3.6417,-3.6417,-3.6417,-3.6417,-3.6417,-3.6417,-3.6417,-3.6417,-3.6417,-3.6417,-3.6417,-3.6417,-3.6358,-3.6263,-3.631,-3.6156,-3.5355,-3.441,-3.3613,-3.2694,-3.1938,-3.1224,-4.7878,-4.7863,-4.7878,-4.7773,-4.7638,-4.7803,-4.7758,-4.7593,-4.7593,-4.7444,-4.7309,-4.7309,-4.7309,-4.7309,-4.7309,-4.7309,-4.7309,-4.7309,-4.7309,-4.7309,-4.7309,-4.7309,-4.7294,-4.7279,-4.7294,-4.7264,-4.7204,-4.695,-4.6531,-4.6232,-4.5888,-4.5514,-4.4915,-4.4481,-4.4257,-4.4047,-4.3868,-4.3763,-4.3718,-4.3529,-4.3379,-4.3305,-4.3305,-4.3305,-4.3305,-4.3305,-4.3305,-4.3305,-4.3305,-4.3305,-4.3305,-4.3305,-4.3305,-4.325,-4.3061,-4.1906,-4.0419,-3.868,-3.8062,-3.7368,-3.6803,-3.6534,-3.6417,-3.6417,-3.6417,-3.6417,-3.6417,-3.6417,-3.6417,-3.6417,-3.6417,-3.6417,-3.6417,-3.6417,-3.6417,-3.6417,-3.6417,-3.6417,-3.6417,-3.6417,-3.6417,-3.6417,-3.6417,-3.6417,-3.6417,-3.6417,-3.6417,-3.6417,-3.6417,-3.6417,-3.6417,-3.6417,-3.6417,-3.6417,-3.6417,-3.6417,-3.6417,-3.6417,-3.6417,-3.6417,-3.6417,-3.6417,-3.6417,-3.6417,-3.6417,-3.6417,-3.6417,-3.6417,-3.6417,-3.6417,-3.5655,-3.4921,-3.4215,-3.3491,-3.2883,-4.7309,-4.7309,-4.7309,-4.7309,-4.7309,-4.7309,-4.7309,-4.7309,-4.7309,-4.7309,-4.7309,-4.7309,-4.7309,-4.7309,-4.7309,-4.7309,-4.7309,-4.7309,-4.7309,-4.7309,-4.7234,-4.7309,-4.7279,-4.704,-4.689,-4.6875,-4.6621,-4.6187,-4.5798,-4.5304,-4.49,-4.4855,-4.4242,-4.3962,-4.3783,-4.3574,-4.3409,-4.3349,-4.3334,-4.3305,-4.3305,-4.3305,-4.3305,-4.3305,-4.3305,-4.3305,-4.3305,-4.3305,-4.3305,-4.3305,-4.3305,-4.3305,-4.317,-4.29,-4.2085,-4.0958,-4.0002,-3.8469,-3.7586,-3.7415,-3.6896,-3.6546,-3.6417,-3.6417,-3.6417,-3.6417,-3.6417,-3.6417,-3.6417,-3.6417,-3.6417,-3.6417,-3.6417,-3.6417,-3.6417,-3.6417,-3.6417,-3.6417,-3.6417,-3.6417,-3.6417,-3.6417,-3.6417,-3.6417,-3.6417,-3.6417,-3.6417,-3.6417,-3.6417,-3.6417,-3.6417,-3.6417,-3.6417,-3.6417,-3.6417,-3.6417,-3.6417,-3.6417,-3.6417,-3.6417,-3.6417,-3.6417,-3.6417,-3.6417,-3.6417,-3.6417,-3.6417,-3.6417,-3.6417,-3.6417,-3.6417,-3.581,-3.5319,-3.5054,-3.4496,-4.7309,-4.7309,-4.7309,-4.7309,-4.7309,-4.7309,-4.7309,-4.7309,-4.7309,-4.7309,-4.7309,-4.7309,-4.7309,-4.7309,-4.7309,-4.7309,-4.7234,-4.7174,-4.7055,-4.7174,-4.6875,-4.6845,-4.6696,-4.6561,-4.6292,-4.6022,-4.5783,-4.5544,-4.511,-4.4616,-4.4186,-4.4157,-4.3678,-4.3439,-4.3424,-4.3379,-4.3305,-4.3305,-4.3305,-4.3305,-4.3305,-4.3305,-4.3305,-4.3305,-4.3305,-4.3305,-4.3305,-4.3305,-4.3305,-4.3305,-4.3305,-4.3305,-4.2996,-4.233,-4.1225,-4.0232,-3.9579,-3.8302,-3.7335,-3.7116,-3.7023,-3.6675,-3.6417,-3.6417,-3.6417,-3.6417,-3.6417,-3.6417,-3.6417,-3.6417,-3.6417,-3.6417,-3.6417,-3.6417,-3.6417,-3.6417,-3.6417,-3.6417,-3.6417,-3.6417,-3.6417,-3.6417,-3.6417,-3.6417,-3.6417,-3.6417,-3.6417,-3.6417,-3.6417,-3.6417,-3.6417,-3.6417,-3.6417,-3.6417,-3.6417,-3.6417,-3.6417,-3.6417,-3.6417,-3.6417,-3.6417,-3.6417,-3.6417,-3.6417,-3.6417,-3.6417,-3.6417,-3.6417,-3.6417,-3.6417,-3.6417,-3.6417,-3.6216,-3.5953,-3.5763,-4.7309,-4.7309,-4.7309,-4.7309,-4.7309,-4.7309,-4.7294,-4.7309,-4.7309,-4.7249,-4.7294,-4.7279,-4.7279,-4.7219,-4.7145,-4.713,-4.71,-4.6696,-4.6591,-4.6381,-4.6172,-4.6082,-4.5843,-4.5723,-4.5544,-4.5499,-4.5304,-4.4915,-4.4496,-4.3932,-4.3559,-4.3544,-4.3305,-4.3305,-4.3305,-4.3305,-4.3305,-4.3305,-4.3305,-4.3305,-4.3305,-4.3305,-4.3305,-4.3305,-4.3305,-4.3305,-4.3305,-4.3305,-4.3305,-4.3305,-4.3305,-4.3305,-4.325,-4.2193,-4.1085,-4.0015,-3.9125,-3.7906,-3.7103,-3.6849,-3.6849,-3.6675,-3.6417,-3.6417,-3.6417,-3.6417,-3.6417,-3.6417,-3.6417,-3.6417,-3.6417,-3.6417,-3.6417,-3.6417,-3.6417,-3.6417,-3.6417,-3.6417,-3.6417,-3.6417,-3.6417,-3.6417,-3.6417,-3.6417,-3.6417,-3.6417,-3.6417,-3.6417,-3.6417,-3.6417,-3.6417,-3.6417,-3.6417,-3.6417,-3.6417,-3.6417,-3.6417,-3.6417,-3.6417,-3.6417,-3.6417,-3.6417,-3.6417,-3.6417,-3.6417,-3.6417,-3.6417,-3.6417,-3.6417,-3.6417,-3.6417,-3.6417,-3.6417,-3.6216,-3.6263,-4.7309,-4.7309,-4.7309,-4.7309,-4.7264,-4.701,-4.6875,-4.68,-4.6546,-4.6411,-4.6486,-4.6711,-4.6875,-4.6756,-4.6576,-4.6486,-4.6411,-4.6052,-4.5903,-4.5708,-4.5499,-4.5439,-4.5214,-4.4975,-4.4885,-4.484,-4.4496,-4.4122,-4.3843,-4.3604,-4.3334,-4.3305,-4.3305,-4.3305,-4.3305,-4.3305,-4.3305,-4.3305,-4.3305,-4.3305,-4.3305,-4.3305,-4.3305,-4.3305,-4.3305,-4.3305,-4.3305,-4.3305,-4.3305,-4.3305,-4.3305,-4.3305,-4.286,-4.1657,-4.0661,-3.9798,-3.8827,-3.7573,-3.6883,-3.6662,-3.6756,-3.6581,-3.6417,-3.6417,-3.6417,-3.6417,-3.6417,-3.6417,-3.6417,-3.6417,-3.6417,-3.6417,-3.6417,-3.6417,-3.6417,-3.6417,-3.6417,-3.6417,-3.6417,-3.6417,-3.6417,-3.6417,-3.6417,-3.6417,-3.6417,-3.6417,-3.6417,-3.6417,-3.6417,-3.6417,-3.6417,-3.6417,-3.6417,-3.6417,-3.6417,-3.6417,-3.6417,-3.6417,-3.6417,-3.6417,-3.6417,-3.6417,-3.6417,-3.6417,-3.6417,-3.6417,-3.6417,-3.6417,-3.6417,-3.6417,-3.6417,-3.6417,-3.6417,-3.6417,-3.6417,-4.701,-4.704,-4.7025,-4.7025,-4.6965,-4.6441,-4.616,-4.6112,-4.5589,-4.5334,-4.5424,-4.5873,-4.604,-4.5963,-4.5633,-4.5424,-4.5274,-4.5259,-4.5214,-4.514,-4.499,-4.4736,-4.4571,-4.4451,-4.4287,-4.4062,-4.3763,-4.3574,-4.3409,-4.3305,-4.3305,-4.3305,-4.3305,-4.3305,-4.3305,-4.3305,-4.3305,-4.3305,-4.3305,-4.3305,-4.3305,-4.3305,-4.3305,-4.3305,-4.3305,-4.3305,-4.3305,-4.3305,-4.3305,-4.3305,-4.3265,-4.3076,-4.2603,-4.1435,-4.0318,-3.9448,-3.8649,-3.754,-3.6837,-3.701,-3.6883,-3.6662,-3.6499,-3.6417,-3.6417,-3.6417,-3.6417,-3.6417,-3.6417,-3.6417,-3.6417,-3.6417,-3.6417,-3.6417,-3.6417,-3.6417,-3.6417,-3.6417,-3.6417,-3.6417,-3.6417,-3.6417,-3.6417,-3.6417,-3.6417,-3.6417,-3.6417,-3.6417,-3.6417,-3.6417,-3.6417,-3.6417,-3.6417,-3.6417,-3.6417,-3.6417,-3.6417,-3.6417,-3.6417,-3.6417,-3.6417,-3.6417,-3.6417,-3.6417,-3.6417,-3.6417,-3.6417,-3.6417,-3.6417,-3.6417,-3.6417,-3.6417,-3.6417,-3.6417,-3.6417,-4.5678,-4.5678,-4.5678,-4.5693,-4.5678,-4.5544,-4.5484,-4.5469,-4.5334,-4.5289,-4.511,-4.4811,-4.493,-4.5469,-4.5394,-4.5185,-4.4915,-4.4706,-4.4526,-4.4481,-4.4167,-4.3843,-4.3753,-4.3828,-4.3559,-4.3439,-4.3394,-4.3334,-4.3305,-4.3305,-4.3305,-4.3305,-4.3305,-4.3305,-4.3305,-4.3305,-4.3305,-4.3305,-4.3305,-4.3305,-4.3305,-4.3305,-4.3305,-4.3305,-4.3305,-4.3305,-4.3305,-4.3305,-4.3305,-4.3305,-4.325,-4.282,-4.2126,-4.1295,-4.0218,-3.8917,-3.8166,-3.7461,-3.693,-3.6849,-3.6581,-3.6534,-3.6417,-3.6417,-3.6417,-3.6417,-3.6417,-3.6417,-3.6417,-3.6417,-3.6417,-3.6417,-3.6417,-3.6417,-3.6417,-3.6417,-3.6417,-3.6417,-3.6417,-3.6417,-3.6417,-3.6417,-3.6417,-3.6417,-3.6417,-3.6417,-3.6417,-3.6417,-3.6417,-3.6417,-3.6417,-3.6417,-3.6417,-3.6417,-3.6417,-3.6417,-3.6417,-3.6417,-3.6417,-3.6417,-3.6417,-3.6417,-3.6417,-3.6417,-3.6417,-3.6417,-3.6417,-3.6417,-3.6417,-3.6417,-3.6417,-3.6417,-3.6417,-3.6417,-3.6417]},{"header":{"parameterUnit":"m.s-1","parameterCategory":1,"la1":31.0,"la2":29.5877,"lo1":-88.7671,"lo2":-86.6584,"dy":0.0162,"dx":0.0185,"nx":115,"ny":88,"refTime":"2023-07-16T12:00:00:Z","depth":0,"parameterNumber":3,"parameterNumberName":"V-component_of_WINDS"},"data":[0.0,0.0,0.0,0.0,0.0,0.0,0.0,0.0,0.0,0.0,0.0,0.0,0.0,0.0,0.0,0.0,0.0,0.0,0.0,0.0,0.0,0.0,0.0,0.0,0.0,0.0,0.0,0.0,0.0,0.0,0.0,0.0,0.0,0.0,0.0,0.0,0.0,0.0,0.0,0.0,0.0,0.0,0.0,0.0,0.0,0.0,0.0,0.0,0.0,0.0,0.0,0.0,0.0,0.0,0.0,0.0,0.0,0.0,0.0,0.0,0.0,0.0,0.0,0.0,0.0,0.0,0.0,0.0,0.0,0.0,0.0,0.0,0.0,0.0,0.0,0.0,0.0,0.0,0.0,0.0,0.0,0.0,0.0,0.0,0.0,0.0,0.0,0.0,0.0,0.0,0.0,0.0,0.0,0.0,0.0,0.0,0.0,0.0,0.0,0.0,0.0,0.0,0.0,0.0,0.0,0.0,0.0,0.0,0.0,0.0,0.0,0.0,0.0,0.0,0.0,0.0,0.0,0.0,0.0,0.0,0.0,0.0,0.0,0.0,0.0,0.0,0.0,0.0,0.0,0.0,0.0,0.0,0.0,0.0,0.0,0.0,0.0,0.0,0.0,0.0,0.0,0.0,0.0,0.0,0.0,0.0,0.0,0.0,0.0,0.0,0.0,0.0,0.0,0.0,0.0,0.0,0.0,0.0,0.0,0.0,0.0,0.0,0.0,0.0,0.0,0.0,0.0,0.0,0.0,0.0,0.0,0.0,0.0,0.0,0.0,0.0,0.0,0.0,0.0,0.0,0.0,0.0,0.0,0.0,0.0,0.0,0.0,0.0,0.0,0.0,0.0,0.0,0.0,0.0,0.0,0.0,0.0,0.0,0.0,0.0,0.0,0.0,0.0,0.0,0.0,0.0,0.0,0.0,0.0,0.0,0.0,0.0,0.0,0.0,0.0,0.0,0.0,0.0,0.0,0.0,0.0,0.0,0.0,0.0,0.0,0.0,0.0,0.0,0.0,0.0,0.0,0.0,0.0,0.0,0.0,0.0,0.0,0.0,0.0,0.0,0.0,0.0,0.0,0.0,0.0,0.0,0.0,0.0,0.0,0.0,0.0,0.0,0.0,0.0,0.0,0.0,0.0,0.0,0.0,0.0,0.0,0.0,0.0,0.0,0.0,0.0,0.0,0.0,0.0,0.0,0.0,0.0,0.0,0.0,0.0,0.0,0.0,0.0,0.0,0.0,0.0,0.0,0.0,0.0,0.0,0.0,0.0,0.0,0.0,0.0,0.0,0.0,0.0,0.0,0.0,0.0,0.0,0.0,0.0,0.0,0.0,0.0,0.0,0.0,0.0,0.0,0.0,0.0,0.0,0.0,0.0,0.0,0.0,0.0,0.0,0.0,0.0,0.0,0.0,0.0,0.0,0.0,0.0,0.0,0.0,0.0,0.0,0.0,0.0,0.0,0.0,0.0,0.0,0.0,0.0,0.0,0.0,0.0,0.0,0.0,0.0,0.0,0.0,0.0,0.0,0.0,0.0,0.0,0.0,0.0,0.0,0.0,0.0,0.0,0.0,0.0,0.0,0.0,0.0,0.0,0.0,0.0,0.0,0.0,0.0,0.0,0.0,0.0,0.0,0.0,0.0,0.0,0.0,0.0,0.0,0.0,0.0,0.0,0.0,0.0,0.0,0.0,0.0,0.0,0.0,0.0,0.0,0.0,0.0,0.0,0.0,0.0,0.0,0.0,0.0,0.0,0.0,0.0,0.0,0.0,0.0,0.0,0.0,0.0,0.0,0.0,0.0,0.0,0.0,0.0,0.0,0.0,0.0,0.0,0.0,0.0,0.0,0.0,0.0,0.0,0.0,0.0,0.0,0.0,0.0,0.0,0.0,0.0,0.0,0.0,0.0,0.0,0.0,0.0,0.0,0.0,0.0,0.0,0.0,0.0,0.0,0.0,0.0,0.0,0.0,0.0,0.0,0.0,0.0,0.0,0.0,0.0,0.0,0.0,0.0,0.0,0.0,0.0,0.0,0.0,0.0,0.0,0.0,0.0,0.0,0.0,0.0,0.0,0.0,0.0,0.0,0.0,0.0,0.0,0.0,0.0,0.0,0.0,0.0,0.0,0.0,0.0,0.0,0.0,0.0,0.0,0.0,0.0,0.0,0.0,0.0,0.0,0.0,0.0,0.0,0.0,0.0,0.0,0.0,0.0,0.0,0.0,0.0,0.0,0.0,0.0,0.0,0.0,0.0,0.0,0.0,0.0,0.0,0.0,0.0,0.0,0.0,0.0,0.0,0.0,0.0,0.0,0.0,0.0,0.0,0.0,0.0,0.0,0.0,0.0,0.0,0.0,0.0,0.0,0.0,0.0,0.0,0.0,0.0,0.0,0.0,0.0,0.0,0.0,0.0,0.0,0.0,0.0,0.0,0.0,0.0,0.0,0.0,0.0,0.0,0.0,0.0,0.0,0.0,0.0,0.0,0.0,0.0,0.0,0.0,0.0,0.0,0.0,0.0,0.0,0.0,0.0,0.0,0.0,0.0,0.0,0.0,0.0,0.0,0.0,0.0,0.0,0.0,0.0,0.0,0.0,0.0,0.0,0.0,0.0,0.0,0.0,0.0,0.0,0.0,0.0,0.0,0.0,0.0,0.0,0.0,0.0,0.0,0.0,0.0,0.0,0.0,0.0,0.0,0.0,0.0,0.0,0.0,0.0,0.0,0.0,0.0,0.0,0.0,0.0,0.0,0.0,0.0,0.0,0.0,0.0,0.0,0.0,0.0,0.0,0.0,0.0,0.0,0.0,0.0,0.0,0.0,0.0,0.0,0.0,0.0,0.0,0.0,0.0,0.0,0.0,0.0,0.0,0.0,0.0,0.0,0.0,0.0,0.0,0.0,0.0,0.0,0.0,0.0,0.0,0.0,0.0,0.0,0.0,0.0,0.0,0.0,0.0,0.0,0.0,0.0,0.0,0.0,0.0,0.0,0.0,0.0,0.0,0.0,0.0,0.0,0.0,0.0,0.0,0.0,0.0,0.0,0.0,0.0,0.0,0.0,0.0,0.0,0.0,0.0,0.0,0.0,0.0,0.0,0.0,0.0,0.0,0.0,0.0,0.0,0.0,0.0,0.0,0.0,0.0,0.0,0.0,0.0,0.0,0.0,0.0,0.0,0.0,0.0,0.0,0.0,0.0,0.0,0.0,0.0,0.0,0.0,0.0,0.0,0.0,0.0,0.0,0.0,0.0,0.0,0.0,0.0,0.0,0.0,0.0,0.0,0.0,0.0,0.0,0.0,0.0,0.0,0.0,0.0,0.0,0.0,0.0,0.0,0.0,0.0,0.0,0.0,0.0,0.0,0.0,0.0,0.0,0.0,0.0,0.0,0.0,0.0,0.0,0.0,0.0,0.0,0.0,0.0,0.0,0.0,0.0,0.0,0.0,0.0,0.0,0.0,0.0,0.0,0.0,0.0,0.0,0.0,0.0,0.0,0.0,0.0,0.0,0.0,0.0,0.0,0.0,0.0,0.0,0.0,0.0,0.0,0.0,0.0,0.0,0.0,0.0,0.0,0.0,0.0,0.0,0.0,0.0,0.0,0.0,0.0,0.0,0.0,0.0,0.0,0.0,0.0,0.0,0.0,0.0,0.0,0.0,0.0,0.0,0.0,0.0,0.0,0.0,0.0,0.0,0.0,0.0,0.0,0.0,0.0,0.0,0.0,0.0,0.0,0.0,0.0,0.0,0.0,0.0,0.0,0.0,0.0,0.0,0.0,0.0,0.0,0.0,0.0,0.0,0.0,0.0,0.0,0.0,0.0,0.0,0.0,0.0,0.0,0.0,0.0,0.0,0.0,0.0,0.0,0.0,0.0,0.0,0.0,0.0,0.0,0.0,0.0,0.0,0.0,0.0,0.0,0.0,0.0,0.0,0.0,0.0,0.0,0.0,0.0,0.0,0.0,0.0,0.0,0.0,0.0,0.0,0.0,0.0,0.0,0.0,0.0,0.0,0.0,0.0,0.0,0.0,0.0,0.0,0.0,0.0,0.0,0.0,0.0,0.0,0.0,0.0,0.0,0.0,0.0,0.0,0.0,0.0,0.0,0.0,0.0,0.0,0.0,0.0,0.0,0.0,0.0,0.0,0.0,0.0,0.0,0.0,0.0,0.0,0.0,0.0,0.0,0.0,0.0,0.0,0.0,0.0,0.0,0.0,0.0,0.0,0.0,0.0,0.0,0.0,0.0,0.0,0.0,0.0,0.0,0.0,0.0,0.0,-1.4833,0.0,0.0,0.0,0.0,0.0,0.0,0.0,0.0,0.0,0.0,0.0,0.0,0.0,0.0,0.0,0.0,0.0,0.0,0.0,0.0,0.0,0.0,0.0,0.0,0.0,0.0,0.0,0.0,0.0,0.0,0.0,0.0,0.0,0.0,0.0,0.0,0.0,0.0,0.0,0.0,0.0,0.0,0.0,0.0,0.0,0.0,0.0,0.0,0.0,0.0,0.0,0.0,0.0,0.0,0.0,0.0,0.0,0.0,0.0,0.0,0.0,0.0,0.0,0.0,0.0,0.0,0.0,0.0,0.0,0.0,0.0,0.0,0.0,0.0,0.0,0.0,0.0,0.0,0.0,0.0,0.0,0.0,0.0,0.0,0.0,0.0,0.0,0.0,0.0,0.0,0.0,0.0,0.0,0.0,0.0,0.0,0.0,0.0,0.0,0.0,0.0,0.0,0.0,0.0,0.0,0.0,0.0,0.0,0.0,0.0,-1.6257,-1.5826,-1.5759,-1.5515,-1.5137,0.0,0.0,0.0,0.0,0.0,0.0,0.0,0.0,0.0,0.0,0.0,0.0,0.0,0.0,0.0,0.0,0.0,0.0,0.0,0.0,0.0,0.0,0.0,0.0,0.0,0.0,0.0,0.0,0.0,0.0,0.0,0.0,0.0,0.0,0.0,0.0,0.0,0.0,0.0,0.0,0.0,0.0,0.0,0.0,0.0,0.0,0.0,0.0,0.0,0.0,0.0,0.0,0.0,0.0,0.0,0.0,0.0,0.0,0.0,0.0,0.0,0.0,0.0,0.0,0.0,0.0,0.0,0.0,0.0,0.0,0.0,0.0,0.0,0.0,0.0,0.0,0.0,0.0,0.0,0.0,0.0,0.0,0.0,0.0,0.0,0.0,0.0,0.0,0.0,0.0,0.0,0.0,0.0,0.0,0.0,0.0,0.0,0.0,0.0,0.0,0.0,0.0,0.0,0.0,0.0,0.0,0.0,0.0,0.0,0.0,0.0,0.0,-1.5961,-1.573,-1.5468,0.0,0.0,0.0,0.0,0.0,0.0,0.0,0.0,0.0,0.0,0.0,0.0,0.0,0.0,0.0,0.0,0.0,0.0,0.0,0.0,0.0,0.0,0.0,0.0,0.0,0.0,0.0,0.0,0.0,0.0,0.0,0.0,0.0,0.0,0.0,0.0,0.0,0.0,0.0,0.0,0.0,0.0,0.0,0.0,0.0,0.0,0.0,0.0,0.0,0.0,0.0,0.0,0.0,0.0,0.0,0.0,0.0,0.0,0.0,0.0,0.0,0.0,0.0,0.0,0.0,0.0,0.0,0.0,0.0,0.0,0.0,0.0,0.0,0.0,0.0,0.0,0.0,0.0,0.0,0.0,0.0,0.0,0.0,0.0,0.0,0.0,0.0,0.0,0.0,0.0,0.0,0.0,0.0,0.0,0.0,0.0,0.0,0.0,0.0,0.0,0.0,0.0,0.0,0.0,0.0,0.0,0.0,0.0,0.0,0.0,-1.7346,-1.6722,-1.6459,0.0,-1.5701,0.0,0.0,0.0,0.0,0.0,0.0,0.0,0.0,0.0,0.0,0.0,0.0,0.0,0.0,0.0,0.0,0.0,0.0,0.0,0.0,0.0,0.0,0.0,0.0,0.0,0.0,0.0,0.0,0.0,0.0,0.0,0.0,0.0,0.0,0.0,0.0,0.0,0.0,0.0,0.0,0.0,0.0,0.0,0.0,0.0,0.0,0.0,0.0,0.0,0.0,0.0,0.0,0.0,0.0,0.0,0.0,0.0,0.0,0.0,0.0,0.0,0.0,0.0,0.0,0.0,0.0,0.0,0.0,0.0,0.0,0.0,0.0,0.0,0.0,0.0,0.0,0.0,0.0,0.0,0.0,0.0,0.0,0.0,0.0,0.0,0.0,0.0,0.0,0.0,0.0,0.0,0.0,0.0,0.0,0.0,0.0,0.0,0.0,0.0,0.0,0.0,0.0,0.0,0.0,0.0,0.0,0.0,0.0,0.0,0.0,-1.7788,-1.7228,-1.6637,-1.6181,0.0,0.0,0.0,0.0,0.0,0.0,0.0,0.0,0.0,0.0,0.0,0.0,0.0,0.0,0.0,0.0,0.0,0.0,0.0,0.0,0.0,0.0,0.0,0.0,0.0,0.0,0.0,0.0,0.0,0.0,0.0,0.0,0.0,0.0,0.0,0.0,0.0,0.0,0.0,0.0,0.0,0.0,0.0,0.0,0.0,0.0,0.0,0.0,0.0,0.0,0.0,0.0,0.0,0.0,0.0,0.0,0.0,0.0,0.0,0.0,0.0,0.0,0.0,0.0,0.0,0.0,0.0,0.0,0.0,0.0,0.0,0.0,0.0,0.0,0.0,0.0,0.0,0.0,0.0,0.0,0.0,0.0,0.0,0.0,0.0,0.0,0.0,0.0,0.0,0.0,0.0,0.0,0.0,0.0,0.0,0.0,0.0,0.0,0.0,0.0,0.0,0.0,0.0,0.0,0.0,0.0,0.0,0.0,0.0,0.0,-1.8667,-1.8197,-1.7551,-1.6899,-1.6381,-1.6017,0.0,0.0,0.0,0.0,0.0,0.0,0.0,0.0,0.0,0.0,0.0,0.0,0.0,0.0,0.0,0.0,0.0,0.0,0.0,0.0,0.0,0.0,0.0,0.0,0.0,0.0,0.0,0.0,0.0,0.0,0.0,0.0,0.0,0.0,0.0,0.0,0.0,0.0,0.0,0.0,0.0,0.0,0.0,0.0,0.0,0.0,0.0,0.0,0.0,0.0,0.0,0.0,0.0,0.0,0.0,0.0,0.0,0.0,0.0,0.0,0.0,0.0,0.0,0.0,0.0,0.0,0.0,0.0,0.0,0.0,0.0,0.0,0.0,0.0,0.0,0.0,0.0,0.0,0.0,0.0,0.0,0.0,0.0,0.0,0.0,0.0,0.0,0.0,0.0,0.0,0.0,0.0,0.0,0.0,0.0,0.0,0.0,0.0,0.0,0.0,0.0,0.0,0.0,0.0,0.0,0.0,0.0,0.0,-1.9552,-1.9172,-1.856,-1.7728,-1.7329,-1.6881,0.0,0.0,0.0,0.0,0.0,0.0,0.0,0.0,0.0,0.0,0.0,0.0,0.0,0.0,0.0,0.0,0.0,0.0,0.0,0.0,0.0,0.0,0.0,0.0,0.0,0.0,0.0,0.0,0.0,0.0,0.0,0.0,0.0,0.0,0.0,0.0,0.0,0.0,0.0,0.0,0.0,0.0,0.0,0.0,0.0,0.0,0.0,0.0,0.0,0.0,0.0,0.0,0.0,0.0,0.0,0.0,0.0,0.0,0.0,0.0,0.0,0.0,0.0,0.0,0.0,0.0,0.0,0.0,0.0,0.0,0.0,0.0,0.0,0.0,0.0,0.0,0.0,0.0,0.0,0.0,0.0,0.0,0.0,0.0,0.0,0.0,0.0,0.0,0.0,0.0,0.0,0.0,0.0,0.0,0.0,0.0,0.0,0.0,0.0,0.0,0.0,0.0,0.0,0.0,0.0,0.0,0.0,0.0,0.0,-1.9604,-1.9291,-1.8842,-1.829,-1.7881,-1.7357,0.0,0.0,0.0,0.0,0.0,0.0,0.0,0.0,0.0,0.0,0.0,0.0,0.0,0.0,0.0,0.0,0.0,0.0,0.0,0.0,0.0,0.0,0.0,0.0,0.0,0.0,0.0,0.0,0.0,0.0,0.0,0.0,0.0,0.0,0.0,0.0,0.0,0.0,0.0,0.0,0.0,0.0,0.0,0.0,0.0,0.0,0.0,0.0,0.0,0.0,0.0,0.0,0.0,0.0,0.0,0.0,0.0,0.0,0.0,0.0,0.0,0.0,0.0,0.0,0.0,0.0,0.0,0.0,0.0,0.0,0.0,0.0,0.0,0.0,0.0,0.0,0.0,0.0,0.0,0.0,0.0,0.0,0.0,0.0,0.0,0.0,0.0,0.0,0.0,0.0,0.0,0.0,0.0,0.0,0.0,0.0,0.0,0.0,0.0,0.0,0.0,0.0,0.0,0.0,0.0,0.0,0.0,0.0,0.0,-1.9604,0.0,-1.9133,-1.8747,-1.8344,-1.7843,0.0,0.0,0.0,0.0,0.0,0.0,0.0,0.0,0.0,0.0,0.0,0.0,0.0,0.0,0.0,0.0,0.0,0.0,0.0,0.0,0.0,0.0,0.0,0.0,0.0,0.0,0.0,0.0,0.0,0.0,0.0,0.0,0.0,0.0,0.0,0.0,0.0,0.0,0.0,0.0,0.0,0.0,0.0,0.0,0.0,0.0,0.0,0.0,0.0,0.0,0.0,0.0,0.0,0.0,0.0,0.0,0.0,0.0,0.0,0.0,0.0,0.0,0.0,0.0,0.0,0.0,0.0,0.0,0.0,0.0,0.0,0.0,0.0,0.0,0.0,0.0,0.0,0.0,0.0,0.0,0.0,0.0,0.0,0.0,0.0,0.0,0.0,0.0,0.0,0.0,0.0,0.0,0.0,0.0,0.0,0.0,0.0,0.0,0.0,0.0,0.0,0.0,0.0,0.0,0.0,0.0,0.0,0.0,-1.9746,-1.9604,-1.9591,-1.9396,-1.9025,-1.8747,-1.8306,0.0,0.0,0.0,0.0,0.0,0.0,0.0,0.0,0.0,0.0,0.0,0.0,0.0,0.0,0.0,0.0,0.0,0.0,0.0,0.0,0.0,0.0,0.0,0.0,0.0,0.0,0.0,0.0,0.0,0.0,0.0,0.0,0.0,0.0,0.0,0.0,0.0,0.0,0.0,0.0,0.0,0.0,0.0,0.0,0.0,0.0,0.0,0.0,0.0,0.0,0.0,0.0,0.0,0.0,0.0,0.0,0.0,0.0,0.0,0.0,0.0,0.0,0.0,0.0,0.0,0.0,0.0,0.0,0.0,0.0,0.0,0.0,0.0,0.0,0.0,0.0,0.0,0.0,0.0,0.0,0.0,0.0,0.0,0.0,0.0,0.0,0.0,0.0,0.0,0.0,0.0,0.0,0.0,0.0,0.0,0.0,0.0,0.0,0.0,0.0,0.0,0.0,0.0,0.0,0.0,0.0,0.0,0.0,0.0,-1.9734,-1.9734,-1.963,-1.9408,-1.9066,-1.8694,0.0,0.0,0.0,0.0,0.0,0.0,0.0,0.0,0.0,0.0,0.0,0.0,0.0,0.0,0.0,0.0,0.0,0.0,0.0,0.0,0.0,0.0,0.0,0.0,0.0,0.0,0.0,0.0,0.0,0.0,0.0,0.0,0.0,0.0,0.0,0.0,0.0,0.0,0.0,0.0,0.0,0.0,0.0,0.0,0.0,0.0,0.0,0.0,0.0,0.0,0.0,0.0,0.0,0.0,0.0,0.0,0.0,0.0,0.0,0.0,0.0,0.0,0.0,0.0,0.0,0.0,0.0,0.0,0.0,0.0,0.0,0.0,0.0,0.0,0.0,0.0,0.0,0.0,0.0,0.0,0.0,0.0,0.0,0.0,0.0,0.0,0.0,0.0,0.0,0.0,0.0,0.0,0.0,0.0,0.0,0.0,0.0,0.0,0.0,0.0,0.0,0.0,0.0,0.0,0.0,0.0,0.0,0.0,0.0,-2.0451,-2.0627,-2.0559,-2.0225,-1.9956,-1.9465,-1.8839,0.0,0.0,0.0,0.0,0.0,0.0,0.0,0.0,0.0,0.0,0.0,0.0,0.0,0.0,0.0,0.0,0.0,0.0,0.0,0.0,0.0,0.0,0.0,0.0,0.0,0.0,0.0,0.0,0.0,0.0,0.0,0.0,0.0,0.0,0.0,0.0,0.0,0.0,0.0,0.0,0.0,0.0,0.0,0.0,0.0,0.0,0.0,0.0,0.0,0.0,0.0,0.0,0.0,0.0,0.0,0.0,0.0,0.0,0.0,0.0,0.0,0.0,0.0,0.0,0.0,0.0,0.0,0.0,0.0,0.0,0.0,0.0,0.0,0.0,0.0,0.0,0.0,0.0,0.0,0.0,0.0,0.0,0.0,0.0,0.0,0.0,0.0,0.0,0.0,0.0,0.0,0.0,0.0,0.0,0.0,0.0,0.0,0.0,0.0,0.0,0.0,0.0,0.0,0.0,0.0,0.0,0.0,0.0,-2.1619,-2.2196,-2.2122,-2.1421,-2.1197,-2.0551,0.0,0.0,0.0,0.0,0.0,0.0,0.0,0.0,0.0,0.0,0.0,0.0,0.0,0.0,0.0,0.0,0.0,0.0,0.0,0.0,0.0,0.0,0.0,0.0,0.0,0.0,0.0,0.0,0.0,0.0,0.0,0.0,0.0,0.0,0.0,0.0,0.0,0.0,0.0,0.0,0.0,0.0,0.0,0.0,0.0,0.0,0.0,0.0,0.0,0.0,0.0,0.0,0.0,0.0,0.0,0.0,0.0,0.0,0.0,0.0,0.0,0.0,0.0,0.0,0.0,0.0,0.0,0.0,0.0,0.0,0.0,0.0,0.0,0.0,0.0,0.0,0.0,0.0,0.0,0.0,0.0,0.0,0.0,0.0,0.0,0.0,0.0,0.0,0.0,0.0,0.0,0.0,0.0,0.0,0.0,0.0,0.0,0.0,0.0,0.0,0.0,0.0,0.0,0.0,0.0,0.0,0.0,0.0,0.0,-2.3339,-2.4268,-2.4061,-2.2672,-2.1749,-2.1076,0.0,0.0,0.0,0.0,0.0,0.0,0.0,0.0,0.0,0.0,0.0,0.0,0.0,0.0,0.0,0.0,0.0,0.0,0.0,0.0,0.0,0.0,0.0,0.0,0.0,0.0,0.0,0.0,0.0,0.0,0.0,0.0,0.0,0.0,0.0,0.0,0.0,0.0,0.0,0.0,0.0,0.0,0.0,0.0,0.0,0.0,0.0,0.0,0.0,0.0,0.0,0.0,0.0,0.0,0.0,0.0,0.0,0.0,0.0,0.0,0.0,0.0,0.0,0.0,0.0,0.0,0.0,0.0,0.0,0.0,0.0,0.0,0.0,0.0,0.0,0.0,0.0,0.0,0.0,0.0,0.0,0.0,0.0,0.0,0.0,0.0,0.0,0.0,0.0,0.0,0.0,0.0,0.0,0.0,0.0,0.0,0.0,0.0,0.0,0.0,0.0,0.0,0.0,0.0,0.0,0.0,0.0,0.0,-2.3452,-2.4343,-2.585,-2.6088,-2.4908,-2.3047,-2.1827,0.0,0.0,0.0,0.0,0.0,0.0,0.0,0.0,0.0,0.0,0.0,0.0,0.0,0.0,0.0,0.0,0.0,0.0,0.0,0.0,0.0,0.0,0.0,0.0,0.0,0.0,0.0,0.0,0.0,0.0,0.0,0.0,0.0,0.0,0.0,0.0,0.0,0.0,0.0,0.0,0.0,0.0,0.0,0.0,0.0,0.0,0.0,0.0,0.0,0.0,0.0,0.0,0.0,0.0,0.0,0.0,0.0,0.0,0.0,0.0,0.0,0.0,0.0,0.0,0.0,0.0,0.0,0.0,0.0,0.0,0.0,0.0,0.0,0.0,0.0,0.0,0.0,0.0,0.0,0.0,0.0,0.0,0.0,0.0,0.0,0.0,0.0,0.0,0.0,0.0,0.0,0.0,0.0,0.0,0.0,0.0,0.0,0.0,0.0,0.0,0.0,0.0,0.0,0.0,0.0,0.0,0.0,0.0,-2.4418,-2.5084,-2.7055,-2.7871,-2.7318,-2.47,-2.2769,0.0,0.0,0.0,0.0,0.0,0.0,0.0,0.0,0.0,0.0,0.0,0.0,0.0,0.0,0.0,0.0,0.0,0.0,0.0,0.0,0.0,0.0,0.0,0.0,0.0,0.0,0.0,0.0,0.0,0.0,0.0,0.0,0.0,0.0,0.0,0.0,0.0,0.0,0.0,0.0,0.0,0.0,0.0,0.0,0.0,0.0,0.0,0.0,0.0,0.0,0.0,0.0,0.0,0.0,0.0,0.0,0.0,0.0,0.0,0.0,0.0,0.0,0.0,0.0,0.0,0.0,0.0,0.0,0.0,0.0,0.0,0.0,0.0,0.0,0.0,0.0,0.0,0.0,0.0,0.0,0.0,0.0,0.0,0.0,0.0,0.0,0.0,0.0,0.0,0.0,0.0,0.0,0.0,0.0,0.0,0.0,0.0,0.0,0.0,0.0,0.0,0.0,0.0,0.0,0.0,0.0,0.0,0.0,-2.5335,-2.6741,-2.7645,-2.8047,-2.7921,-2.5686,-2.391,0.0,0.0,0.0,0.0,0.0,0.0,0.0,0.0,0.0,0.0,0.0,0.0,0.0,0.0,0.0,0.0,0.0,0.0,0.0,0.0,0.0,0.0,0.0,0.0,0.0,0.0,0.0,0.0,0.0,0.0,0.0,0.0,0.0,0.0,0.0,0.0,0.0,0.0,0.0,0.0,0.0,0.0,0.0,0.0,0.0,0.0,0.0,0.0,-3.2848,0.0,0.0,0.0,0.0,0.0,0.0,0.0,0.0,0.0,0.0,0.0,0.0,0.0,0.0,0.0,0.0,0.0,0.0,0.0,0.0,0.0,0.0,0.0,0.0,0.0,0.0,0.0,0.0,0.0,0.0,0.0,0.0,0.0,0.0,0.0,0.0,0.0,0.0,0.0,0.0,0.0,0.0,0.0,0.0,0.0,0.0,0.0,0.0,0.0,0.0,0.0,0.0,0.0,0.0,0.0,0.0,0.0,0.0,0.0,-2.5988,-2.762,-2.8473,-2.8775,-2.8461,-2.7118,-2.5565,0.0,0.0,0.0,0.0,0.0,0.0,0.0,0.0,0.0,0.0,0.0,0.0,0.0,0.0,0.0,0.0,0.0,0.0,0.0,0.0,0.0,0.0,0.0,0.0,0.0,0.0,0.0,0.0,0.0,0.0,0.0,0.0,0.0,0.0,0.0,0.0,0.0,0.0,0.0,0.0,0.0,0.0,0.0,0.0,0.0,0.0,0.0,0.0,0.0,0.0,0.0,0.0,0.0,0.0,0.0,0.0,0.0,0.0,0.0,0.0,0.0,0.0,0.0,0.0,0.0,0.0,0.0,0.0,0.0,0.0,0.0,0.0,0.0,0.0,0.0,0.0,0.0,0.0,0.0,0.0,0.0,0.0,0.0,0.0,0.0,0.0,0.0,0.0,0.0,0.0,0.0,0.0,0.0,0.0,0.0,0.0,0.0,0.0,0.0,0.0,0.0,0.0,0.0,0.0,0.0,0.0,0.0,-2.531,-2.6666,-2.831,-2.9302,-2.9553,-2.9038,-2.8487,-2.7231,-2.5146,0.0,0.0,0.0,0.0,0.0,0.0,0.0,0.0,0.0,0.0,0.0,0.0,0.0,0.0,0.0,0.0,0.0,0.0,0.0,0.0,0.0,0.0,0.0,0.0,0.0,0.0,0.0,0.0,0.0,0.0,0.0,0.0,0.0,0.0,0.0,0.0,0.0,0.0,-2.8257,-3.0121,0.0,0.0,0.0,0.0,0.0,0.0,0.0,0.0,-3.4404,0.0,0.0,0.0,0.0,0.0,0.0,0.0,0.0,0.0,0.0,0.0,0.0,0.0,0.0,0.0,0.0,0.0,0.0,0.0,0.0,0.0,0.0,0.0,0.0,0.0,0.0,0.0,0.0,0.0,0.0,0.0,0.0,0.0,0.0,0.0,0.0,0.0,0.0,0.0,0.0,0.0,0.0,0.0,0.0,0.0,0.0,0.0,0.0,0.0,0.0,0.0,0.0,0.0,0.0,0.0,0.0,-2.531,-2.644,-2.7821,-2.9465,-2.9704,-2.9741,-2.9641,-2.9101,-2.7971,-2.626,0.0,0.0,0.0,0.0,0.0,0.0,0.0,0.0,0.0,0.0,0.0,0.0,0.0,0.0,0.0,0.0,0.0,0.0,0.0,0.0,0.0,0.0,0.0,0.0,0.0,0.0,0.0,0.0,0.0,0.0,0.0,0.0,0.0,0.0,0.0,0.0,0.0,0.0,0.0,-3.1887,-3.2666,0.0,0.0,0.0,0.0,0.0,0.0,0.0,0.0,-3.6451,0.0,0.0,0.0,0.0,0.0,0.0,0.0,0.0,0.0,0.0,0.0,0.0,0.0,0.0,0.0,0.0,0.0,0.0,0.0,0.0,0.0,0.0,0.0,0.0,0.0,0.0,0.0,0.0,0.0,0.0,0.0,0.0,0.0,0.0,0.0,0.0,0.0,0.0,0.0,0.0,0.0,0.0,0.0,0.0,0.0,0.0,0.0,0.0,0.0,0.0,0.0,0.0,0.0,0.0,0.0,-2.6841,-2.8009,-2.9114,-3.0181,-3.0231,-3.008,-2.9792,-2.9227,-2.816,0.0,0.0,0.0,0.0,0.0,0.0,0.0,0.0,0.0,0.0,0.0,0.0,0.0,0.0,0.0,0.0,0.0,0.0,0.0,0.0,0.0,0.0,0.0,0.0,0.0,0.0,0.0,0.0,0.0,0.0,0.0,0.0,0.0,0.0,0.0,0.0,0.0,0.0,0.0,0.0,-3.3207,-3.3981,-3.5492,0.0,0.0,0.0,0.0,0.0,0.0,-3.7922,-3.8082,0.0,0.0,0.0,0.0,0.0,0.0,0.0,0.0,0.0,0.0,0.0,0.0,0.0,0.0,0.0,0.0,0.0,0.0,0.0,0.0,0.0,0.0,0.0,0.0,0.0,0.0,0.0,0.0,0.0,0.0,0.0,0.0,0.0,0.0,0.0,0.0,0.0,0.0,0.0,0.0,0.0,0.0,0.0,0.0,0.0,0.0,0.0,0.0,0.0,0.0,0.0,0.0,0.0,0.0,0.0,-2.8072,-2.9327,-3.0218,-3.0746,-3.0771,-3.0557,-3.0118,-2.934,-2.821,0.0,0.0,0.0,0.0,0.0,0.0,0.0,0.0,0.0,0.0,0.0,0.0,0.0,0.0,0.0,0.0,0.0,0.0,0.0,0.0,0.0,0.0,0.0,0.0,0.0,0.0,0.0,0.0,0.0,0.0,0.0,0.0,0.0,0.0,0.0,0.0,0.0,0.0,0.0,0.0,0.0,-3.512,-3.6778,-3.6349,0.0,0.0,0.0,0.0,-3.8227,-3.8954,0.0,0.0,0.0,0.0,0.0,0.0,0.0,0.0,0.0,0.0,0.0,0.0,0.0,0.0,0.0,0.0,0.0,0.0,0.0,0.0,0.0,0.0,0.0,0.0,0.0,0.0,0.0,0.0,0.0,0.0,0.0,0.0,0.0,0.0,0.0,0.0,0.0,0.0,0.0,0.0,0.0,0.0,0.0,0.0,0.0,0.0,0.0,0.0,0.0,0.0,0.0,0.0,0.0,0.0,0.0,0.0,-2.8109,-2.9704,-3.0771,-3.126,-3.1298,-3.1273,-3.1185,-2.9729,-2.8349,0.0,0.0,0.0,0.0,0.0,0.0,0.0,0.0,0.0,0.0,0.0,0.0,0.0,0.0,0.0,0.0,0.0,0.0,0.0,0.0,0.0,0.0,0.0,0.0,0.0,0.0,0.0,0.0,0.0,0.0,0.0,0.0,0.0,0.0,0.0,0.0,0.0,0.0,0.0,0.0,0.0,-3.5301,-3.7483,-3.7151,-3.6643,0.0,0.0,-3.9012,-3.974,-4.046,0.0,0.0,0.0,0.0,0.0,0.0,0.0,0.0,0.0,0.0,0.0,0.0,0.0,0.0,0.0,0.0,0.0,0.0,0.0,0.0,0.0,0.0,0.0,0.0,0.0,0.0,0.0,0.0,0.0,0.0,0.0,0.0,0.0,0.0,0.0,0.0,0.0,0.0,0.0,0.0,0.0,0.0,0.0,0.0,0.0,0.0,0.0,0.0,0.0,0.0,0.0,0.0,0.0,0.0,0.0,-2.8411,-2.9528,-3.116,-3.1964,-3.1863,-3.1851,-3.1712,-3.1399,-3.0105,-2.89,0.0,0.0,0.0,0.0,0.0,0.0,0.0,0.0,0.0,0.0,0.0,0.0,0.0,0.0,0.0,0.0,0.0,0.0,0.0,0.0,0.0,0.0,0.0,0.0,0.0,0.0,0.0,0.0,0.0,0.0,0.0,0.0,0.0,0.0,0.0,0.0,0.0,0.0,0.0,0.0,0.0,0.0,-3.7652,-3.7618,0.0,0.0,0.0,-3.9732,-4.0054,0.0,0.0,0.0,0.0,0.0,0.0,0.0,0.0,0.0,0.0,0.0,0.0,0.0,0.0,0.0,0.0,0.0,0.0,0.0,0.0,0.0,0.0,0.0,0.0,0.0,0.0,0.0,0.0,0.0,0.0,0.0,0.0,0.0,0.0,0.0,0.0,0.0,0.0,0.0,0.0,0.0,0.0,0.0,0.0,0.0,0.0,0.0,0.0,0.0,0.0,0.0,0.0,0.0,0.0,0.0,0.0,0.0,-3.0608,-3.224,-3.291,-3.2453,-3.2428,-3.2227,-3.1854,-3.0746,0.0,0.0,0.0,0.0,0.0,0.0,0.0,0.0,0.0,0.0,0.0,0.0,0.0,0.0,0.0,0.0,0.0,0.0,0.0,0.0,0.0,0.0,0.0,0.0,0.0,0.0,0.0,-2.5113,0.0,0.0,0.0,0.0,0.0,0.0,0.0,0.0,0.0,0.0,0.0,0.0,0.0,0.0,-3.6383,-3.7736,-3.8058,-3.843,0.0,0.0,-4.0426,-4.0603,-4.2371,-4.2895,0.0,0.0,0.0,0.0,0.0,0.0,0.0,0.0,0.0,0.0,0.0,0.0,0.0,0.0,0.0,0.0,0.0,0.0,0.0,0.0,0.0,0.0,0.0,0.0,0.0,0.0,0.0,0.0,0.0,0.0,0.0,0.0,0.0,0.0,0.0,0.0,0.0,0.0,0.0,0.0,0.0,0.0,0.0,0.0,0.0,0.0,0.0,0.0,0.0,0.0,0.0,0.0,0.0,0.0,0.0,-3.062,-3.224,-3.3099,-3.3018,-3.3018,-3.3048,-3.2943,-3.1876,-3.052,0.0,0.0,0.0,0.0,0.0,0.0,0.0,0.0,0.0,0.0,0.0,0.0,0.0,0.0,0.0,0.0,0.0,0.0,0.0,0.0,0.0,0.0,0.0,0.0,0.0,0.0,0.0,0.0,0.0,0.0,0.0,0.0,0.0,0.0,0.0,0.0,0.0,0.0,0.0,0.0,0.0,-3.7009,-3.7787,-3.8497,-3.9199,0.0,0.0,-4.1373,-4.2033,-4.3453,-4.3504,-4.0569,0.0,0.0,0.0,0.0,0.0,0.0,0.0,0.0,0.0,0.0,0.0,0.0,0.0,0.0,0.0,0.0,0.0,0.0,0.0,0.0,0.0,0.0,0.0,0.0,0.0,0.0,0.0,0.0,0.0,0.0,0.0,0.0,0.0,0.0,0.0,0.0,0.0,0.0,0.0,0.0,0.0,0.0,0.0,0.0,0.0,0.0,0.0,0.0,0.0,0.0,0.0,0.0,0.0,-2.9993,-3.1085,-3.2403,-3.3124,-3.3124,-3.3124,-3.3124,-3.3124,-3.2315,-3.1286,0.0,0.0,0.0,0.0,0.0,0.0,0.0,0.0,0.0,0.0,0.0,0.0,0.0,0.0,0.0,0.0,0.0,0.0,0.0,0.0,0.0,0.0,0.0,0.0,0.0,0.0,0.0,0.0,-2.8652,-2.9185,-2.9109,0.0,0.0,0.0,0.0,0.0,0.0,0.0,0.0,0.0,0.0,-3.7405,-3.9005,-3.9512,0.0,0.0,-4.1694,-4.1965,-4.2252,-4.3183,-4.3166,-4.1119,-4.002,0.0,0.0,0.0,0.0,0.0,0.0,0.0,0.0,0.0,0.0,0.0,0.0,0.0,0.0,0.0,0.0,0.0,0.0,0.0,0.0,0.0,0.0,0.0,0.0,0.0,0.0,0.0,0.0,0.0,0.0,0.0,0.0,0.0,0.0,0.0,0.0,0.0,0.0,0.0,0.0,0.0,0.0,0.0,0.0,0.0,0.0,0.0,0.0,0.0,0.0,0.0,0.0,-3.0708,-3.1637,-3.2918,-3.3571,-3.3571,-3.342,-3.3332,-3.3307,-3.2767,-3.1964,0.0,0.0,0.0,0.0,0.0,0.0,0.0,0.0,0.0,0.0,0.0,0.0,0.0,0.0,0.0,0.0,0.0,0.0,0.0,0.0,0.0,0.0,0.0,0.0,0.0,0.0,0.0,0.0,-2.8944,-2.9376,-2.9362,0.0,0.0,0.0,0.0,0.0,0.0,0.0,0.0,0.0,0.0,-3.8268,-3.9588,-4.0155,-4.0772,-4.183,-4.1965,-4.2033,-4.2252,-4.2726,-4.2658,-4.1407,0.0,0.0,0.0,0.0,0.0,0.0,0.0,0.0,0.0,0.0,0.0,0.0,0.0,0.0,0.0,0.0,0.0,0.0,0.0,0.0,0.0,0.0,0.0,0.0,0.0,0.0,0.0,0.0,0.0,0.0,-2.6461,0.0,0.0,0.0,0.0,0.0,0.0,0.0,0.0,0.0,0.0,0.0,0.0,0.0,0.0,0.0,0.0,0.0,0.0,0.0,0.0,0.0,0.0,-3.1625,-3.2202,-3.3796,-3.463,-3.465,-3.4161,-3.3897,-3.3872,-3.3345,-3.2528,-3.1386,0.0,0.0,0.0,0.0,0.0,0.0,0.0,0.0,0.0,0.0,0.0,0.0,0.0,0.0,0.0,0.0,0.0,0.0,0.0,0.0,0.0,0.0,0.0,0.0,0.0,0.0,-2.769,-2.8357,-2.8991,0.0,0.0,0.0,0.0,0.0,0.0,0.0,0.0,0.0,0.0,-3.8152,-3.9775,-3.9174,-4.0257,-4.1187,-4.1288,-4.1271,-4.1491,-4.2185,-4.2303,-4.2066,0.0,0.0,0.0,0.0,0.0,0.0,0.0,0.0,0.0,0.0,0.0,0.0,0.0,0.0,0.0,0.0,0.0,0.0,0.0,0.0,0.0,0.0,0.0,0.0,0.0,0.0,0.0,-2.8988,-2.8913,0.0,0.0,0.0,0.0,0.0,0.0,0.0,0.0,0.0,0.0,0.0,-3.2252,-3.2252,0.0,0.0,0.0,0.0,0.0,0.0,0.0,0.0,0.0,0.0,0.0,0.0,-3.1662,-3.2252,-3.3859,-3.468,-3.4726,-3.455,-3.4449,-3.4449,-3.3909,-3.2918,-3.1436,0.0,0.0,0.0,0.0,0.0,0.0,0.0,0.0,0.0,0.0,0.0,0.0,0.0,0.0,0.0,0.0,0.0,0.0,0.0,0.0,0.0,0.0,0.0,0.0,0.0,-2.8959,0.0,0.0,0.0,0.0,0.0,0.0,0.0,0.0,0.0,0.0,0.0,-3.733,-3.7804,-3.8734,-3.9631,-4.0358,-4.0882,-4.1542,0.0,0.0,0.0,0.0,0.0,0.0,0.0,0.0,0.0,0.0,0.0,0.0,0.0,0.0,-4.095,-4.024,-4.0493,-4.0815,-4.0815,0.0,0.0,0.0,0.0,0.0,0.0,0.0,0.0,0.0,0.0,0.0,0.0,0.0,0.0,0.0,0.0,-3.0156,0.0,0.0,0.0,0.0,0.0,0.0,0.0,0.0,-3.2692,-3.3407,-3.3935,-3.3935,-3.3633,0.0,-3.288,-3.1775,0.0,0.0,0.0,0.0,0.0,0.0,0.0,0.0,-3.2252,-3.2842,-3.4437,-3.5303,-3.529,-3.5056,-3.4956,-3.4956,-3.4299,-3.3382,-3.2303,-3.1373,-3.0382,0.0,0.0,0.0,0.0,0.0,0.0,0.0,0.0,0.0,0.0,0.0,0.0,0.0,0.0,0.0,0.0,0.0,0.0,0.0,0.0,0.0,0.0,0.0,-3.0053,0.0,0.0,0.0,0.0,0.0,0.0,0.0,0.0,0.0,-3.5938,-3.7347,-3.8464,-3.8937,-3.9648,-4.0307,-4.0747,0.0,0.0,0.0,0.0,0.0,0.0,0.0,-4.1119,-4.0908,-4.1305,-4.1762,-4.1982,-4.2236,-4.2777,-4.3967,0.0,0.0,-4.2658,-4.276,-4.3108,-4.3098,-4.3081,-4.3098,-4.3098,-4.3108,-4.3108,0.0,0.0,0.0,0.0,0.0,0.0,0.0,0.0,-3.229,-3.2001,0.0,-3.2026,0.0,0.0,0.0,0.0,0.0,0.0,0.0,0.0,-3.555,-3.6044,-3.552,-3.5495,-3.5245,-3.4763,-3.4236,-3.3709,-3.3162,-3.2064,0.0,0.0,0.0,0.0,0.0,0.0,-3.3382,-3.3935,-3.555,-3.6392,-3.638,-3.5843,-3.552,-3.547,-3.4525,-3.3947,-3.3859,-3.2353,-3.1474,-3.1399,-2.9707,0.0,0.0,0.0,0.0,0.0,0.0,0.0,0.0,0.0,0.0,0.0,0.0,0.0,0.0,0.0,0.0,0.0,0.0,0.0,0.0,-3.0208,0.0,0.0,0.0,0.0,0.0,0.0,0.0,0.0,0.0,0.0,-3.6924,-3.8183,-3.9022,-3.9039,0.0,0.0,0.0,0.0,-4.1771,-4.0451,-4.0197,-4.0214,-4.0265,-4.0815,-4.1491,-4.2185,0.0,0.0,-4.5618,-4.5162,-4.4925,-4.5686,-4.638,-4.6413,-4.5021,-4.4801,-4.4801,-4.4801,-4.4835,-4.4739,-4.475,-4.4902,-4.4852,-3.3289,0.0,0.0,0.0,0.0,-3.2127,-3.2993,-3.3966,-3.3997,-3.3909,-3.3759,-3.352,0.0,0.0,0.0,0.0,0.0,0.0,-3.342,-3.4512,-3.5332,-3.5906,-3.6132,-3.6132,-3.6044,-3.5881,-3.5789,-3.5625,-3.5449,-3.5135,-3.3784,-3.1549,0.0,0.0,0.0,0.0,-3.3935,-3.4525,-3.5717,-3.6417,-3.6417,-3.6254,-3.5943,-3.5495,-3.5194,-3.4889,-3.4487,-3.3646,-3.2993,-3.2634,-3.1478,0.0,0.0,0.0,0.0,0.0,0.0,0.0,0.0,0.0,0.0,0.0,0.0,0.0,0.0,0.0,0.0,0.0,0.0,0.0,-3.0883,-3.1525,-3.1716,0.0,0.0,0.0,0.0,0.0,0.0,0.0,0.0,0.0,-3.9012,-3.952,-3.9791,0.0,0.0,-4.057,-4.0163,-4.0899,-4.1542,-4.1644,0.0,0.0,0.0,-4.2202,-4.2236,-4.298,-4.4384,-4.5788,-4.7073,-4.7107,-4.7192,-4.7902,-4.8223,-4.8223,-4.7868,-4.7733,-4.7699,-4.775,-4.7733,-4.775,-4.775,-4.7733,-4.7699,-3.5077,-3.3859,-3.3771,-3.352,-3.3269,-3.3822,-3.455,-3.5366,-3.5378,-3.5253,-3.4994,-3.4926,-3.4135,-3.2855,-3.2303,0.0,0.0,0.0,-3.4324,-3.5391,-3.5705,-3.6044,-3.6392,-3.6417,-3.6417,-3.6417,-3.6417,-3.6417,-3.6417,-3.6144,-3.5203,-3.3514,0.0,0.0,-3.2905,-3.3784,-3.4487,-3.5019,-3.5918,-3.6417,-3.6417,-3.6417,-3.6241,-3.5881,-3.5608,-3.5345,-3.5019,-3.4525,-3.3972,-3.342,-3.2765,-3.2154,0.0,0.0,0.0,0.0,0.0,0.0,0.0,0.0,0.0,0.0,0.0,-2.8498,0.0,0.0,0.0,0.0,-3.1539,-3.1973,-3.2647,-3.2602,0.0,0.0,0.0,0.0,0.0,0.0,0.0,-3.6571,-3.8173,-3.9546,-4.0409,-4.0807,-4.0993,-4.0976,-4.1221,-4.1305,-4.1027,0.0,-4.2134,-4.2269,-4.2303,-4.2455,-4.2895,-4.3098,-4.3639,-4.4964,-4.5928,-4.6955,-4.8105,-4.8342,-4.8511,-4.8883,-4.9018,-4.9018,-4.9018,-4.9018,-4.9018,-4.9018,-4.9018,-4.9018,-4.9018,-4.9018,-4.9018,-3.6417,-3.6317,-3.5265,-3.4806,-3.4901,-3.5345,-3.5906,-3.6405,-3.6405,-3.6069,-3.5608,-3.6144,-3.5563,-3.4073,-3.3558,0.0,-3.4851,-3.4851,-3.5391,-3.6405,-3.6417,-3.6417,-3.6417,-3.6417,-3.6417,-3.6417,-3.6417,-3.6417,-3.638,-3.5855,-3.5571,-3.5545,-3.5056,-3.4575,-3.4085,-3.4525,-3.5006,-3.5571,-3.6094,-3.6417,-3.6417,-3.6417,-3.6417,-3.6405,-3.5868,-3.5571,-3.5545,-3.5044,-3.4505,-3.4048,-3.3662,-3.3597,-3.3873,0.0,0.0,0.0,0.0,0.0,0.0,0.0,0.0,0.0,0.0,0.0,0.0,0.0,0.0,0.0,-3.323,0.0,-3.4459,-3.338,0.0,0.0,0.0,-3.3798,-3.5506,-3.6628,-3.7687,-3.8748,0.0,0.0,-4.1373,0.0,-4.2388,-4.2472,-4.298,-4.3064,-4.2388,-4.2895,-4.3139,-4.2506,-4.2455,-4.2523,-4.2895,-4.4005,-4.5517,-4.728,-4.7939,-4.8206,-4.8798,-4.8968,-4.8984,-4.9001,-4.9018,-4.9018,-4.9018,-4.9018,-4.9018,-4.9018,-4.9018,-4.9018,-4.9018,-4.9018,-4.9018,-3.6417,-3.6392,-3.6128,-3.5968,-3.5981,-3.6153,-3.6245,-3.6405,-3.6417,-3.6329,-3.6182,-3.6355,-3.6191,-3.5814,-3.5688,-3.5764,-3.6015,-3.6028,-3.6166,-3.6405,-3.6417,-3.6417,-3.6417,-3.6417,-3.6417,-3.6417,-3.6417,-3.6417,-3.6405,-3.6279,-3.6169,-3.6157,-3.6031,-3.5692,-3.5132,-3.5245,-3.5583,-3.6157,-3.6329,-3.6417,-3.6417,-3.6417,-3.6417,-3.6417,-3.6279,-3.6169,-3.6169,-3.5642,-3.5245,-3.5094,-3.4268,-3.4203,-3.5022,-3.3474,0.0,0.0,0.0,0.0,0.0,0.0,0.0,0.0,0.0,-3.0357,-3.0492,0.0,-3.2916,0.0,-3.4322,-3.4891,-3.4548,-3.4188,0.0,0.0,-3.4152,-3.4759,-3.554,-3.6988,-3.8294,-3.9347,-4.0403,-4.1533,-4.273,-4.3047,-4.3386,-4.3955,-4.3183,-4.2489,-4.2337,-4.2929,-4.3341,-4.325,-4.3656,-4.4231,-4.484,-4.6143,-4.7229,-4.7804,-4.8376,-4.8798,-4.8984,-4.9018,-4.9018,-4.9018,-4.9018,-4.9018,-4.9018,-4.9018,-4.9018,-4.9018,-4.9018,-4.9018,-4.9018,-4.9018,-4.9018,-3.7098,-3.7086,-3.687,-3.6769,-3.6744,-3.6505,-3.6417,-3.6417,-3.6417,-3.6417,-3.6417,-3.6417,-3.6417,-3.6417,-3.6417,-3.6417,-3.6417,-3.6417,-3.6417,-3.6417,-3.6417,-3.6417,-3.6417,-3.6417,-3.6417,-3.6417,-3.6417,-3.6417,-3.6417,-3.6417,-3.6417,-3.6417,-3.6417,-3.6267,-3.5918,-3.5906,-3.6069,-3.6405,-3.6417,-3.6417,-3.6417,-3.6417,-3.6304,-3.6006,-3.5994,-3.5881,-3.5642,-3.5341,-3.5019,-3.4801,-3.4312,-3.4504,-3.544,-3.4229,-3.386,0.0,0.0,0.0,0.0,0.0,0.0,0.0,0.0,0.0,0.0,0.0,-3.3964,0.0,-3.4607,-3.5011,-3.4936,-3.4698,-3.4625,-3.4913,-3.5337,-3.6085,-3.7385,-3.865,-3.9881,-4.121,-4.2087,-4.2931,-4.3821,-4.3944,-4.4079,-4.4564,-4.4147,-4.369,-4.3436,-4.3944,-4.4406,-4.4468,-4.5077,-4.5838,-4.6583,-4.7331,-4.8007,-4.8328,-4.8748,-4.9018,-4.9018,-4.9018,-4.9018,-4.9018,-4.9018,-4.9018,-4.9018,-4.9018,-4.9018,-4.9018,-4.9018,-4.9018,-4.9018,-4.9018,-4.9018,-3.8002,-3.7952,-3.7487,-3.7287,-3.7262,-3.682,-3.6531,-3.6417,-3.6417,-3.6417,-3.6417,-3.6417,-3.6417,-3.6417,-3.6417,-3.6417,-3.6417,-3.6417,-3.6417,-3.6417,-3.6417,-3.6417,-3.6417,-3.6417,-3.6417,-3.6417,-3.6417,-3.6417,-3.6417,-3.6417,-3.6417,-3.6417,-3.6417,-3.6417,-3.6417,-3.6417,-3.6417,-3.6417,-3.6417,-3.6417,-3.6417,-3.6342,-3.6031,-3.552,-3.5433,-3.5169,-3.4705,-3.468,-3.45,-3.4035,-3.4142,-3.4727,-3.5805,-3.4963,-3.4978,0.0,-3.5133,0.0,0.0,0.0,0.0,0.0,0.0,0.0,0.0,-3.5026,-3.4771,-3.4878,-3.4878,-3.51,-3.5684,-3.5205,-3.5325,-3.6462,-3.6671,-3.7529,-3.9455,-4.0466,-4.1551,-4.3059,-4.3934,-4.444,-4.4536,-4.4682,-4.4722,-4.4835,-4.5348,-4.5483,-4.5089,-4.5382,-4.5788,-4.5838,-4.6464,-4.7073,-4.7635,-4.7939,-4.8291,-4.8849,-4.8984,-4.9018,-4.9018,-4.9018,-4.9018,-4.9018,-4.9018,-4.9018,-4.9018,-4.9018,-4.9018,-4.9018,-4.9018,-4.9018,-4.9018,-4.9018,-4.9018,-3.8002,-3.8002,-3.7902,-3.7852,-3.7852,-3.7739,-3.7186,-3.6417,-3.6417,-3.6417,-3.6417,-3.6417,-3.6417,-3.6417,-3.6417,-3.6417,-3.6417,-3.6417,-3.6417,-3.6417,-3.6417,-3.6417,-3.6417,-3.6417,-3.6417,-3.6417,-3.6417,-3.6417,-3.6417,-3.6417,-3.6417,-3.6417,-3.6417,-3.6417,-3.6417,0.0,0.0,0.0,-3.6417,-3.6417,-3.6392,-3.5918,-3.5596,-3.5495,-3.5056,0.0,-3.4693,-3.468,-3.463,-3.4562,-3.4344,0.0,0.0,0.0,0.0,0.0,0.0,0.0,0.0,0.0,0.0,0.0,-3.5938,-3.5669,-3.5534,-3.5863,-3.6312,-3.6806,-3.6851,-3.6896,-3.703,-3.6941,-3.6971,-3.721,-3.7719,-3.8236,-3.8702,-3.9918,-4.1174,-4.2154,-4.3026,-4.3814,-4.4536,-4.5094,-4.5483,-4.5534,-4.6126,-4.6498,-4.6397,-4.6481,-4.6583,-4.665,-4.7259,-4.7733,-4.7855,-4.8379,-4.8781,-4.8984,-4.9018,-4.9018,-4.9018,-4.9018,-4.9018,-4.9018,-4.9018,-4.9018,-4.9018,-4.9018,-4.9018,-4.9018,-4.9018,-4.9018,-4.9018,-4.9018,-4.9018,-3.8831,0.0,-3.8542,-3.8442,0.0,-3.8128,-3.7688,-3.7149,-3.6933,-3.6656,-3.6417,-3.6417,-3.6417,-3.6417,-3.6417,-3.6417,-3.6417,-3.6417,-3.6417,-3.6417,-3.6417,-3.6417,-3.6417,-3.6417,-3.6417,-3.6417,-3.6417,-3.6417,-3.6417,-3.6417,-3.6417,-3.6417,-3.6417,-3.6417,-3.6417,-3.6417,-3.6417,-3.6417,-3.6417,-3.6417,-3.6392,-3.6094,-3.5818,-3.5508,0.0,0.0,0.0,0.0,0.0,0.0,0.0,0.0,0.0,0.0,0.0,-3.8477,-3.7729,-3.7099,-3.6956,-3.6926,-3.721,-3.7883,-3.7943,-3.7509,-3.6522,-3.7045,-3.7434,-3.7404,-3.7404,-3.7539,-3.7853,-3.7898,-3.8033,-3.8362,-3.8691,-3.9063,-3.9523,-4.0216,-4.1198,-4.2475,-4.3359,-4.4182,-4.5026,-4.5788,-4.621,-4.6278,-4.6887,-4.7344,-4.7344,-4.7361,-4.7445,-4.7817,-4.8156,-4.8443,-4.8477,-4.8714,-4.9018,-4.9001,-4.9018,-4.9018,-4.9018,-4.9018,-4.9018,-4.9018,-4.9018,-4.9018,-4.9018,-4.9018,-4.9018,-4.9018,-4.9018,-4.9018,-4.9018,-4.9018,-4.9018,-3.9697,-3.9659,-3.9207,-3.9019,-3.8981,-3.8504,-3.8241,-3.8115,0.0,0.0,0.0,-3.6694,-3.6694,-3.6694,-3.6694,-3.6694,-3.6646,-3.6707,-3.6707,-3.6694,-3.6694,-3.6707,-3.6694,-3.6694,-3.6707,-3.6694,-3.6694,-3.6694,-3.6694,-3.6694,-3.6644,-3.6568,-3.6556,-3.6518,-3.6417,-3.6417,-3.6417,-3.6417,-3.6417,-3.6417,-3.6417,-3.6317,-3.6006,-3.5495,-3.5395,-3.5144,-3.4705,-3.468,-3.468,-3.4726,-3.4951,-3.5885,-3.7514,-3.7483,-3.7952,-3.9275,-3.8896,-3.8624,-3.8736,-3.8631,-3.8826,-3.9343,-3.9388,-3.8945,-3.7838,-3.8257,-3.8347,-3.7808,-3.7764,-3.7988,-3.8527,-3.8571,-3.8796,-3.9328,-3.9388,-3.9747,-4.0497,-4.0808,-4.1563,-4.3145,-4.4105,-4.4912,-4.579,-4.6532,-4.6989,-4.7073,-4.7648,-4.8091,-4.8122,-4.8075,-4.8291,-4.8765,-4.8866,-4.8968,-4.9001,-4.8984,-4.9018,-4.9018,-4.9018,-4.9018,-4.9018,-4.9018,-4.9018,-4.9018,-4.9018,-4.9018,-4.9018,-4.9018,-4.9018,-4.9018,-4.9018,-4.9018,-4.9018,-4.9018,-4.9018,-3.971,-3.9685,-3.9609,-3.9572,-3.9572,-3.9496,-3.9195,-3.8718,-3.814,-3.7839,-3.7764,-3.7776,-3.7776,-3.7776,-3.7776,-3.7776,-3.7776,-3.7776,-3.7776,0.0,-3.7776,-3.7776,-3.7776,-3.7776,-3.7764,-3.7776,-3.7764,-3.7776,-3.7776,-3.7751,-3.755,-3.7172,-3.7073,-3.6883,-3.6443,-3.6417,-3.6417,-3.6417,-3.6417,-3.6417,-3.6405,-3.5906,-3.5583,-3.5483,-3.5056,-3.4813,-3.4693,-3.4693,-3.468,-3.4726,-3.4951,-3.623,-3.8554,-3.8422,-3.9306,-4.1588,-4.0763,-4.0113,-4.0113,-3.9604,-3.932,-3.9373,-3.9388,-3.9334,-3.917,-3.923,-3.923,-3.914,-3.9029,-3.917,-3.9275,-3.9275,-3.932,-3.9388,-3.9403,-3.9691,-4.0414,-4.1092,-4.2088,-4.3679,-4.4755,-4.5597,-4.643,-4.7263,-4.772,-4.7868,-4.8308,-4.8815,-4.8781,-4.8866,-4.8883,-4.8984,-4.9018,-4.9018,-4.9018,-4.9018,-4.9018,-4.9018,-4.9018,-4.9018,-4.9018,-4.9018,-4.9018,-4.9018,-4.9018,-4.9018,-4.9018,-4.9018,-4.9018,-4.9018,-4.9018,-4.9018,-4.9018,-4.9018,-4.9018,-4.0413,-4.0149,-4.0149,-3.9973,-3.9697,-3.9697,-3.9559,-3.9308,-3.9044,-3.8567,-3.8015,-3.8002,-3.8002,-3.8002,-3.8002,-3.8002,-3.8002,-3.8002,-3.8002,-3.8002,-3.8002,-3.8002,-3.8002,-3.8002,-3.8002,-3.8002,-3.8002,-3.8002,-3.8002,-3.8002,-3.7877,-3.7638,-3.7626,-3.75,-3.7274,-3.7262,-3.7111,-3.6857,-3.6556,-3.6417,-3.6405,-3.6119,-3.5994,-3.5981,-3.573,-3.5617,-3.5604,-3.5617,-3.5617,-3.5617,-3.5709,-3.6644,-3.8384,-3.8951,-3.9885,-4.1284,-4.1466,-4.1309,-4.0965,-4.0651,-4.0487,-4.0487,-4.0472,-4.0487,-4.0487,-3.9828,-3.9388,-3.9388,-3.9388,-3.9388,-3.9403,-3.9738,-3.9948,-3.9948,-4.0247,-4.0606,-4.0898,-4.124,-4.2011,-4.3235,-4.4497,-4.5636,-4.6516,-4.7729,-4.8463,-4.8545,-4.8832,-4.9018,-4.9018,-4.9018,-4.9018,-4.9018,-4.9018,-4.9018,-4.9018,-4.9018,-4.9018,-4.9018,-4.9018,-4.9018,-4.9018,-4.9018,-4.9018,-4.9018,-4.9018,-4.9018,-4.9018,-4.9018,-4.9018,-4.9018,-4.9018,-4.9018,-4.9018,-4.9018,-4.9018,-4.105,-4.0701,-4.0714,-4.045,-4.0074,-4.0061,-3.9998,-3.9885,-3.9873,-3.932,-3.8467,-3.8391,-3.8391,-3.8391,-3.8391,-3.8391,-3.8391,-3.8379,-3.8404,-3.8391,-3.8379,-3.8379,-3.8379,-3.8379,-3.8391,-3.8391,-3.8391,-3.8391,-3.8391,-3.8391,-3.8316,-3.8203,-3.8078,-3.8002,-3.8002,-3.8002,-3.7801,-3.7362,-3.6935,-3.6609,-3.6417,-3.6417,-3.6417,-3.6417,-3.6405,-3.6417,-3.6417,-3.6417,-3.6417,-3.6417,-3.6417,-3.7023,-3.8424,-3.936,-4.0279,-4.1128,-4.1957,-4.2111,-4.1497,-4.1422,-4.1422,-4.1422,-4.1422,-4.1422,-4.1332,-4.0472,-3.9858,-3.9858,-3.9933,-3.9903,-3.9978,-4.0307,-4.0621,-4.0651,-4.1055,-4.1399,-4.1564,-4.1632,-4.207,-4.3102,-4.435,-4.5458,-4.642,-4.7747,-4.8668,-4.8889,-4.9018,-4.9018,-4.9018,-4.9018,-4.9018,-4.9018,-4.9018,-4.9018,-4.9018,-4.9018,-4.9018,-4.9018,-4.9018,-4.9018,-4.9018,-4.9018,-4.9018,-4.9018,-4.9018,-4.9018,-4.9018,-4.9018,-4.9018,-4.9018,-4.9018,-4.9018,-4.9018,-4.9018,-4.9018,-4.1263,-4.1213,-4.12,-4.1188,-4.11,-4.11,-4.0877,-4.0463,-4.0438,-4.0111,-3.9572,-3.9534,-3.9509,-3.9534,-3.9496,-3.9471,-3.9496,-3.9534,-3.9509,-3.9496,-3.9534,-3.9534,-3.9471,-3.9509,-3.9534,-3.9509,-3.9484,-3.9433,-3.9446,-3.9484,-3.9283,-3.8781,-3.8278,-3.804,-3.8027,-3.8027,-3.8002,-3.7927,-3.7877,-3.7374,-3.648,-3.6417,-3.6417,-3.6417,-3.6417,-3.6417,-3.6417,-3.6417,-3.6417,-3.6417,-3.6417,-3.7381,-3.9373,-3.9842,-4.0817,-4.2782,-4.2608,-4.2111,-4.1527,-4.1422,-4.1482,-4.1422,-4.1482,-4.1497,-4.1482,-4.1309,-4.119,-4.119,-4.119,-4.1138,-4.1205,-4.1272,-4.1332,-4.1294,-4.1414,-4.1632,-4.2186,-4.2306,-4.2901,-4.4452,-4.466,-4.5191,-4.6064,-4.714,-4.808,-4.875,-4.897,-4.9018,-4.9018,-4.9018,-4.9018,-4.9018,-4.9018,-4.9018,-4.9018,-4.9018,-4.9018,-4.9018,-4.9018,-4.9018,-4.9018,-4.9018,-4.9018,-4.9018,-4.9018,-4.9018,-4.9018,-4.9018,-4.9018,-4.9018,-4.9018,-4.9018,-4.9018,-4.9018,-4.9018,-4.2108,-4.1819,-4.1819,-4.163,-4.13,-4.1275,-4.1163,-4.0962,-4.0949,-4.0811,-4.0639,-4.0325,-3.9998,-3.971,-3.9697,-3.9697,-3.9697,-3.9697,-3.9697,-3.9697,-3.9697,-3.9697,-3.9697,-3.9697,-3.9697,-3.9697,-3.9697,-3.9697,-3.9697,-3.9697,-3.9572,-3.9371,-3.9107,-3.9007,-3.9007,-3.9007,-3.8856,-3.8517,-3.8517,-3.8128,-3.74,-3.701,-3.6732,-3.6443,-3.6417,-3.6417,-3.6417,-3.6417,-3.6417,-3.6417,-3.6417,-3.7116,-3.8738,-3.9505,-4.0632,-4.2138,-4.2703,-4.2821,-4.2566,-4.2536,-4.2536,-4.2536,-4.2536,-4.2536,-4.2536,-4.2536,-4.2536,-4.2447,-4.1848,-4.1422,-4.1467,-4.1767,-4.2006,-4.2051,-4.2297,-4.2641,-4.2895,-4.294,-4.3241,-4.3897,-4.445,-4.4909,-4.5488,-4.6678,-4.7655,-4.8225,-4.8593,-4.894,-4.9001,-4.9018,-4.9018,-4.9018,-4.9018,-4.9018,-4.9018,-4.9018,-4.9018,-4.9018,-4.9018,-4.9018,-4.9018,-4.9018,-4.9018,-4.9018,-4.9018,-4.9018,-4.9018,-4.9018,-4.9018,-4.9018,-4.9018,-4.9018,-4.9018,-4.9018,-4.9018,-4.2748,-4.2464,-4.2439,-4.2158,-4.1794,-4.1781,-4.1693,-4.1568,-4.1501,-4.1492,-4.125,-4.0849,-4.0538,-4.0136,-3.9835,-3.9697,-3.9697,-3.9697,-3.9697,-3.9697,-3.9697,-3.9697,-3.9697,-3.9697,-3.9697,-3.9697,-3.9697,-3.9697,-3.9697,-3.9697,-3.9697,-3.9697,-3.9697,-3.9697,-3.9697,-3.9697,-3.9509,-3.9145,-3.9094,-3.8818,-3.8266,-3.7852,-3.736,-3.6707,-3.648,-3.6417,-3.6417,-3.6417,-3.6417,-3.6417,-3.6417,-3.707,-3.8514,-3.9448,-4.0532,-4.1947,-4.282,-4.3305,-4.3305,-4.3305,-4.3305,-4.3305,-4.3305,-4.3305,-4.3305,-4.3305,-4.3305,-4.32,-4.2476,-4.1953,-4.1983,-4.2357,-4.2596,-4.2695,-4.309,-4.329,-4.329,-4.3305,-4.3275,-4.3369,-4.3927,-4.4526,-4.4909,-4.5957,-4.69,-4.7605,-4.8193,-4.8781,-4.894,-4.9018,-4.9018,-4.9018,-4.9018,-4.9018,-4.9018,-4.9018,-4.9018,-4.9018,-4.9018,-4.9018,-4.9018,-4.9018,-4.9018,-4.9018,-4.9018,-4.9018,-4.9018,-4.9018,-4.9018,-4.9018,-4.9018,-4.9018,-4.9018,-4.9018,-4.9018,-4.3017,-4.2936,-4.2936,-4.2886,-4.2886,-4.2861,-4.264,-4.2175,-4.2175,-4.1844,-4.1401,-4.1329,-4.1225,-4.1112,-4.0237,-3.9722,-3.971,-3.9735,-3.9722,-3.9697,-3.9697,-3.9697,-3.9697,-3.9697,-3.9697,-3.9697,-3.9697,-3.9697,-3.9697,-3.9697,-3.9697,-3.9697,-3.9697,-3.9697,-3.9697,-3.9697,-3.9685,-3.9609,-3.9609,-3.9371,-3.8957,-3.8844,-3.8216,-3.7262,-3.6694,-3.6455,-3.643,-3.6417,-3.6417,-3.6417,-3.6417,-3.7381,-3.9448,-3.9855,-4.093,-4.286,-4.325,-4.3305,-4.3305,-4.3305,-4.3305,-4.3305,-4.3305,-4.3305,-4.3305,-4.3305,-4.3305,-4.329,-4.3155,-4.308,-4.3065,-4.3065,-4.317,-4.3185,-4.3245,-4.3305,-4.3305,-4.3305,-4.3305,-4.3305,-4.3409,-4.381,-4.4624,-4.4834,-4.585,-4.6968,-4.7589,-4.7982,-4.8688,-4.894,-4.9018,-4.9018,-4.9018,-4.9018,-4.9018,-4.9018,-4.9018,-4.9018,-4.9018,-4.9018,-4.9018,-4.9018,-4.9018,-4.9018,-4.9018,-4.9018,-4.9018,-4.9018,-4.9018,-4.9018,-4.9018,-4.9018,-4.9018,-4.9018,-4.9018,-4.2986,-4.2986,-4.2986,-4.2986,-4.2986,-4.2986,-4.2861,-4.2753,-4.2728,-4.2572,-4.2346,-4.202,-4.1856,-4.1806,-4.1091,-4.0551,-4.0249,-4.0224,-4.0036,-3.9735,-3.9697,-3.9697,-3.9697,-3.9697,-3.9697,-3.9697,-3.9697,-3.9697,-3.9697,-3.9697,-3.9697,-3.9697,-3.9697,-3.9697,-3.9697,-3.9697,-3.9697,-3.9697,-3.9697,-3.9597,-3.9358,-3.9095,-3.8655,-3.8303,-3.7362,-3.6885,-3.6933,-3.6606,-3.6417,-3.6417,-3.6417,-3.7116,-3.8649,-4.0175,-4.1643,-4.3076,-4.3305,-4.3305,-4.3305,-4.3305,-4.3305,-4.3305,-4.3305,-4.3305,-4.3305,-4.3305,-4.3305,-4.3305,-4.3305,-4.3305,-4.3305,-4.3305,-4.3305,-4.3305,-4.3305,-4.3305,-4.3305,-4.3305,-4.3305,-4.3305,-4.3305,-4.3472,-4.3849,-4.4396,-4.5058,-4.5758,-4.6815,-4.7655,-4.808,-4.8576,-4.9018,-4.9018,-4.9018,-4.9018,-4.9018,-4.9018,-4.9018,-4.9018,-4.9018,-4.9018,-4.9018,-4.9018,-4.9018,-4.9018,-4.9018,-4.9018,-4.9018,-4.9018,-4.9018,-4.9018,-4.9018,-4.9018,-4.9018,-4.9018,-4.9018,-4.2986,-4.2986,-4.2986,-4.2986,-4.2986,-4.2986,-4.2986,-4.2986,-4.2986,-4.2986,-4.2898,-4.2572,-4.2464,-4.2426,-4.2045,-4.1568,-4.1053,-4.0877,-4.0523,-4.0237,-4.0049,-3.9961,-3.9923,-3.9772,-3.9697,-3.9697,-3.9697,-3.9697,-3.9697,-3.9697,-3.9697,-3.9697,-3.9697,-3.9697,-3.9697,-3.9697,-3.9697,-3.9697,-3.9697,-3.9697,-3.9647,-3.9333,-3.9196,-3.9007,-3.8216,-3.7586,-3.7211,-3.687,-3.6581,-3.6443,-3.6417,-3.693,-3.8153,-4.0319,-4.1932,-4.2684,-4.313,-4.3305,-4.3305,-4.3305,-4.3305,-4.3305,-4.3305,-4.3305,-4.3305,-4.3305,-4.3305,-4.3305,-4.3305,-4.3305,-4.3305,-4.3305,-4.3305,-4.3305,-4.3305,-4.3305,-4.3305,-4.3305,-4.3305,-4.3305,-4.3305,-4.3305,-4.3369,-4.3912,-4.4396,-4.4752,-4.6205,-4.7138,-4.7622,-4.837,-4.9018,-4.9018,-4.9018,-4.9018,-4.9018,-4.9018,-4.9018,-4.9018,-4.9018,-4.9018,-4.9018,-4.9018,-4.9018,-4.9018,-4.9018,-4.9018,-4.9018,-4.9018,-4.9018,-4.9018,-4.9018,-4.9018,-4.9018,-4.9018,-4.9018,-4.2986,-4.2986,-4.2986,-4.2986,-4.2986,-4.2986,-4.2986,-4.2986,-4.2986,-4.2986,-4.2961,-4.2936,-4.2886,-4.2924,-4.2811,-4.2652,-4.207,-4.163,-4.1275,-4.11,-4.0686,-4.0526,-4.0501,-4.0023,-3.9735,-3.9697,-3.9697,-3.9697,-3.9697,-3.9697,-3.9697,-3.9697,-3.9697,-3.9697,-3.9697,-3.9697,-3.9697,-3.9697,-3.9697,-3.9697,-3.9697,-3.9647,-3.9609,-3.9584,-3.9094,-3.8391,-3.7337,-3.7186,-3.6958,-3.6518,-3.643,-3.6943,-3.8289,-4.0161,-4.1545,-4.1947,-4.2725,-4.321,-4.3305,-4.3305,-4.3305,-4.3305,-4.3305,-4.3305,-4.3305,-4.3305,-4.3305,-4.3305,-4.3305,-4.3305,-4.3305,-4.3305,-4.3305,-4.3305,-4.3305,-4.3305,-4.3305,-4.3305,-4.3305,-4.3305,-4.3305,-4.3305,-4.3305,-4.3409,-4.3771,-4.4571,-4.5525,-4.6504,-4.7273,-4.8161,-4.8829,-4.9018,-4.9018,-4.9018,-4.9018,-4.9018,-4.9018,-4.9018,-4.9018,-4.9018,-4.9018,-4.9018,-4.9018,-4.9018,-4.9018,-4.9018,-4.9018,-4.9018,-4.9018,-4.9018,-4.9018,-4.9018,-4.9018,-4.9018,-4.9018,-4.2986,-4.2986,-4.2986,-4.2986,-4.2986,-4.2986,-4.2986,-4.2986,-4.2986,-4.2986,-4.2986,-4.2986,-4.2986,-4.2986,-4.2986,-4.2886,-4.271,-4.2509,-4.207,-4.1363,-4.1112,-4.1091,-4.0978,-4.0513,-4.0061,-3.9747,-3.9697,-3.9697,-3.9697,-3.9697,-3.9697,-3.9697,-3.9697,-3.9697,-3.9697,-3.9697,-3.9697,-3.9697,-3.9697,-3.9697,-3.9697,-3.9697,-3.9697,-3.9685,-3.9521,-3.9069,-3.8429,-3.7613,-3.7123,-3.6971,-3.6606,-3.7289,-3.8917,-3.9214,-4.0333,-4.2371,-4.229,-4.2563,-4.321,-4.3305,-4.3305,-4.3305,-4.3305,-4.3305,-4.3305,-4.3305,-4.3305,-4.3305,-4.3305,-4.3305,-4.3305,-4.3305,-4.3305,-4.3305,-4.3305,-4.3305,-4.3305,-4.3305,-4.3305,-4.3305,-4.3305,-4.3305,-4.3305,-4.3305,-4.3448,-4.381,-4.4668,-4.5649,-4.6504,-4.744,-4.8321,-4.8829,-4.8909,-4.897,-4.9018,-4.9018,-4.9018,-4.9018,-4.9018,-4.9018,-4.9018,-4.9018,-4.9018,-4.9018,-4.9018,-4.9018,-4.9018,-4.9018,-4.9018,-4.9018,-4.9018,-4.9018,-4.9018,-4.9018,-4.9018,-4.3288,-4.3263,-4.3062,-4.2986,-4.2986,-4.2986,-4.2986,-4.2986,-4.2986,-4.2986,-4.2986,-4.2986,-4.2986,-4.2986,-4.2986,-4.2986,-4.2986,-4.2986,-4.2597,-4.1969,-4.1706,-4.1643,-4.1568,-4.1078,-4.0526,-4.0099,-3.9998,-3.9885,-3.9697,-3.9697,-3.9697,-3.9697,-3.9697,-3.9697,-3.9697,-3.9697,-3.9697,-3.9697,-3.9697,-3.9697,-3.9697,-3.9697,-3.9697,-3.9697,-3.9697,-3.9509,-3.9132,-3.8278,-3.7613,-3.7235,-3.6707,-3.7361,-3.8961,-3.859,-3.9464,-4.1767,-4.2167,-4.2126,-4.313,-4.3305,-4.3305,-4.3305,-4.3305,-4.3305,-4.3305,-4.3305,-4.3305,-4.3305,-4.3305,-4.3305,-4.3305,-4.3305,-4.3305,-4.3305,-4.3305,-4.3305,-4.3305,-4.3305,-4.3305,-4.3305,-4.3305,-4.3305,-4.3305,-4.3305,-4.3305,-4.3448,-4.4182,-4.4924,-4.5706,-4.6504,-4.7423,-4.8161,-4.8338,-4.8545,-4.894,-4.9018,-4.9018,-4.9018,-4.9018,-4.9018,-4.9018,-4.9018,-4.9018,-4.9018,-4.9018,-4.9018,-4.9018,-4.9018,-4.9018,-4.9018,-4.9018,-4.9018,-4.9018,-4.9018,-4.9018,-4.3827,-4.3727,-4.325,-4.3024,-4.2986,-4.2986,-4.2986,-4.2986,-4.2986,-4.2986,-4.2986,-4.2986,-4.2986,-4.2986,-4.2986,-4.2986,-4.2986,-4.2986,-4.2949,-4.2735,-4.2476,-4.2238,-4.1995,-4.1593,-4.104,-4.0526,-4.045,-4.0199,-3.9722,-3.9697,-3.9697,-3.9697,-3.9697,-3.9697,-3.9697,-3.9697,-3.9697,-3.9697,-3.9697,-3.9697,-3.9697,-3.9697,-3.9697,-3.9697,-3.9697,-3.9672,-3.9534,-3.9007,-3.8241,-3.7299,-3.6769,-3.7079,-3.7906,-3.8107,-3.92,-4.1504,-4.1629,-4.2193,-4.2996,-4.3305,-4.3305,-4.3305,-4.3305,-4.3305,-4.3305,-4.3305,-4.3305,-4.3305,-4.3305,-4.3305,-4.3305,-4.3305,-4.3305,-4.3305,-4.3305,-4.3305,-4.3305,-4.3305,-4.3305,-4.3305,-4.3305,-4.3305,-4.3305,-4.3305,-4.3305,-4.3448,-4.4082,-4.451,-4.5058,-4.5742,-4.6488,-4.702,-4.7489,-4.7933,-4.8289,-4.8482,-4.8545,-4.9018,-4.9001,-4.897,-4.9001,-4.9018,-4.9018,-4.9018,-4.9018,-4.9018,-4.9018,-4.9018,-4.9018,-4.9018,-4.9018,-4.9018,-4.9018,-4.9018,-4.9018,-4.4166,-4.379,-4.3639,-4.335,-4.3011,-4.2986,-4.2986,-4.2986,-4.2986,-4.2986,-4.2986,-4.2986,-4.2986,-4.2986,-4.2986,-4.2986,-4.2986,-4.2986,-4.2986,-4.2961,-4.2848,-4.2577,-4.2275,-4.2074,-4.1442,-4.0689,-4.0576,-4.0224,-3.9735,-3.971,-3.9697,-3.9697,-3.9697,-3.9697,-3.9697,-3.9697,-3.9697,-3.9697,-3.9697,-3.9697,-3.9697,-3.9697,-3.9697,-3.9697,-3.9697,-3.9697,-3.9647,-3.9157,-3.8354,-3.7299,-3.7073,-3.7304,-3.7991,-3.8107,-3.9156,-4.1112,-4.1629,-4.2097,-4.3021,-4.3305,-4.3305,-4.3305,-4.3305,-4.3305,-4.3305,-4.3305,-4.3305,-4.3305,-4.3305,-4.3305,-4.3305,-4.3305,-4.3305,-4.3305,-4.3305,-4.3305,-4.3305,-4.3305,-4.3305,-4.3305,-4.3305,-4.3305,-4.3305,-4.3305,-4.3305,-4.3369,-4.3591,-4.4004,-4.451,-4.4834,-4.5473,-4.6138,-4.6678,-4.7155,-4.7556,-4.7803,-4.8193,-4.8861,-4.897,-4.894,-4.897,-4.9018,-4.9018,-4.9018,-4.9018,-4.9018,-4.9018,-4.9018,-4.9018,-4.9018,-4.9018,-4.9018,-4.9018,-4.9018,-4.9018,-4.4807,-4.4455,-4.4003,-4.3614,-4.33,-4.3074,-4.2986,-4.2986,-4.2986,-4.2986,-4.2986,-4.2986,-4.2986,-4.2986,-4.2986,-4.2986,-4.2986,-4.2986,-4.2986,-4.2986,-4.2961,-4.2798,-4.2615,-4.2539,-4.2099,-4.1266,-4.0965,-4.0563,-4.0086,-3.9823,-3.971,-3.9697,-3.9697,-3.9697,-3.9697,-3.9697,-3.9697,-3.9697,-3.9697,-3.9697,-3.9697,-3.9697,-3.9697,-3.9697,-3.9697,-3.9697,-3.9647,-3.9383,-3.8693,-3.7751,-3.7348,-3.747,-3.8018,-3.8107,-3.92,-4.1364,-4.1587,-4.2111,-4.3036,-4.3305,-4.3305,-4.3305,-4.3305,-4.3305,-4.3305,-4.3305,-4.3305,-4.3305,-4.3305,-4.3305,-4.3305,-4.3305,-4.3305,-4.3305,-4.3305,-4.3305,-4.3305,-4.3305,-4.3305,-4.3305,-4.3305,-4.3305,-4.3305,-4.3305,-4.3305,-4.3305,-4.3344,-4.3669,-4.3989,-4.4167,-4.4457,-4.5196,-4.5726,-4.6103,-4.6627,-4.6918,-4.7138,-4.7836,-4.8545,-4.8576,-4.8829,-4.8909,-4.9018,-4.9018,-4.9018,-4.9018,-4.9018,-4.9018,-4.9018,-4.9018,-4.9018,-4.9018,-4.9018,-4.9018,-4.9018,-4.5535,-4.5384,-4.433,-4.3853,-4.3702,-4.3212,-4.2986,-4.2986,-4.2986,-4.2986,-4.2986,-4.2986,-4.2986,-4.2986,-4.2986,-4.2986,-4.2986,-4.2986,-4.2986,-4.2986,-4.2986,-4.2924,-4.2898,-4.2873,-4.2472,-4.1856,-4.1517,-4.094,-4.0325,-3.9848,-3.9722,-3.9697,-3.9697,-3.9697,-3.9697,-3.9697,-3.9697,-3.9697,-3.9697,-3.9697,-3.9697,-3.9697,-3.9697,-3.9697,-3.9697,-3.9697,-3.9697,-3.9597,-3.912,-3.8027,-3.7525,-3.7512,-3.7913,-3.7926,-3.9112,-4.0887,-4.1504,-4.2111,-4.3076,-4.3305,-4.3305,-4.3305,-4.3305,-4.3305,-4.3305,-4.3305,-4.3305,-4.3305,-4.3305,-4.3305,-4.3305,-4.3305,-4.3305,-4.3305,-4.3305,-4.3305,-4.3305,-4.3305,-4.3305,-4.3305,-4.3305,-4.3305,-4.3305,-4.3305,-4.3305,-4.3305,-4.3305,-4.3448,-4.3591,-4.3669,-4.3966,-4.4434,-4.4781,-4.5026,-4.5545,-4.6032,-4.6244,-4.6643,-4.7589,-4.8015,-4.8513,-4.8719,-4.8909,-4.9018,-4.9018,-4.9018,-4.9018,-4.9018,-4.9018,-4.9018,-4.9018,-4.9018,-4.9018,-4.9018,-4.9018,-4.5886,-4.5422,-4.4744,-4.4204,-4.3752,-4.3225,-4.2986,-4.2986,-4.2986,-4.2986,-4.2986,-4.2986,-4.2986,-4.2986,-4.2986,-4.2986,-4.2986,-4.2986,-4.2986,-4.2986,-4.2986,-4.2986,-4.2974,-4.2961,-4.2434,-4.1756,-4.1376,-4.0774,-4.0086,-3.9835,-3.9697,-3.9697,-3.9697,-3.9697,-3.9697,-3.9697,-3.9697,-3.9697,-3.9697,-3.9697,-3.9697,-3.9697,-3.9697,-3.9697,-3.9697,-3.9697,-3.9697,-3.9697,-3.9145,-3.8291,-3.7888,-3.7531,-3.7147,-3.7678,-3.8827,-4.0131,-4.1253,-4.2111,-4.3021,-4.3305,-4.3305,-4.3305,-4.3305,-4.3305,-4.3305,-4.3305,-4.3305,-4.3305,-4.3305,-4.3305,-4.3305,-4.3305,-4.3305,-4.3305,-4.3305,-4.3305,-4.3305,-4.3305,-4.3305,-4.3305,-4.3305,-4.3305,-4.3305,-4.3305,-4.3305,-4.3305,-4.3305,-4.3305,-4.3305,-4.3305,-4.3566,-4.3966,-4.4028,-4.4266,-4.4668,-4.5159,-4.54,-4.569,-4.6539,-4.7306,-4.7803,-4.8482,-4.8688,-4.8861,-4.9018,-4.9018,-4.9018,-4.9018,-4.9018,-4.9018,-4.9018,-4.9018,-4.9018,-4.9018,-4.9018,-4.5987,-4.5434,-4.4869,-4.4305,-4.3765,-4.3225,-4.2986,-4.2986,-4.2986,-4.2986,-4.2986,-4.2986,-4.2986,-4.2986,-4.2986,-4.2986,-4.2986,-4.2986,-4.2986,-4.2986,-4.2986,-4.2986,-4.2886,-4.2753,-4.2221,-4.1693,-4.1388,-4.0799,-4.0237,-3.9823,-3.9697,-3.9697,-3.9697,-3.9697,-3.9697,-3.9697,-3.9697,-3.9697,-3.9697,-3.9697,-3.9697,-3.9697,-3.9697,-3.9697,-3.9697,-3.9697,-3.9697,-3.9697,-3.9069,-3.8316,-3.7977,-3.75,-3.6821,-3.7507,-3.8649,-3.9798,-4.0958,-4.2111,-4.2981,-4.3305,-4.3305,-4.3305,-4.3305,-4.3305,-4.3305,-4.3305,-4.3305,-4.3305,-4.3305,-4.3305,-4.3305,-4.3305,-4.3305,-4.3305,-4.3305,-4.3305,-4.3305,-4.3305,-4.3305,-4.3305,-4.3305,-4.3305,-4.3305,-4.3305,-4.3305,-4.3305,-4.3305,-4.3305,-4.3305,-4.3305,-4.3305,-4.3488,-4.3409,-4.3551,-4.3888,-4.4243,-4.4555,-4.4968,-4.5577,-4.626,-4.6815,-4.7622,-4.845,-4.8656,-4.8861,-4.9001,-4.9018,-4.9018,-4.9018,-4.9018,-4.9018,-4.9018,-4.9018,-4.9018,-4.9018,-4.5912,-4.5422,-4.4769,-4.4229,-4.3752,-4.3225,-4.2986,-4.2986,-4.2986,-4.2986,-4.2986,-4.2986,-4.2986,-4.2986,-4.2986,-4.2986,-4.2986,-4.2986,-4.2986,-4.2986,-4.2986,-4.2886,-4.2778,-4.2451,-4.2074,-4.1949,-4.1379,-4.0827,-4.0312,-3.9961,-3.971,-3.9697,-3.9697,-3.9697,-3.9697,-3.9697,-3.9697,-3.9697,-3.9697,-3.9697,-3.9697,-3.9697,-3.9697,-3.9697,-3.9697,-3.9697,-3.9697,-3.9622,-3.917,-3.8115,-3.8002,-3.74,-3.6991,-3.7461,-3.8649,-3.9855,-4.1,-4.2111,-4.3036,-4.3305,-4.3305,-4.3305,-4.3305,-4.3305,-4.3305,-4.3305,-4.3305,-4.3305,-4.3305,-4.3305,-4.3305,-4.3305,-4.3305,-4.3305,-4.3305,-4.3305,-4.3305,-4.3305,-4.3305,-4.3305,-4.3305,-4.3305,-4.3305,-4.3305,-4.3305,-4.3305,-4.3305,-4.3305,-4.3305,-4.3305,-4.3305,-4.3305,-4.3305,-4.3305,-4.3591,-4.3708,-4.3989,-4.432,-4.4834,-4.5358,-4.5941,-4.6747,-4.7589,-4.8433,-4.8719,-4.8861,-4.897,-4.9018,-4.9018,-4.9018,-4.9018,-4.9018,-4.9018,-4.9018,-4.9018,-4.5573,-4.5397,-4.4367,-4.3878,-4.3714,-4.3212,-4.2986,-4.2986,-4.2986,-4.2986,-4.2986,-4.2986,-4.2986,-4.2986,-4.2986,-4.2986,-4.2986,-4.2986,-4.2986,-4.2974,-4.2924,-4.2803,-4.2426,-4.2112,-4.1685,-4.0965,-4.0651,-4.0375,-3.9998,-3.9735,-3.9697,-3.9697,-3.9697,-3.9697,-3.9697,-3.9697,-3.9697,-3.9697,-3.9697,-3.9697,-3.9697,-3.9697,-3.9697,-3.9697,-3.9697,-3.9697,-3.9685,-3.9634,-3.917,-3.8153,-3.8015,-3.7387,-3.6893,-3.7507,-3.8649,-3.9798,-4.0831,-4.1906,-4.3036,-4.3305,-4.3305,-4.3305,-4.3305,-4.3305,-4.3305,-4.3305,-4.3305,-4.3305,-4.3305,-4.3305,-4.3305,-4.3305,-4.3305,-4.3305,-4.3305,-4.3305,-4.3305,-4.3305,-4.3305,-4.3305,-4.3305,-4.3305,-4.3305,-4.3305,-4.3305,-4.3305,-4.3305,-4.3305,-4.3305,-4.3305,-4.3305,-4.3305,-4.3305,-4.3305,-4.3369,-4.3409,-4.3512,-4.3771,-4.4182,-4.4624,-4.5211,-4.5905,-4.6678,-4.7523,-4.8353,-4.8781,-4.8892,-4.897,-4.9018,-4.9018,-4.9018,-4.9018,-4.9018,-4.9018,-4.9018,-4.4869,-4.4568,-4.4016,-4.3639,-4.3363,-4.3099,-4.2986,-4.2986,-4.2986,-4.2986,-4.2986,-4.2986,-4.2986,-4.2986,-4.2986,-4.2986,-4.2986,-4.2986,-4.2986,-4.2949,-4.274,-4.2502,-4.2049,-4.1618,-4.1065,-4.0551,-4.0249,-3.9998,-3.9722,-3.9697,-3.9697,-3.9697,-3.9697,-3.9697,-3.9697,-3.9697,-3.9697,-3.9697,-3.9697,-3.9697,-3.9697,-3.9697,-3.9697,-3.9697,-3.9685,-3.9697,-3.9634,-3.9358,-3.8881,-3.8128,-3.7739,-3.7149,-3.6975,-3.7461,-3.859,-3.9724,-4.0461,-4.156,-4.2915,-4.3305,-4.3305,-4.3305,-4.3305,-4.3305,-4.3305,-4.3305,-4.3305,-4.3305,-4.3305,-4.3305,-4.3305,-4.3305,-4.3305,-4.3305,-4.3305,-4.3305,-4.3305,-4.3305,-4.3305,-4.3305,-4.3305,-4.3305,-4.3305,-4.3305,-4.3305,-4.3305,-4.3305,-4.3305,-4.3305,-4.3305,-4.3305,-4.3305,-4.3305,-4.3305,-4.3305,-4.3305,-4.3305,-4.3448,-4.363,-4.4043,-4.4396,-4.4989,-4.5782,-4.6662,-4.7473,-4.8129,-4.8892,-4.9018,-4.9018,-4.9018,-4.9018,-4.9018,-4.9018,-4.9018,-4.9018,-4.4192,-4.379,-4.3689,-4.3388,-4.3024,-4.2986,-4.2986,-4.2986,-4.2986,-4.2986,-4.2986,-4.2986,-4.2986,-4.2986,-4.2986,-4.2986,-4.2986,-4.2986,-4.2911,-4.274,-4.2451,-4.2162,-4.1568,-4.1078,-4.0475,-4.0237,-3.9973,-3.9697,-3.9697,-3.9697,-3.9697,-3.9697,-3.9697,-3.9697,-3.9697,-3.9697,-3.9697,-3.9697,-3.9697,-3.9697,-3.9697,-3.9697,-3.9697,-3.9659,-3.9597,-3.9496,-3.9421,-3.8956,-3.8429,-3.7864,-3.7412,-3.6935,-3.666,-3.7243,-3.8302,-3.9329,-3.9724,-4.1057,-4.2263,-4.29,-4.29,-4.325,-4.3305,-4.3305,-4.3305,-4.3305,-4.3305,-4.3305,-4.3305,-4.3305,-4.3305,-4.3305,-4.3305,-4.3305,-4.3305,-4.3305,-4.3305,-4.3305,-4.3305,-4.3305,-4.3305,-4.3305,-4.3305,-4.3305,-4.3305,-4.3305,-4.3305,-4.3305,-4.3305,-4.3305,-4.3305,-4.3305,-4.3305,-4.3305,-4.3305,-4.3305,-4.3305,-4.3369,-4.3409,-4.3591,-4.3786,-4.4066,-4.4915,-4.5798,-4.6224,-4.69,-4.795,-4.9001,-4.9018,-4.9018,-4.9018,-4.9018,-4.9018,-4.9018,-4.9018,-4.3853,-4.3752,-4.3288,-4.3049,-4.2986,-4.2986,-4.2986,-4.2986,-4.2986,-4.2986,-4.2986,-4.2986,-4.2986,-4.2986,-4.2986,-4.2986,-4.2949,-4.2886,-4.2635,-4.2338,-4.2099,-4.1543,-4.0877,-4.0651,-4.0212,-3.9961,-3.9772,-3.971,-3.9697,-3.9697,-3.9697,-3.9697,-3.9697,-3.9697,-3.9697,-3.9697,-3.9697,-3.9697,-3.9697,-3.9697,-3.9697,-3.9697,-3.9685,-3.9534,-3.927,-3.8994,-3.8906,-3.8417,-3.7877,-3.7412,-3.7236,-3.6945,-3.6565,-3.6487,-3.7243,-3.8257,-3.9316,-4.0447,-4.1643,-4.1988,-4.2452,-4.3076,-4.3305,-4.3305,-4.3305,-4.3305,-4.3305,-4.3305,-4.3305,-4.3305,-4.3305,-4.3305,-4.3305,-4.3305,-4.3305,-4.3305,-4.3305,-4.3305,-4.3305,-4.3305,-4.3305,-4.3305,-4.3305,-4.3305,-4.3305,-4.3305,-4.3305,-4.3305,-4.3305,-4.3305,-4.3305,-4.3305,-4.3305,-4.3305,-4.3305,-4.3305,-4.3305,-4.3305,-4.3305,-4.3305,-4.3448,-4.3708,-4.4082,-4.4818,-4.5248,-4.6311,-4.7885,-4.8719,-4.8909,-4.9018,-4.9018,-4.9018,-4.9018,-4.9018,-4.9018,-4.3338,-4.3313,-4.3074,-4.2986,-4.2986,-4.2986,-4.2986,-4.2986,-4.2986,-4.2986,-4.2986,-4.2986,-4.2986,-4.2961,-4.2986,-4.2798,-4.2627,-4.2564,-4.2208,-4.1681,-4.1392,-4.0978,-4.0576,-4.0212,-3.986,-3.9798,-3.9697,-3.9697,-3.9697,-3.9697,-3.9697,-3.9697,-3.9697,-3.9697,-3.9697,-3.9697,-3.9697,-3.9697,-3.9697,-3.9697,-3.9697,-3.9672,-3.9534,-3.9233,-3.8981,-3.8693,-3.8316,-3.7839,-3.7475,-3.7123,-3.6935,-3.6669,-3.6468,-3.6452,-3.6722,-3.707,-3.8211,-3.9683,-4.128,-4.1531,-4.2249,-4.2955,-4.3305,-4.3305,-4.3305,-4.3305,-4.3305,-4.3305,-4.3305,-4.3305,-4.3305,-4.3305,-4.3305,-4.3305,-4.3305,-4.3305,-4.3305,-4.3305,-4.3305,-4.3305,-4.3305,-4.3305,-4.3305,-4.3305,-4.3305,-4.3305,-4.3305,-4.3305,-4.3305,-4.3305,-4.3305,-4.3305,-4.3305,-4.3305,-4.3305,-4.3305,-4.3305,-4.3305,-4.3305,-4.3305,-4.3305,-4.3527,-4.3888,-4.4297,-4.4871,-4.617,-4.7852,-4.8338,-4.837,-4.8688,-4.9018,-4.9018,-4.9018,-4.9018,-4.9018,-4.2986,-4.2986,-4.2986,-4.2986,-4.2986,-4.2986,-4.2986,-4.2986,-4.2986,-4.2986,-4.2986,-4.2974,-4.2924,-4.2841,-4.2698,-4.2446,-4.1969,-4.1957,-4.1618,-4.1141,-4.0686,-4.0488,-4.0212,-3.9873,-3.9735,-3.9697,-3.9697,-3.9697,-3.9697,-3.9697,-3.9697,-3.9697,-3.9697,-3.9697,-3.9697,-3.9697,-3.9697,-3.9697,-3.9697,-3.9697,-3.9672,-3.9521,-3.9245,-3.8969,-3.8642,-3.8253,-3.7801,-3.7262,-3.6973,-3.686,-3.6669,-3.6455,-3.6417,-3.6417,-3.6417,-3.6803,-3.7632,-3.9067,-4.0547,-4.142,-4.2193,-4.29,-4.3305,-4.3305,-4.3305,-4.3305,-4.3305,-4.3305,-4.3305,-4.3305,-4.3305,-4.3305,-4.3305,-4.3305,-4.3305,-4.3305,-4.3305,-4.3305,-4.3305,-4.3305,-4.3305,-4.3305,-4.3305,-4.3305,-4.3305,-4.3305,-4.3305,-4.3305,-4.3305,-4.3305,-4.3305,-4.3305,-4.3305,-4.3305,-4.3305,-4.3305,-4.3305,-4.3305,-4.3305,-4.3305,-4.3305,-4.3369,-4.3591,-4.4082,-4.4488,-4.5488,-4.6815,-4.7323,-4.7852,-4.8497,-4.9018,-4.9018,-4.9018,-4.9018,-4.9018,-4.2986,-4.2986,-4.2986,-4.2986,-4.2986,-4.2986,-4.2986,-4.2986,-4.2986,-4.2949,-4.2898,-4.2924,-4.269,-4.2363,-4.2213,-4.1919,-4.1338,-4.1326,-4.104,-4.0727,-4.0488,-4.0199,-3.9948,-3.9772,-3.9697,-3.9697,-3.9697,-3.9697,-3.9697,-3.9697,-3.9697,-3.9697,-3.9697,-3.9697,-3.9697,-3.9697,-3.9697,-3.9672,-3.9622,-3.9597,-3.9446,-3.9207,-3.8856,-3.858,-3.7902,-3.7274,-3.7211,-3.682,-3.6568,-3.6568,-3.6468,-3.6417,-3.6417,-3.6417,-3.6417,-3.6883,-3.7494,-3.8814,-4.0045,-4.1169,-4.2152,-4.29,-4.3305,-4.3305,-4.3305,-4.3305,-4.3305,-4.3305,-4.3305,-4.3305,-4.3305,-4.3305,-4.3305,-4.3305,-4.3305,-4.3305,-4.3305,-4.3305,-4.3305,-4.3305,-4.3305,-4.3305,-4.3305,-4.3305,-4.3305,-4.3305,-4.3305,-4.3305,-4.3305,-4.3305,-4.3305,-4.3305,-4.3305,-4.3305,-4.3305,-4.3305,-4.3305,-4.3305,-4.3305,-4.3305,-4.3305,-4.3369,-4.3448,-4.3527,-4.3927,-4.4862,-4.5782,-4.6592,-4.7473,-4.8513,-4.9018,-4.9018,-4.9018,-4.9018,-4.9018,-4.2986,-4.2986,-4.2986,-4.2986,-4.2986,-4.2986,-4.2986,-4.2986,-4.2974,-4.2828,-4.2527,-4.2502,-4.217,-4.1769,-4.1618,-4.1354,-4.0837,-4.0827,-4.0475,-4.0162,-3.9948,-3.9873,-3.971,-3.9697,-3.9697,-3.9697,-3.9697,-3.9697,-3.9697,-3.9697,-3.9697,-3.9697,-3.9697,-3.9697,-3.9697,-3.9697,-3.9685,-3.9572,-3.9371,-3.9195,-3.9057,-3.863,-3.8178,-3.7813,-3.7588,-3.6985,-3.6769,-3.6543,-3.6443,-3.6417,-3.6417,-3.6417,-3.6417,-3.6417,-3.6675,-3.7137,-3.7802,-3.8649,-3.9754,-4.0916,-4.207,-4.2996,-4.3305,-4.3305,-4.3305,-4.3305,-4.3305,-4.3305,-4.3305,-4.3305,-4.3305,-4.3305,-4.3305,-4.3305,-4.3305,-4.3305,-4.3305,-4.3305,-4.3305,-4.3305,-4.3305,-4.3305,-4.3305,-4.3305,-4.3305,-4.3305,-4.3305,-4.3305,-4.3305,-4.3305,-4.3305,-4.3305,-4.3305,-4.3305,-4.3305,-4.3305,-4.3305,-4.3305,-4.3305,-4.3305,-4.3305,-4.3305,-4.3344,-4.3305,-4.3409,-4.4266,-4.5159,-4.6067,-4.7122,-4.8257,-4.8829,-4.9018,-4.9018,-4.9018,-4.9018,-4.2986,-4.2986,-4.2986,-4.2986,-4.2986,-4.2986,-4.2986,-4.2949,-4.2841,-4.2421,-4.1907,-4.1894,-4.1618,-4.1163,-4.1025,-4.0777,-4.0388,-4.0249,-4.0036,-3.986,-3.9747,-3.9697,-3.9697,-3.9697,-3.9697,-3.9697,-3.9697,-3.9697,-3.9697,-3.9697,-3.9697,-3.9697,-3.9697,-3.9697,-3.9697,-3.9685,-3.9622,-3.9371,-3.9132,-3.8781,-3.8592,-3.8052,-3.7676,-3.7236,-3.7036,-3.682,-3.6556,-3.643,-3.643,-3.6417,-3.6417,-3.6417,-3.6417,-3.6499,-3.6849,-3.7415,-3.7971,-3.8514,-3.9434,-4.0817,-4.2015,-4.3076,-4.3305,-4.3305,-4.3305,-4.3305,-4.3305,-4.3305,-4.3305,-4.3305,-4.3305,-4.3305,-4.3305,-4.3305,-4.3305,-4.3305,-4.3305,-4.3305,-4.3305,-4.3305,-4.3305,-4.3305,-4.3305,-4.3305,-4.3305,-4.3305,-4.3305,-4.3305,-4.3305,-4.3305,-4.3305,-4.3305,-4.3305,-4.3305,-4.3305,-4.3305,-4.3305,-4.3305,-4.3305,-4.3305,-4.3305,-4.3305,-4.3305,-4.3305,-4.3488,-4.3864,-4.4533,-4.5452,-4.6781,-4.8161,-4.8545,-4.8909,-4.9018,-4.9018,-4.9018,-4.2924,-4.2986,-4.2924,-4.2924,-4.2873,-4.2961,-4.2924,-4.2748,-4.2414,-4.1869,-4.1392,-4.1354,-4.1053,-4.0626,-4.0526,-4.0262,-3.9948,-3.981,-3.9747,-3.9722,-3.9697,-3.9697,-3.9697,-3.9697,-3.9697,-3.9697,-3.9697,-3.9697,-3.9697,-3.9697,-3.9697,-3.9647,-3.9609,-3.9572,-3.9672,-3.9685,-3.9408,-3.9007,-3.8818,-3.8429,-3.8015,-3.75,-3.7174,-3.6998,-3.6757,-3.6493,-3.6455,-3.6417,-3.6417,-3.6417,-3.6417,-3.6417,-3.6417,-3.6417,-3.6593,-3.6803,-3.7586,-3.803,-3.8424,-4.0405,-4.1988,-4.3076,-4.3305,-4.3305,-4.3305,-4.3305,-4.3305,-4.3305,-4.3305,-4.3305,-4.3305,-4.3305,-4.3305,-4.3305,-4.3305,-4.3305,-4.3305,-4.3305,-4.3305,-4.3305,-4.3305,-4.3305,-4.3305,-4.3305,-4.3305,-4.3305,-4.3305,-4.3305,-4.3305,-4.3305,-4.3305,-4.3305,-4.3305,-4.3305,-4.3305,-4.3305,-4.3305,-4.3305,-4.3305,-4.3305,-4.3305,-4.3305,-4.3305,-4.3305,-4.3409,-4.363,-4.4197,-4.4849,-4.6134,-4.7356,-4.8338,-4.8767,-4.8909,-4.9001,-4.9001,-4.1894,-4.1894,-4.1894,-4.1894,-4.1944,-4.2296,-4.2233,-4.1907,-4.1656,-4.1304,-4.0877,-4.0789,-4.0475,-4.0099,-3.9986,-3.9885,-3.9747,-3.9697,-3.9697,-3.9697,-3.9697,-3.9697,-3.9697,-3.9697,-3.9697,-3.9697,-3.9697,-3.9697,-3.9697,-3.9697,-3.9697,-3.9647,-3.9295,-3.9157,-3.9132,-3.9107,-3.8919,-3.8329,-3.7965,-3.7626,-3.7412,-3.696,-3.6707,-3.6719,-3.6505,-3.6417,-3.6417,-3.6417,-3.6417,-3.6417,-3.6417,-3.6417,-3.6417,-3.6417,-3.6722,-3.6977,-3.7632,-3.7782,-3.8992,-4.0817,-4.207,-4.286,-4.3305,-4.3305,-4.3305,-4.3305,-4.3305,-4.3305,-4.3305,-4.3305,-4.3305,-4.3305,-4.3305,-4.3305,-4.3305,-4.3305,-4.3305,-4.3305,-4.3305,-4.3305,-4.3305,-4.3305,-4.3305,-4.3305,-4.3305,-4.3305,-4.3305,-4.3305,-4.3305,-4.3305,-4.3305,-4.3305,-4.3305,-4.3305,-4.3305,-4.3305,-4.3305,-4.3305,-4.3305,-4.3305,-4.3305,-4.3305,-4.3305,-4.3305,-4.3329,-4.3409,-4.3849,-4.4396,-4.5358,-4.6416,-4.7222,-4.7917,-4.8047,-4.845,-4.9001,-4.1275,-4.1275,-4.1275,-4.1163,-4.1166,-4.1643,-4.1568,-4.1062,-4.0987,-4.0739,-4.0325,-4.0224,-4.0061,-3.9785,-3.9697,-3.9697,-3.9697,-3.9697,-3.9697,-3.9697,-3.9697,-3.9697,-3.9697,-3.9697,-3.9697,-3.9697,-3.9697,-3.9697,-3.9697,-3.9697,-3.9559,-3.9283,-3.8856,-3.8479,-3.8391,-3.8316,-3.8291,-3.7801,-3.7437,-3.7161,-3.6945,-3.6631,-3.6443,-3.6443,-3.6417,-3.6417,-3.6417,-3.6417,-3.6417,-3.6417,-3.6417,-3.6417,-3.6417,-3.6546,-3.6803,-3.701,-3.754,-3.8166,-4.0131,-4.1,-4.2167,-4.317,-4.3265,-4.3305,-4.3305,-4.3305,-4.3305,-4.3305,-4.3305,-4.3305,-4.3305,-4.3305,-4.3305,-4.3305,-4.3305,-4.3305,-4.3305,-4.3305,-4.3305,-4.3305,-4.3305,-4.3305,-4.3305,-4.3305,-4.3305,-4.3305,-4.3305,-4.3305,-4.3305,-4.3305,-4.3305,-4.3305,-4.3305,-4.3305,-4.3305,-4.3305,-4.3305,-4.3305,-4.3305,-4.3305,-4.3305,-4.3305,-4.3305,-4.3305,-4.3344,-4.3369,-4.3433,-4.3974,-4.4593,-4.5174,-4.5814,-4.6435,-4.7002,-4.7622,-4.8257,-4.1225,-4.1238,-4.1238,-4.0953,-4.0639,-4.1028,-4.0953,-4.0501,-4.0501,-4.0199,-3.9722,-3.9772,-3.9747,-3.9722,-3.9697,-3.9697,-3.9697,-3.9697,-3.9697,-3.9697,-3.9697,-3.9697,-3.9697,-3.9697,-3.9697,-3.9697,-3.9672,-3.9634,-3.9659,-3.9358,-3.9132,-3.8818,-3.8278,-3.7877,-3.7688,-3.7613,-3.7575,-3.7224,-3.7061,-3.681,-3.6593,-3.6468,-3.6417,-3.6417,-3.6417,-3.6417,-3.6417,-3.6417,-3.6417,-3.6417,-3.6417,-3.6417,-3.6417,-3.6417,-3.6405,-3.6803,-3.7632,-3.9552,-4.0944,-4.1545,-4.2249,-4.3155,-4.3305,-4.3305,-4.3305,-4.3305,-4.3305,-4.3305,-4.3305,-4.3305,-4.3305,-4.3305,-4.3305,-4.3305,-4.3305,-4.3305,-4.3305,-4.3305,-4.3305,-4.3305,-4.3305,-4.3305,-4.3305,-4.3305,-4.3305,-4.3305,-4.3305,-4.3305,-4.3305,-4.3305,-4.3305,-4.3305,-4.3305,-4.3305,-4.3305,-4.3305,-4.3305,-4.3305,-4.3305,-4.3305,-4.3305,-4.3305,-4.3305,-4.3305,-4.3305,-4.3329,-4.3409,-4.3369,-4.3472,-4.4051,-4.4743,-4.5322,-4.5941,-4.647,-4.6952,-4.0174,-4.0162,-4.0174,-4.0086,-3.9973,-4.0111,-4.0074,-3.9936,-3.9936,-3.981,-3.9697,-3.9697,-3.9697,-3.9697,-3.9697,-3.9697,-3.9697,-3.9697,-3.9697,-3.9697,-3.9697,-3.9697,-3.9685,-3.9672,-3.9685,-3.9659,-3.9609,-3.9396,-3.9044,-3.8793,-3.8504,-3.8191,-3.7688,-3.7324,-3.7136,-3.696,-3.681,-3.6722,-3.6684,-3.6606,-3.648,-3.6417,-3.6417,-3.6417,-3.6417,-3.6417,-3.6417,-3.6417,-3.6417,-3.6417,-3.6417,-3.6417,-3.6417,-3.6452,-3.6615,-3.7815,-3.9288,-4.1028,-4.1629,-4.233,-4.29,-4.3155,-4.3305,-4.3305,-4.3305,-4.3305,-4.3305,-4.3305,-4.3305,-4.3305,-4.3305,-4.3305,-4.3305,-4.3305,-4.3305,-4.3305,-4.3305,-4.3305,-4.3305,-4.3305,-4.3305,-4.3305,-4.3305,-4.3305,-4.3305,-4.3305,-4.3305,-4.3305,-4.3305,-4.3305,-4.3305,-4.3305,-4.3305,-4.3305,-4.3305,-4.3305,-4.3305,-4.3305,-4.3305,-4.3305,-4.3305,-4.3305,-4.3305,-4.3305,-4.3305,-4.3305,-4.3305,-4.3305,-4.3305,-4.3305,-4.3834,-4.4396,-4.4893,-4.5363,-4.5782,-3.9697,-3.9697,-3.9697,-3.9697,-3.9697,-3.9697,-3.9697,-3.9697,-3.9697,-3.9697,-3.9697,-3.9697,-3.9697,-3.9697,-3.9697,-3.9697,-3.9697,-3.9697,-3.9697,-3.9697,-3.9634,-3.9697,-3.9672,-3.9471,-3.9346,-3.9333,-3.912,-3.8755,-3.8429,-3.8015,-3.7676,-3.7638,-3.7123,-3.6971,-3.682,-3.6644,-3.6505,-3.6455,-3.6443,-3.6417,-3.6417,-3.6417,-3.6417,-3.6417,-3.6417,-3.6417,-3.6417,-3.6417,-3.6417,-3.6417,-3.6417,-3.6417,-3.6546,-3.6803,-3.7645,-3.8783,-3.9741,-4.1253,-4.2111,-4.229,-4.282,-4.317,-4.3305,-4.3305,-4.3305,-4.3305,-4.3305,-4.3305,-4.3305,-4.3305,-4.3305,-4.3305,-4.3305,-4.3305,-4.3305,-4.3305,-4.3305,-4.3305,-4.3305,-4.3305,-4.3305,-4.3305,-4.3305,-4.3305,-4.3305,-4.3305,-4.3305,-4.3305,-4.3305,-4.3305,-4.3305,-4.3305,-4.3305,-4.3305,-4.3305,-4.3305,-4.3305,-4.3305,-4.3305,-4.3305,-4.3305,-4.3305,-4.3305,-4.3305,-4.3305,-4.3305,-4.3305,-4.3305,-4.3305,-4.3305,-4.3305,-4.3732,-4.4105,-4.4266,-4.4653,-3.9697,-3.9697,-3.9697,-3.9697,-3.9697,-3.9697,-3.9697,-3.9697,-3.9697,-3.9697,-3.9697,-3.9697,-3.9697,-3.9697,-3.9697,-3.9697,-3.9634,-3.9584,-3.9484,-3.9584,-3.9333,-3.9308,-3.9182,-3.9069,-3.8843,-3.8617,-3.8417,-3.8216,-3.7852,-3.7437,-3.7159,-3.7134,-3.6732,-3.6531,-3.6518,-3.648,-3.6417,-3.6417,-3.6417,-3.6417,-3.6417,-3.6417,-3.6417,-3.6417,-3.6417,-3.6417,-3.6417,-3.6417,-3.6417,-3.6417,-3.6417,-3.6417,-3.6722,-3.7368,-3.8527,-3.9536,-4.0189,-4.1435,-4.2386,-4.2603,-4.2684,-4.3036,-4.3305,-4.3305,-4.3305,-4.3305,-4.3305,-4.3305,-4.3305,-4.3305,-4.3305,-4.3305,-4.3305,-4.3305,-4.3305,-4.3305,-4.3305,-4.3305,-4.3305,-4.3305,-4.3305,-4.3305,-4.3305,-4.3305,-4.3305,-4.3305,-4.3305,-4.3305,-4.3305,-4.3305,-4.3305,-4.3305,-4.3305,-4.3305,-4.3305,-4.3305,-4.3305,-4.3305,-4.3305,-4.3305,-4.3305,-4.3305,-4.3305,-4.3305,-4.3305,-4.3305,-4.3305,-4.3305,-4.3305,-4.3305,-4.3305,-4.3305,-4.3448,-4.3615,-4.3771,-3.9697,-3.9697,-3.9697,-3.9697,-3.9697,-3.9697,-3.9685,-3.9697,-3.9697,-3.9647,-3.9685,-3.9672,-3.9672,-3.9622,-3.9559,-3.9546,-3.9521,-3.9182,-3.9094,-3.8919,-3.8743,-3.8668,-3.8467,-3.8366,-3.8216,-3.8178,-3.8015,-3.7688,-3.7337,-3.6945,-3.6631,-3.6619,-3.6417,-3.6417,-3.6417,-3.6417,-3.6417,-3.6417,-3.6417,-3.6417,-3.6417,-3.6417,-3.6417,-3.6417,-3.6417,-3.6417,-3.6417,-3.6417,-3.6417,-3.6417,-3.6417,-3.6417,-3.6452,-3.7494,-3.8649,-3.9754,-4.0604,-4.1823,-4.2589,-4.286,-4.286,-4.3036,-4.3305,-4.3305,-4.3305,-4.3305,-4.3305,-4.3305,-4.3305,-4.3305,-4.3305,-4.3305,-4.3305,-4.3305,-4.3305,-4.3305,-4.3305,-4.3305,-4.3305,-4.3305,-4.3305,-4.3305,-4.3305,-4.3305,-4.3305,-4.3305,-4.3305,-4.3305,-4.3305,-4.3305,-4.3305,-4.3305,-4.3305,-4.3305,-4.3305,-4.3305,-4.3305,-4.3305,-4.3305,-4.3305,-4.3305,-4.3305,-4.3305,-4.3305,-4.3305,-4.3305,-4.3305,-4.3305,-4.3305,-4.3305,-4.3305,-4.3305,-4.3305,-4.3448,-4.3409,-3.9697,-3.9697,-3.9697,-3.9697,-3.9659,-3.9446,-3.9333,-3.927,-3.9057,-3.8944,-3.9007,-3.9195,-3.9333,-3.9233,-3.9082,-3.9007,-3.8944,-3.8642,-3.8517,-3.8354,-3.8178,-3.8128,-3.7939,-3.7739,-3.7663,-3.7626,-3.7337,-3.7023,-3.687,-3.6669,-3.6443,-3.6417,-3.6417,-3.6417,-3.6417,-3.6417,-3.6417,-3.6417,-3.6417,-3.6417,-3.6417,-3.6417,-3.6417,-3.6417,-3.6417,-3.6417,-3.6417,-3.6417,-3.6417,-3.6417,-3.6417,-3.6417,-3.6849,-3.8088,-3.9094,-3.9972,-4.0916,-4.2097,-4.2805,-4.3021,-4.2941,-4.3115,-4.3305,-4.3305,-4.3305,-4.3305,-4.3305,-4.3305,-4.3305,-4.3305,-4.3305,-4.3305,-4.3305,-4.3305,-4.3305,-4.3305,-4.3305,-4.3305,-4.3305,-4.3305,-4.3305,-4.3305,-4.3305,-4.3305,-4.3305,-4.3305,-4.3305,-4.3305,-4.3305,-4.3305,-4.3305,-4.3305,-4.3305,-4.3305,-4.3305,-4.3305,-4.3305,-4.3305,-4.3305,-4.3305,-4.3305,-4.3305,-4.3305,-4.3305,-4.3305,-4.3305,-4.3305,-4.3305,-4.3305,-4.3305,-4.3305,-4.3305,-4.3305,-4.3305,-4.3305,-3.9446,-3.9471,-3.9459,-3.9459,-3.9408,-3.8969,-3.8818,-3.8693,-3.8253,-3.804,-3.8115,-3.8492,-3.8718,-3.8567,-3.8291,-3.8115,-3.799,-3.7977,-3.7939,-3.7877,-3.7751,-3.7538,-3.74,-3.7299,-3.7161,-3.6973,-3.6722,-3.6644,-3.6505,-3.6417,-3.6417,-3.6417,-3.6417,-3.6417,-3.6417,-3.6417,-3.6417,-3.6417,-3.6417,-3.6417,-3.6417,-3.6417,-3.6417,-3.6417,-3.6417,-3.6417,-3.6417,-3.6417,-3.6417,-3.6417,-3.6465,-3.6628,-3.7116,-3.8302,-3.9448,-4.0318,-4.1085,-4.2152,-4.2845,-4.267,-4.2805,-4.3021,-4.321,-4.3305,-4.3305,-4.3305,-4.3305,-4.3305,-4.3305,-4.3305,-4.3305,-4.3305,-4.3305,-4.3305,-4.3305,-4.3305,-4.3305,-4.3305,-4.3305,-4.3305,-4.3305,-4.3305,-4.3305,-4.3305,-4.3305,-4.3305,-4.3305,-4.3305,-4.3305,-4.3305,-4.3305,-4.3305,-4.3305,-4.3305,-4.3305,-4.3305,-4.3305,-4.3305,-4.3305,-4.3305,-4.3305,-4.3305,-4.3305,-4.3305,-4.3305,-4.3305,-4.3305,-4.3305,-4.3305,-4.3305,-4.3305,-4.3305,-4.3305,-4.3305,-4.3305,-3.8329,-3.8329,-3.8329,-3.8341,-3.8329,-3.8216,-3.8165,-3.8153,-3.804,-3.8002,-3.7852,-3.76,-3.7701,-3.8153,-3.809,-3.7914,-3.7688,-3.7513,-3.7362,-3.7324,-3.7061,-3.687,-3.6795,-3.6857,-3.6631,-3.6531,-3.6493,-3.6443,-3.6417,-3.6417,-3.6417,-3.6417,-3.6417,-3.6417,-3.6417,-3.6417,-3.6417,-3.6417,-3.6417,-3.6417,-3.6417,-3.6417,-3.6417,-3.6417,-3.6417,-3.6417,-3.6417,-3.6417,-3.6417,-3.6417,-3.6452,-3.6896,-3.7599,-3.8424,-3.9522,-4.0831,-4.156,-4.2249,-4.2765,-4.286,-4.3115,-4.3155,-4.3305,-4.3305,-4.3305,-4.3305,-4.3305,-4.3305,-4.3305,-4.3305,-4.3305,-4.3305,-4.3305,-4.3305,-4.3305,-4.3305,-4.3305,-4.3305,-4.3305,-4.3305,-4.3305,-4.3305,-4.3305,-4.3305,-4.3305,-4.3305,-4.3305,-4.3305,-4.3305,-4.3305,-4.3305,-4.3305,-4.3305,-4.3305,-4.3305,-4.3305,-4.3305,-4.3305,-4.3305,-4.3305,-4.3305,-4.3305,-4.3305,-4.3305,-4.3305,-4.3305,-4.3305,-4.3305,-4.3305,-4.3305,-4.3305,-4.3305,-4.3305,-4.3305,-4.3305]}]]